Darstellungsparameter: Aktuell verwendete Einstellungen:
Skalierung der Graphiken ... ?
xyx+y,   Skalierungsfaktor:      Skalierung: Modus: x, Faktor: 1
Darstellungszeitraum ... ?
Vom - - bis: - -   Zeitraum: 25.04.2007 - 24.04.2017
Min/Max/Avg-Anzeige ... ?
Zeige MMA aktuell
Zeige MMA Monat
Zeige MMA alles
Zeige --A aktuell
Zeige --A Monat
Zeige --A alles
Keine MMA-Anzeige
MMA:
Keine MMA-Graphiken
MMA-Basis: 25.04.2007 - 24.04.2017
Quicknavigation für Darstellung... ?
Tage:      1T, 2T, 3T, 5T -1T -2T -3T -5T +1T +2T +3T +5T
Wochen: 1W, 2W, 3W -1W -2W -3W +1W +2W +3W
Monate: 1M, 3M, 6M -1M -3M -6M +1M +3M +6M
Jahre:    1J, 3J, 5J, 10J -1J -3J -5J -10J +1J +3J +5J +10J
Nutze für die Darstellung ... ?
Originaldaten oder ...
Mittelwerte Minima Maxima auf...
Stundenbasis Tagesbasis Wochenbasis
Monatsbasis Jahresbasis      Datenbasis: Mittelwerte auf Tagesbasis
Darstellen als:
Statistik (Auto) Statistik J:M      Darstellung:
Zur Graphik,    zurück zur Übersicht aller Sensoren.
 
Tabellarische Datenbersicht: ?
 
Sensor: Nr:Datum:Temp:Feuchte:Taupunkt:
Aussen-T/F 1 25-04-2007 00:00:00 22.135 C 44.3917 % 9.45 C
2 26-04-2007 00:00:00 21.16 C 42.2333 % 7.83 C
3 27-04-2007 00:00:00 20.46303 C 41.7815 % 7.05 C
4 28-04-2007 00:00:00 20.92083 C 42.3000 % 7.64 C
5 29-04-2007 00:00:00 19.75583 C 41.7000 % 6.39 C
6 30-04-2007 00:00:00 16.78917 C 29.4833 % -1.1 C
7 01-05-2007 00:00:00 16.47083 C 33.2250 % 0.26 C
8 02-05-2007 00:00:00 16.09167 C 27.7833 % -2.5 C
9 03-05-2007 00:00:00 17.355 C 34.8500 % 1.7 C
10 04-05-2007 00:00:00 18.835 C 36.9750 % 3.84 C
11 05-05-2007 00:00:00 17.5975 C 41.2167 % 4.28 C
12 06-05-2007 00:00:00 16.51167 C 52.7083 % 6.83 C
13 07-05-2007 00:00:00 15.5625 C 65.1083 % 9.04 C
14 08-05-2007 00:00:00 14.1825 C 63.3750 % 7.34 C
15 09-05-2007 00:00:00 12.76917 C 79.3667 % 9.29 C
16 10-05-2007 00:00:00 17.70667 C 56.4917 % 8.96 C
17 11-05-2007 00:00:00 15.535 C 49.5583 % 5.04 C
18 12-05-2007 00:00:00 15.02689 C 61.9748 % 7.81 C
19 13-05-2007 00:00:00 17.04333 C 61.9250 % 9.7 C
20 14-05-2007 00:00:00 15.98917 C 57.3750 % 7.58 C
21 15-05-2007 00:00:00 13.36917 C 64.2667 % 6.77 C
22 16-05-2007 00:00:00 12.17917 C 70.4833 % 6.98 C
23 17-05-2007 00:00:00 10.8525 C 80.3333 % 7.6 C
24 18-05-2007 00:00:00 14.6325 C 65.6667 % 8.28 C
25 19-05-2007 00:00:00 18.53583 C 65.5583 % 11.97 C
Sensor: Nr:Datum:Temp:Feuchte:Taupunkt:
Aussen-T/F 26 20-05-2007 00:00:00 21.92667 C 50.3333 % 11.14 C
27 21-05-2007 00:00:00 22.61667 C 56.9000 % 13.64 C
28 22-05-2007 00:00:00 22.86667 C 57.7333 % 14.1 C
29 23-05-2007 00:00:00 20.8675 C 62.2750 % 13.39 C
30 24-05-2007 00:00:00 23.91417 C 52.7667 % 13.69 C
31 25-05-2007 00:00:00 24.57059 C 52.4370 % 14.2 C
32 26-05-2007 00:00:00 21.745 C 66.4500 % 15.22 C
33 27-05-2007 00:00:00 17.5125 C 66.0083 % 11.1 C
34 28-05-2007 00:00:00 12.24917 C 78.6250 % 8.65 C
35 29-05-2007 00:00:00 11.033 C 79.0400 % 7.54 C
36 30-05-2007 00:00:00 13.67465 C 53.2113 % 4.34 C
37 31-05-2007 00:00:00 16.05139 C 60.5694 % 8.43 C
38 01-06-2007 00:00:00 15.42361 C 72.7222 % 10.55 C
39 02-06-2007 00:00:00 18.53611 C 61.9028 % 11.1 C
40 03-06-2007 00:00:00 20.87083 C 55.5278 % 11.64 C
41 04-06-2007 00:00:00 22.02361 C 54.5139 % 12.44 C
42 05-06-2007 00:00:00 21.66389 C 53.7639 % 11.89 C
43 06-06-2007 00:00:00 22.53889 C 52.9167 % 12.46 C
44 07-06-2007 00:00:00 25.42222 C 48.2083 % 13.68 C
45 08-06-2007 00:00:00 26.47639 C 45.6806 % 13.81 C
46 09-06-2007 00:00:00 23.12917 C 59.2917 % 14.76 C
47 10-06-2007 00:00:00 21.28889 C 67.3889 % 15.01 C
48 11-06-2007 00:00:00 21.88068 C 61.7500 % 14.21 C
49 12-06-2007 00:00:00 20.17167 C 67.6167 % 13.99 C
50 13-06-2007 00:00:00 21.51176 C 55.0084 % 12.1 C
Sensor: Nr:Datum:Temp:Feuchte:Taupunkt:
Aussen-T/F 51 14-06-2007 00:00:00 22.15833 C 61.9500 % 14.52 C
52 15-06-2007 00:00:00 19.84667 C 67.7083 % 13.7 C
53 16-06-2007 00:00:00 18.0125 C 60.5083 % 10.26 C
54 17-06-2007 00:00:00 20.0125 C 55.6583 % 10.88 C
55 18-06-2007 00:00:00 20.92583 C 61.5917 % 13.27 C
56 19-06-2007 00:00:00 23.70833 C 52.2333 % 13.34 C
57 20-06-2007 00:00:00 23.68667 C 56.3250 % 14.48 C
58 21-06-2007 00:00:00 18.30167 C 79.4500 % 14.69 C
59 22-06-2007 00:00:00 16.06417 C 80.0667 % 12.63 C
60 23-06-2007 00:00:00 16.04167 C 77.3417 % 12.08 C
61 24-06-2007 00:00:00 19.31667 C 60.3667 % 11.45 C
62 25-06-2007 00:00:00 18.13667 C 70.1417 % 12.61 C
63 26-06-2007 00:00:00 13.90667 C 69.6583 % 8.46 C
64 27-06-2007 00:00:00 14.2225 C 54.2417 % 5.12 C
65 28-06-2007 00:00:00 15.82833 C 55.1417 % 6.85 C
66 29-06-2007 00:00:00 16.88417 C 57.8917 % 8.55 C
67 30-06-2007 00:00:00 18.675 C 60.6167 % 10.91 C
68 01-07-2007 00:00:00 20.8525 C 58.6250 % 12.45 C
69 02-07-2007 00:00:00 19.54917 C 61.9417 % 12.06 C
70 03-07-2007 00:00:00 15.42583 C 74.8000 % 10.98 C
71 04-07-2007 00:00:00 15.17417 C 68.8833 % 9.51 C
72 05-07-2007 00:00:00 15.1325 C 73.8417 % 10.5 C
73 06-07-2007 00:00:00 17.63613 C 54.9244 % 8.47 C
74 07-07-2007 00:00:00 18.55167 C 44.9917 % 6.4 C
75 08-07-2007 00:00:00 19.8175 C 48.6833 % 8.71 C
Sensor: Nr:Datum:Temp:Feuchte:Taupunkt:
Aussen-T/F 76 09-07-2007 00:00:00 17.15583 C 64.2500 % 10.35 C
77 10-07-2007 00:00:00 14.66583 C 74.5750 % 10.2 C
78 11-07-2007 00:00:00 14.37833 C 76.4917 % 10.3 C
79 12-07-2007 00:00:00 17.7 C 64.0500 % 10.82 C
80 13-07-2007 00:00:00 22.43167 C 59.7333 % 14.22 C
81 14-07-2007 00:00:00 25.05 C 50.6250 % 14.09 C
82 15-07-2007 00:00:00 27.2075 C 43.9583 % 13.88 C
83 16-07-2007 00:00:00 26.8025 C 35.0833 % 10.1 C
84 17-07-2007 00:00:00 25.11167 C 36.9417 % 9.38 C
85 18-07-2007 00:00:00 22.78 C 45.3500 % 10.35 C
86 19-07-2007 00:00:00 20.29333 C 62.6917 % 12.95 C
87 20-07-2007 00:00:00 22.04917 C 62.3583 % 14.52 C
88 21-07-2007 00:00:00 19.74917 C 56.9250 % 10.97 C
89 22-07-2007 00:00:00 19.89917 C 48.4667 % 8.72 C
90 23-07-2007 00:00:00 16.33333 C 72.9083 % 11.47 C
91 24-07-2007 00:00:00 16.72667 C 66.6167 % 10.49 C
92 25-07-2007 00:00:00 19.68571 C 51.9832 % 9.56 C
93 26-07-2007 00:00:00 21.75583 C 49.0083 % 10.58 C
94 27-07-2007 00:00:00 22.4675 C 41.3750 % 8.71 C
95 28-07-2007 00:00:00 21.095 C 55.3500 % 11.8 C
96 29-07-2007 00:00:00 17.3075 C 64.5750 % 10.57 C
97 30-07-2007 00:00:00 14.66167 C 55.2500 % 5.79 C
98 31-07-2007 00:00:00 15.68167 C 50.1833 % 5.35 C
99 01-08-2007 00:00:00 18.53833 C 47.1417 % 7.07 C
100 02-08-2007 00:00:00 18.3275 C 60.9417 % 10.67 C
Sensor: Nr:Datum:Temp:Feuchte:Taupunkt:
Aussen-T/F 101 03-08-2007 00:00:00 19.78083 C 52.2667 % 9.73 C
102 04-08-2007 00:00:00 21.05 C 48.1750 % 9.68 C
103 05-08-2007 00:00:00 23.69833 C 42.6583 % 10.27 C
104 06-08-2007 00:00:00 24.23417 C 42.2667 % 10.61 C
105 07-08-2007 00:00:00 18.36167 C 80.4833 % 14.94 C
106 08-08-2007 00:00:00 16.0175 C 80.7583 % 12.71 C
107 09-08-2007 00:00:00 14.26667 C 94.1833 % 13.34 C
108 10-08-2007 00:00:00 17.82833 C 88.8083 % 15.96 C
109 11-08-2007 00:00:00 19.64083 C 65.4417 % 12.99 C
110 12-08-2007 00:00:00 20.07417 C 58.1167 % 11.59 C
111 13-08-2007 00:00:00 20.9175 C 55.5833 % 11.7 C
112 14-08-2007 00:00:00 20.9275 C 52.8667 % 10.96 C
113 15-08-2007 00:00:00 23.49917 C 61.0750 % 15.56 C
114 16-08-2007 00:00:00 18.74667 C 65.4750 % 12.15 C
115 17-08-2007 00:00:00 17.27833 C 54.9417 % 8.15 C
116 18-08-2007 00:00:00 17.40917 C 54.1667 % 8.06 C
117 19-08-2007 00:00:00 17.24583 C 67.4583 % 11.17 C
118 20-08-2007 00:00:00 17.315 C 65.7667 % 10.85 C
119 21-08-2007 00:00:00 15.4225 C 78.3500 % 11.68 C
120 22-08-2007 00:00:00 15.95593 C 87.1610 % 13.82 C
121 23-08-2007 00:00:00 17.7575 C 79.1333 % 14.1 C
122 24-08-2007 00:00:00 19.43833 C 69.1250 % 13.63 C
123 25-08-2007 00:00:00 21.42 C 63.4750 % 14.2 C
124 26-08-2007 00:00:00 21.99167 C 62.3583 % 14.47 C
125 27-08-2007 00:00:00 19.53583 C 52.5417 % 9.58 C
Sensor: Nr:Datum:Temp:Feuchte:Taupunkt:
Aussen-T/F 126 28-08-2007 00:00:00 16.42167 C 57.9583 % 8.13 C
127 29-08-2007 00:00:00 17.285 C 45.6083 % 5.45 C
128 30-08-2007 00:00:00 15.3675 C 53.4750 % 5.98 C
129 31-08-2007 00:00:00 17.5825 C 66.0167 % 11.17 C
130 01-09-2007 00:00:00 17.1975 C 68.3833 % 11.33 C
131 02-09-2007 00:00:00 17.35583 C 60.9167 % 9.75 C
132 03-09-2007 00:00:00 15.74917 C 67.6750 % 9.79 C
133 04-09-2007 00:00:00 12.88417 C 62.5250 % 5.91 C
134 05-09-2007 00:00:00 12.6395 C 62.3950 % 5.65 C
135 06-09-2007 00:00:00 15.00917 C 73.4667 % 10.31 C
136 07-09-2007 00:00:00 15.9325 C 67.9750 % 10.03 C
137 08-09-2007 00:00:00 15.13667 C 77.7000 % 11.27 C
138 09-09-2007 00:00:00 15.125 C 70.9333 % 9.9 C
139 10-09-2007 00:00:00 12.4075 C 79.3917 % 8.94 C
140 11-09-2007 00:00:00 14.36833 C 69.7833 % 8.93 C
141 12-09-2007 00:00:00 14.94417 C 66.8167 % 8.84 C
142 13-09-2007 00:00:00 14.5175 C 68.1667 % 8.72 C
143 14-09-2007 00:00:00 15.68417 C 64.4583 % 9.01 C
144 15-09-2007 00:00:00 16.86917 C 57.4250 % 8.42 C
145 16-09-2007 00:00:00 15.27 C 63.0583 % 8.29 C
146 17-09-2007 00:00:00 16.68833 C 71.1500 % 11.44 C
147 18-09-2007 00:00:00 11.46833 C 80.1833 % 8.18 C
148 19-09-2007 00:00:00 10.3275 C 66.7750 % 4.43 C
149 20-09-2007 00:00:00 13.68083 C 59.4000 % 5.92 C
150 21-09-2007 00:00:00 14.35833 C 62.5417 % 7.31 C
Sensor: Nr:Datum:Temp:Feuchte:Taupunkt:
Aussen-T/F 151 22-09-2007 00:00:00 15.97583 C 64.2333 % 9.23 C
152 23-09-2007 00:00:00 17.80333 C 62.5500 % 10.56 C
153 24-09-2007 00:00:00 16.95833 C 65.7167 % 10.5 C
154 25-09-2007 00:00:00 12.91917 C 68.3417 % 7.24 C
155 26-09-2007 00:00:00 12.2675 C 72.5750 % 7.49 C
156 27-09-2007 00:00:00 10.19083 C 93.0333 % 9.12 C
157 28-09-2007 00:00:00 12.50168 C 79.2353 % 9.01 C
158 29-09-2007 00:00:00 13.54444 C 73.2882 % 8.86 C
159 30-09-2007 00:00:00 14.59687 C 72.8646 % 9.79 C
160 01-10-2007 00:00:00 14.70313 C 77.1127 % 10.74 C
161 02-10-2007 00:00:00 17.235 C 78.2854 % 13.42 C
162 03-10-2007 00:00:00 17.39188 C 77.4125 % 13.4 C
163 04-10-2007 00:00:00 17.33653 C 78.0647 % 13.48 C
164 05-10-2007 00:00:00 15.50646 C 65.9313 % 9.17 C
165 06-10-2007 00:00:00 12.34042 C 69.6938 % 6.97 C
166 07-10-2007 00:00:00 11.60813 C 73.9667 % 7.13 C
167 08-10-2007 00:00:00 10.74021 C 76.4542 % 6.77 C
168 09-10-2007 00:00:00 12.05052 C 75.7808 % 7.91 C
169 10-10-2007 00:00:00 14.53875 C 64.5167 % 7.93 C
170 11-10-2007 00:00:00 11.52958 C 70.9146 % 6.44 C
171 12-10-2007 00:00:00 12.23271 C 76.1958 % 8.17 C
172 13-10-2007 00:00:00 13.96146 C 64.9563 % 7.49 C
173 14-10-2007 00:00:00 9.94958 C 69.0396 % 4.54 C
174 15-10-2007 00:00:00 10.725 C 74.7021 % 6.42 C
175 16-10-2007 00:00:00 13.70417 C 70.5188 % 8.45 C
Sensor: Nr:Datum:Temp:Feuchte:Taupunkt:
Aussen-T/F 176 17-10-2007 00:00:00 11.78601 C 79.8121 % 8.42 C
177 18-10-2007 00:00:00 9.70042 C 69.9708 % 4.5 C
178 19-10-2007 00:00:00 7.65667 C 76.3000 % 3.76 C
179 20-10-2007 00:00:00 3.38583 C 90.8083 % 2.03 C
180 24-10-2007 00:00:00 7.63803 C 70.4507 % 2.62 C
181 25-10-2007 00:00:00 8.51042 C 73.2958 % 4.01 C
182 26-10-2007 00:00:00 8.8712 C 68.9307 % 3.49 C
183 27-10-2007 00:00:00 8.5725 C 68.2250 % 3.06 C
184 28-10-2007 00:00:00 9.1632 C 66.2080 % 3.2 C
185 29-10-2007 00:00:00 8.77833 C 81.3167 % 5.76 C
186 30-10-2007 00:00:00 8.70333 C 84.3583 % 6.22 C
187 31-10-2007 00:00:00 6.43333 C 86.2250 % 4.3 C
188 01-11-2007 00:00:00 5.77833 C 84.4417 % 3.36 C
189 02-11-2007 00:00:00 10.20333 C 89.5583 % 8.57 C
190 03-11-2007 00:00:00 11.76723 C 91.7479 % 10.47 C
191 04-11-2007 00:00:00 10.35 C 71.2250 % 5.37 C
192 05-11-2007 00:00:00 8.61333 C 62.5167 % 1.87 C
193 06-11-2007 00:00:00 8.1225 C 70.6167 % 3.11 C
194 07-11-2007 00:00:00 8.495 C 71.8667 % 3.72 C
195 08-11-2007 00:00:00 9.85667 C 77.3833 % 6.09 C
196 09-11-2007 00:00:00 5.16167 C 74.4417 % 1 C
197 10-11-2007 00:00:00 6.29083 C 79.9917 % 3.1 C
198 11-11-2007 00:00:00 7.75917 C 81.9167 % 4.87 C
199 12-11-2007 00:00:00 5.1475 C 69.7917 % 0.1 C
200 13-11-2007 00:00:00 3.98167 C 80.9417 % 1.01 C
Sensor: Nr:Datum:Temp:Feuchte:Taupunkt:
Aussen-T/F 201 14-11-2007 00:00:00 2.72417 C 74.8917 % -1.27 C
202 15-11-2007 00:00:00 1.3425 C 71.9000 % -3.16 C
203 16-11-2007 00:00:00 -0.59167 C 82.5667 % -3.19 C
204 17-11-2007 00:00:00 3.35714 C 76.7983 % -0.32 C
205 18-11-2007 00:00:00 3.3825 C 80.4167 % 0.34 C
206 19-11-2007 00:00:00 2.57333 C 75.1333 % -1.37 C
207 20-11-2007 00:00:00 5.33 C 66.0333 % -0.49 C
208 21-11-2007 00:00:00 6.755 C 74.2750 % 2.51 C
209 22-11-2007 00:00:00 7.93917 C 80.7167 % 4.84 C
210 23-11-2007 00:00:00 6.7275 C 89.4750 % 5.12 C
211 24-11-2007 00:00:00 2.76833 C 82.3250 % 0.06 C
212 25-11-2007 00:00:00 4.25167 C 81.8417 % 1.43 C
213 26-11-2007 00:00:00 3.9725 C 73.4750 % -0.33 C
214 27-11-2007 00:00:00 4.23833 C 72.4417 % -0.27 C
215 28-11-2007 00:00:00 0.0625 C 88.7167 % -1.57 C
216 29-11-2007 00:00:00 1.3325 C 86.4167 % -0.68 C
217 30-11-2007 00:00:00 5.76 C 79.7333 % 2.54 C
218 01-12-2007 00:00:00 8.51345 C 68.1513 % 2.99 C
219 02-12-2007 00:00:00 9.13667 C 70.5167 % 4.07 C
220 03-12-2007 00:00:00 7.21167 C 63.3250 % 0.72 C
221 04-12-2007 00:00:00 5.77583 C 78.4500 % 2.33 C
222 05-12-2007 00:00:00 10.11667 C 76.0500 % 6.09 C
223 06-12-2007 00:00:00 9.85667 C 71.6000 % 4.98 C
224 07-12-2007 00:00:00 10.3625 C 63.3000 % 3.7 C
225 08-12-2007 00:00:00 5.77917 C 65.6250 % -0.15 C
Sensor: Nr:Datum:Temp:Feuchte:Taupunkt:
Aussen-T/F 226 09-12-2007 00:00:00 7.00333 C 74.2083 % 2.73 C
227 10-12-2007 00:00:00 6.24167 C 83.5250 % 3.66 C
228 11-12-2007 00:00:00 5.6775 C 75.9167 % 1.77 C
229 12-12-2007 00:00:00 4.92417 C 74.0250 % 0.69 C
230 13-12-2007 00:00:00 5.2125 C 63.2583 % -1.19 C
231 14-12-2007 00:00:00 2.35798 C 51.9412 % -6.48 C
232 15-12-2007 00:00:00 0.0325 C 58.8000 % -7.05 C
233 16-12-2007 00:00:00 -2.92417 C 75.4000 % -6.65 C
234 17-12-2007 00:00:00 -1.06 C 63.2333 % -7.15 C
235 18-12-2007 00:00:00 -2.50833 C 77.1417 % -5.95 C
236 19-12-2007 00:00:00 -3.8675 C 83.6667 % -6.22 C
237 20-12-2007 00:00:00 -5.26417 C 86.8167 % -7.11 C
238 21-12-2007 00:00:00 -5.9625 C 85.7917 % -7.95 C
239 22-12-2007 00:00:00 -7.21833 C 83.9667 % -9.46 C
240 23-12-2007 00:00:00 -5.47333 C 85.5417 % -7.51 C
241 24-12-2007 00:00:00 -1.28333 C 90.4833 % -2.64 C
242 25-12-2007 00:00:00 -3.13917 C 82.2500 % -5.73 C
243 26-12-2007 00:00:00 -1.31513 C 86.6639 % -3.25 C
244 27-12-2007 00:00:00 2.63917 C 82.9333 % 0.04 C
245 28-12-2007 00:00:00 4.575 C 79.7167 % 1.38 C
246 29-12-2007 00:00:00 3.32667 C 79.5917 % 0.14 C
247 30-12-2007 00:00:00 4.99167 C 77.1417 % 1.33 C
248 31-12-2007 00:00:00 3.21667 C 86.0250 % 1.11 C
249 01-01-2008 00:00:00 1.85083 C 82.1417 % -0.86 C
250 02-01-2008 00:00:00 -1.72 C 74.6417 % -5.62 C
Sensor: Nr:Datum:Temp:Feuchte:Taupunkt:
Aussen-T/F 251 03-01-2008 00:00:00 -0.05667 C 59.5500 % -6.98 C
252 04-01-2008 00:00:00 0.27167 C 67.6750 % -4.99 C
253 05-01-2008 00:00:00 5.0775 C 82.4667 % 2.35 C
254 06-01-2008 00:00:00 3.95167 C 82.4583 % 1.24 C
255 07-01-2008 00:00:00 5.63583 C 74.8583 % 1.54 C
256 08-01-2008 00:00:00 4.45546 C 82.7731 % 1.79 C
257 09-01-2008 00:00:00 4.03167 C 84.5667 % 1.67 C
258 10-01-2008 00:00:00 6.32083 C 73.8750 % 2.01 C
259 11-01-2008 00:00:00 9.6175 C 63.9667 % 3.14 C
260 12-01-2008 00:00:00 6.39 C 67.3417 % 0.79 C
261 13-01-2008 00:00:00 0.58167 C 84.5167 % -1.72 C
262 14-01-2008 00:00:00 3.80833 C 78.1083 % 0.35 C
263 15-01-2008 00:00:00 8.28833 C 60.8250 % 1.18 C
264 16-01-2008 00:00:00 8.28667 C 63.4917 % 1.78 C
265 17-01-2008 00:00:00 7.21833 C 70.1750 % 2.16 C
266 18-01-2008 00:00:00 9.17667 C 70.7167 % 4.15 C
267 19-01-2008 00:00:00 12.72353 C 66.6975 % 6.69 C
268 20-01-2008 00:00:00 12.27333 C 63.6250 % 5.58 C
269 21-01-2008 00:00:00 10.16471 C 61.0719 % 3.01 C
270 22-01-2008 00:00:00 4.58605 C 60.6163 % -2.36 C
271 23-01-2008 00:00:00 2.9125 C 66.2750 % -2.74 C
272 24-01-2008 00:00:00 6.355 C 62.6167 % -0.24 C
273 25-01-2008 00:00:00 3.72583 C 69.4750 % -1.33 C
274 26-01-2008 00:00:00 5.43583 C 60.9667 % -1.48 C
275 27-01-2008 00:00:00 5.64333 C 60.4833 % -1.39 C
Sensor: Nr:Datum:Temp:Feuchte:Taupunkt:
Aussen-T/F 276 28-01-2008 00:00:00 7.44 C 65.0667 % 1.32 C
277 29-01-2008 00:00:00 5.72167 C 60.1583 % -1.39 C
278 30-01-2008 00:00:00 2.05833 C 84.3833 % -0.29 C
279 31-01-2008 00:00:00 2.0958 C 68.2353 % -3.13 C
280 01-02-2008 00:00:00 4.10167 C 75.4000 % 0.15 C
281 02-02-2008 00:00:00 2.155 C 64.7500 % -3.78 C
282 03-02-2008 00:00:00 0.64917 C 63.2500 % -5.52 C
283 04-02-2008 00:00:00 4.5125 C 64.6417 % -1.56 C
284 05-02-2008 00:00:00 6.43917 C 68.3583 % 1.05 C
285 06-02-2008 00:00:00 8.675 C 66.2917 % 2.75 C
286 07-02-2008 00:00:00 3.96333 C 66.9167 % -1.61 C
287 08-02-2008 00:00:00 2.41167 C 67.6667 % -2.94 C
288 09-02-2008 00:00:00 2.61833 C 62.3083 % -3.85 C
289 10-02-2008 00:00:00 2.41333 C 65.4500 % -3.39 C
290 11-02-2008 00:00:00 3.10083 C 73.4750 % -1.17 C
291 12-02-2008 00:00:00 2.92667 C 75.8833 % -0.9 C
292 13-02-2008 00:00:00 2.03193 C 77.7647 % -1.43 C
293 14-02-2008 00:00:00 0.96667 C 84.9667 % -1.27 C
294 15-02-2008 00:00:00 2.4125 C 54.7917 % -5.74 C
295 16-02-2008 00:00:00 -0.75333 C 44.0750 % -11.45 C
296 17-02-2008 00:00:00 -1.21667 C 46.0750 % -11.32 C
297 18-02-2008 00:00:00 -0.28333 C 44.7917 % -10.82 C
298 19-02-2008 00:00:00 0.85417 C 49.4000 % -8.52 C
299 20-02-2008 00:00:00 1.65 C 82.7500 % -0.96 C
300 21-02-2008 00:00:00 6.5725 C 76.4667 % 2.74 C
Sensor: Nr:Datum:Temp:Feuchte:Taupunkt:
Aussen-T/F 301 22-02-2008 00:00:00 9.70667 C 63.8083 % 3.19 C
302 23-02-2008 00:00:00 9.48833 C 61.5667 % 2.48 C
303 24-02-2008 00:00:00 6.65583 C 74.7167 % 2.5 C
304 25-02-2008 00:00:00 9.93833 C 64.7333 % 3.62 C
305 26-02-2008 00:00:00 11.1075 C 64.3583 % 4.64 C
306 27-02-2008 00:00:00 7.70168 C 54.7479 % -0.82 C
307 28-02-2008 00:00:00 7.6125 C 60.6917 % 0.52 C
308 29-02-2008 00:00:00 8.7625 C 82.4500 % 5.94 C
309 01-03-2008 00:00:00 9.4675 C 53.3417 % 0.47 C
310 02-03-2008 00:00:00 11.1725 C 52.6833 % 1.88 C
311 03-03-2008 00:00:00 7.56583 C 50.7667 % -1.97 C
312 04-03-2008 00:00:00 2.7525 C 69.4083 % -2.27 C
313 05-03-2008 00:00:00 1.71 C 55.6000 % -6.2 C
314 06-03-2008 00:00:00 2.81917 C 50.9583 % -6.31 C
315 07-03-2008 00:00:00 6.93833 C 61.2000 % -0.01 C
316 08-03-2008 00:00:00 6.94667 C 58.2333 % -0.68 C
317 09-03-2008 00:00:00 8.06667 C 49.4750 % -1.85 C
318 10-03-2008 00:00:00 8.22941 C 51.4538 % -1.17 C
319 11-03-2008 00:00:00 8.355 C 62.7667 % 1.68 C
320 12-03-2008 00:00:00 9.11833 C 47.2750 % -1.5 C
321 13-03-2008 00:00:00 7.62667 C 50.3083 % -2.03 C
322 14-03-2008 00:00:00 9.14417 C 64.8417 % 2.89 C
323 15-03-2008 00:00:00 9.33 C 60.1750 % 2.01 C
324 16-03-2008 00:00:00 9.8675 C 71.7417 % 5.01 C
325 17-03-2008 00:00:00 5.94583 C 55.1250 % -2.36 C
Sensor: Nr:Datum:Temp:Feuchte:Taupunkt:
Aussen-T/F 326 18-03-2008 00:00:00 4.26083 C 47.4667 % -5.9 C
327 19-03-2008 00:00:00 3.37083 C 64.0500 % -2.77 C
328 20-03-2008 00:00:00 3.89083 C 64.4750 % -2.18 C
329 21-03-2008 00:00:00 3.9975 C 66.4250 % -1.68 C
330 22-03-2008 00:00:00 2.82917 C 80.2000 % -0.24 C
331 23-03-2008 00:00:00 1.56639 C 42.7899 % -9.7 C
332 24-03-2008 00:00:00 -0.00917 C 66.0500 % -5.58 C
333 25-03-2008 00:00:00 1.51333 C 57.5000 % -5.95 C
334 26-03-2008 00:00:00 2.39667 C 75.1083 % -1.55 C
335 27-03-2008 00:00:00 5.29417 C 78.4500 % 1.86 C
336 28-03-2008 00:00:00 8.15333 C 49.6167 % -1.74 C
337 29-03-2008 00:00:00 9.55083 C 43.2917 % -2.3 C
338 30-03-2008 00:00:00 13.03217 C 35.2696 % -1.95 C
339 31-03-2008 00:00:00 11.98333 C 52.5750 % 2.6 C
340 01-04-2008 00:00:00 10.06833 C 56.8833 % 1.92 C
341 02-04-2008 00:00:00 9.77417 C 59.6083 % 2.3 C
342 03-04-2008 00:00:00 7.48 C 71.9167 % 2.75 C
343 04-04-2008 00:00:00 9.15583 C 65.0667 % 2.95 C
344 05-04-2008 00:00:00 7.49076 C 84.1429 % 4.99 C
345 06-04-2008 00:00:00 3.825 C 89.8083 % 2.31 C
346 07-04-2008 00:00:00 1.36917 C 91.5917 % 0.15 C
347 08-04-2008 00:00:00 3.57833 C 76.3667 % -0.18 C
348 09-04-2008 00:00:00 5.82833 C 76.6250 % 2.05 C
349 10-04-2008 00:00:00 8.76917 C 66.0500 % 2.79 C
350 11-04-2008 00:00:00 8.235 C 75.5667 % 4.18 C
Sensor: Nr:Datum:Temp:Feuchte:Taupunkt:
Aussen-T/F 351 12-04-2008 00:00:00 8.02 C 65.3333 % 1.92 C
352 13-04-2008 00:00:00 9.70833 C 71.0833 % 4.73 C
353 14-04-2008 00:00:00 7.63083 C 85.5083 % 5.36 C
354 15-04-2008 00:00:00 6.56083 C 79.5167 % 3.28 C
355 16-04-2008 00:00:00 6.30083 C 64.5917 % 0.13 C
356 17-04-2008 00:00:00 6.47227 C 53.9076 % -2.17 C
357 18-04-2008 00:00:00 9.94 C 48.9500 % -0.28 C
358 19-04-2008 00:00:00 8.41667 C 72.7333 % 3.81 C
359 20-04-2008 00:00:00 12.42417 C 65.2917 % 6.1 C
360 21-04-2008 00:00:00 12.98833 C 55.5417 % 4.31 C
361 22-04-2008 00:00:00 12.95917 C 52.8667 % 3.58 C
362 23-04-2008 00:00:00 13.95083 C 52.1167 % 4.3 C
363 24-04-2008 00:00:00 15.095 C 55.3500 % 6.22 C
364 25-04-2008 00:00:00 12.67583 C 55.1000 % 3.91 C
365 26-04-2008 00:00:00 14.51833 C 49.4333 % 4.07 C
366 27-04-2008 00:00:00 15.87667 C 42.8000 % 3.26 C
367 28-04-2008 00:00:00 13.4125 C 69.9500 % 8.05 C
368 29-04-2008 00:00:00 13.07667 C 56.1167 % 4.54 C
369 30-04-2008 00:00:00 13.76639 C 44.8571 % 2.01 C
370 01-05-2008 00:00:00 11.62583 C 55.7167 % 3.09 C
371 02-05-2008 00:00:00 12.97583 C 55.4667 % 4.28 C
372 03-05-2008 00:00:00 14.47667 C 52.3000 % 4.83 C
373 04-05-2008 00:00:00 17.15667 C 40.4417 % 3.61 C
374 05-05-2008 00:00:00 16.51 C 39.2167 % 2.6 C
375 06-05-2008 00:00:00 18.36833 C 48.8750 % 7.44 C
Sensor: Nr:Datum:Temp:Feuchte:Taupunkt:
Aussen-T/F 376 07-05-2008 00:00:00 19.48083 C 41.7500 % 6.16 C
377 08-05-2008 00:00:00 19.40583 C 41.8417 % 6.12 C
378 09-05-2008 00:00:00 20.20083 C 40.3083 % 6.29 C
379 10-05-2008 00:00:00 21.22917 C 38.5667 % 6.57 C
380 11-05-2008 00:00:00 21.15714 C 34.7563 % 5.01 C
381 12-05-2008 00:00:00 21.02017 C 36.7395 % 5.68 C
382 13-05-2008 00:00:00 21.3175 C 37.9750 % 6.43 C
383 14-05-2008 00:00:00 21.27167 C 41.8667 % 7.81 C
384 15-05-2008 00:00:00 18.93333 C 54.9333 % 9.68 C
385 16-05-2008 00:00:00 18.3725 C 61.7000 % 10.9 C
386 17-05-2008 00:00:00 17.11167 C 68.8833 % 11.36 C
387 18-05-2008 00:00:00 14.09583 C 69.0917 % 8.52 C
388 19-05-2008 00:00:00 14.61833 C 44.8000 % 2.77 C
389 20-05-2008 00:00:00 15.59417 C 37.0333 % 0.99 C
390 21-05-2008 00:00:00 16.93833 C 32.8833 % 0.53 C
391 22-05-2008 00:00:00 18.32417 C 35.0333 % 2.63 C
392 23-05-2008 00:00:00 19.045 C 39.5417 % 4.98 C
393 24-05-2008 00:00:00 18.23 C 50.2500 % 7.72 C
394 25-05-2008 00:00:00 21.65462 C 49.3277 % 10.59 C
395 26-05-2008 00:00:00 21.2775 C 60.5417 % 13.34 C
396 27-05-2008 00:00:00 22.17167 C 62.5917 % 14.7 C
397 28-05-2008 00:00:00 23.79417 C 47.5500 % 11.99 C
398 29-05-2008 00:00:00 23.08917 C 55.5083 % 13.7 C
399 30-05-2008 00:00:00 20.37 C 75.4333 % 15.88 C
400 31-05-2008 00:00:00 17.68917 C 79.9333 % 14.18 C
Sensor: Nr:Datum:Temp:Feuchte:Taupunkt:
Aussen-T/F 401 01-06-2008 00:00:00 21.38917 C 62.1000 % 13.84 C
402 02-06-2008 00:00:00 23.66833 C 59.5583 % 15.33 C
403 03-06-2008 00:00:00 21.2825 C 59.5833 % 13.1 C
404 04-06-2008 00:00:00 19.19833 C 69.6500 % 13.52 C
405 05-06-2008 00:00:00 20.67731 C 69.8992 % 14.99 C
406 06-06-2008 00:00:00 21.07333 C 59.3167 % 12.84 C
407 07-06-2008 00:00:00 19.84417 C 61.3833 % 12.2 C
408 08-06-2008 00:00:00 20.63167 C 58.6667 % 12.26 C
409 09-06-2008 00:00:00 22.875 C 49.0667 % 11.62 C
410 10-06-2008 00:00:00 23.51583 C 43.6000 % 10.43 C
411 11-06-2008 00:00:00 18.4725 C 45.7917 % 6.58 C
412 12-06-2008 00:00:00 12.7425 C 68.8750 % 7.18 C
413 13-06-2008 00:00:00 13.67167 C 59.9500 % 6.05 C
414 14-06-2008 00:00:00 13.75917 C 60.5833 % 6.28 C
415 15-06-2008 00:00:00 13.75333 C 69.6250 % 8.31 C
416 16-06-2008 00:00:00 16.2275 C 55.7417 % 7.38 C
417 17-06-2008 00:00:00 17.34333 C 49.3500 % 6.64 C
418 18-06-2008 00:00:00 20.30583 C 44.8250 % 7.94 C
419 19-06-2008 00:00:00 20.67417 C 44.7833 % 8.26 C
420 20-06-2008 00:00:00 18.32 C 55.1333 % 9.17 C
421 21-06-2008 00:00:00 23.24706 C 43.6807 % 10.21 C
422 22-06-2008 00:00:00 24.30833 C 53.1000 % 14.15 C
423 23-06-2008 00:00:00 22.40417 C 42.3417 % 8.99 C
424 24-06-2008 00:00:00 23.6325 C 39.0917 % 8.91 C
425 25-06-2008 00:00:00 22.66833 C 60.0500 % 14.52 C
Sensor: Nr:Datum:Temp:Feuchte:Taupunkt:
Aussen-T/F 426 26-06-2008 00:00:00 20.39833 C 47.7000 % 8.94 C
427 27-06-2008 00:00:00 18.72167 C 54.0750 % 9.25 C
428 28-06-2008 00:00:00 21.21 C 53.5750 % 11.42 C
429 29-06-2008 00:00:00 22.68667 C 48.7750 % 11.36 C
430 30-06-2008 00:00:00 22.95083 C 42.5833 % 9.57 C
431 01-07-2008 00:00:00 24.35583 C 41.4250 % 10.42 C
432 02-07-2008 00:00:00 26.47583 C 41.5750 % 12.37 C
433 03-07-2008 00:00:00 20.18992 C 73.0840 % 15.21 C
434 04-07-2008 00:00:00 19.38083 C 55.3000 % 10.2 C
435 05-07-2008 00:00:00 21.0575 C 48.2750 % 9.72 C
436 06-07-2008 00:00:00 21.2225 C 48.4250 % 9.91 C
437 07-07-2008 00:00:00 18.24917 C 52.1417 % 8.28 C
438 08-07-2008 00:00:00 17.2125 C 59.3250 % 9.22 C
439 09-07-2008 00:00:00 17.0525 C 60.8500 % 9.44 C
440 10-07-2008 00:00:00 22.32833 C 54.4667 % 12.7 C
441 11-07-2008 00:00:00 20.48167 C 62.8583 % 13.17 C
442 12-07-2008 00:00:00 17.645 C 65.9833 % 11.22 C
443 13-07-2008 00:00:00 17.8375 C 52.7167 % 8.06 C
444 14-07-2008 00:00:00 18.38 C 49.4000 % 7.6 C
445 15-07-2008 00:00:00 19.61978 C 49.3407 % 8.72 C
446 16-07-2008 00:00:00 20.38298 C 61.2128 % 12.67 C
447 17-07-2008 00:00:00 17.22917 C 60.9375 % 9.63 C
448 18-07-2008 00:00:00 16.58125 C 69.0208 % 10.88 C
449 19-07-2008 00:00:00 19.61667 C 58.8333 % 11.35 C
450 20-07-2008 00:00:00 15.48542 C 69.1250 % 9.86 C
Sensor: Nr:Datum:Temp:Feuchte:Taupunkt:
Aussen-T/F 451 21-07-2008 00:00:00 12.62917 C 75.8542 % 8.49 C
452 22-07-2008 00:00:00 14.56042 C 75.3125 % 10.25 C
453 23-07-2008 00:00:00 18.94375 C 58.9167 % 10.74 C
454 24-07-2008 00:00:00 22.13958 C 47.5833 % 10.49 C
455 25-07-2008 00:00:00 24.55625 C 42.5625 % 11 C
456 26-07-2008 00:00:00 23.54792 C 58.5625 % 14.96 C
457 27-07-2008 00:00:00 23.20625 C 66.9375 % 16.72 C
458 28-07-2008 00:00:00 25.10833 C 53.7708 % 15.08 C
459 29-07-2008 00:00:00 24.49792 C 54.0833 % 14.61 C
460 30-07-2008 00:00:00 23.67292 C 59.6458 % 15.36 C
461 31-07-2008 00:00:00 24.69792 C 59.1250 % 16.18 C
462 01-08-2008 00:00:00 24.97917 C 47.0833 % 12.92 C
463 02-08-2008 00:00:00 21.29792 C 50.6042 % 10.64 C
464 03-08-2008 00:00:00 23.42561 C 52.0732 % 13.03 C
465 04-08-2008 00:00:00 21.85083 C 52.0083 % 11.56 C
466 05-08-2008 00:00:00 20.3125 C 49.5333 % 9.42 C
467 06-08-2008 00:00:00 24.05417 C 46.8000 % 11.98 C
468 07-08-2008 00:00:00 24.29583 C 50.2500 % 13.29 C
469 08-08-2008 00:00:00 18.50948 C 74.4397 % 13.88 C
470 09-08-2008 00:00:00 19.32 C 54.5417 % 9.93 C
471 10-08-2008 00:00:00 20.1 C 54.1583 % 10.55 C
472 11-08-2008 00:00:00 20.59748 C 52.7731 % 10.62 C
473 12-08-2008 00:00:00 18.91833 C 77.3000 % 14.86 C
474 13-08-2008 00:00:00 18.3525 C 55.7250 % 9.35 C
475 14-08-2008 00:00:00 19.14917 C 47.3583 % 7.69 C
Sensor: Nr:Datum:Temp:Feuchte:Taupunkt:
Aussen-T/F 476 15-08-2008 00:00:00 18.3625 C 52.1583 % 8.39 C
477 16-08-2008 00:00:00 18.89 C 52.1083 % 8.86 C
478 17-08-2008 00:00:00 19.10252 C 51.2353 % 8.81 C
479 18-08-2008 00:00:00 21.21 C 57.7250 % 12.55 C
480 19-08-2008 00:00:00 20.7925 C 53.4333 % 10.99 C
481 20-08-2008 00:00:00 18.82 C 58.1333 % 10.42 C
482 21-08-2008 00:00:00 19.6375 C 53.1167 % 9.83 C
483 22-08-2008 00:00:00 18.45333 C 70.3250 % 12.96 C
484 23-08-2008 00:00:00 14.95083 C 71.5750 % 9.86 C
485 24-08-2008 00:00:00 16.59333 C 61.3833 % 9.14 C
486 25-08-2008 00:00:00 17.43583 C 73.5750 % 12.67 C
487 26-08-2008 00:00:00 19.2725 C 61.1500 % 11.61 C
488 27-08-2008 00:00:00 19.89833 C 61.8250 % 12.36 C
489 28-08-2008 00:00:00 20.35417 C 53.0917 % 10.49 C
490 29-08-2008 00:00:00 20.84454 C 53.6639 % 11.1 C
491 30-08-2008 00:00:00 21.35167 C 58.5333 % 12.89 C
492 31-08-2008 00:00:00 22.25917 C 53.2500 % 12.3 C
493 01-09-2008 00:00:00 20.93917 C 56.7667 % 12.04 C
494 02-09-2008 00:00:00 19.11333 C 56.7417 % 10.33 C
495 03-09-2008 00:00:00 15.21083 C 80.2000 % 11.82 C
496 04-09-2008 00:00:00 13.7025 C 67.0500 % 7.7 C
497 05-09-2008 00:00:00 16.9775 C 72.6750 % 12.04 C
498 06-09-2008 00:00:00 17.5625 C 76.0500 % 13.3 C
499 07-09-2008 00:00:00 16.83583 C 65.1583 % 10.26 C
500 08-09-2008 00:00:00 17.9741 C 54.9699 % 8.8 C
Sensor: Nr:Datum:Temp:Feuchte:Taupunkt:
Aussen-T/F 501 09-09-2008 00:00:00 18.12014 C 58.4063 % 9.84 C
502 10-09-2008 00:00:00 21.10243 C 58.1563 % 12.56 C
503 11-09-2008 00:00:00 19.94479 C 72.7049 % 14.9 C
504 12-09-2008 00:00:00 16.69236 C 90.9167 % 15.2 C
505 13-09-2008 00:00:00 12.63937 C 90.7596 % 11.17 C
506 14-09-2008 00:00:00 11.66215 C 59.3056 % 4 C
507 15-09-2008 00:00:00 10.27153 C 74.0764 % 5.86 C
508 16-09-2008 00:00:00 11.32014 C 69.6597 % 5.98 C
509 17-09-2008 00:00:00 11.34948 C 56.4111 % 3 C
510 18-09-2008 00:00:00 10.63264 C 54.1493 % 1.76 C
511 19-09-2008 00:00:00 10.48333 C 63.4132 % 3.84 C
512 20-09-2008 00:00:00 11.00556 C 62.4722 % 4.12 C
513 21-09-2008 00:00:00 11.67222 C 66.0313 % 5.55 C
514 22-09-2008 00:00:00 12.57108 C 68.2648 % 6.89 C
515 23-09-2008 00:00:00 12.21111 C 77.3160 % 8.36 C
516 24-09-2008 00:00:00 13.30799 C 80.5972 % 10.05 C
517 25-09-2008 00:00:00 12.56736 C 70.3333 % 7.32 C
518 26-09-2008 00:00:00 12.00521 C 66.5035 % 5.97 C
519 27-09-2008 00:00:00 11.93693 C 67.3798 % 6.09 C
520 28-09-2008 00:00:00 11.96493 C 67.7569 % 6.2 C
521 29-09-2008 00:00:00 11.47396 C 71.0382 % 6.41 C
522 30-09-2008 00:00:00 10.38611 C 79.6111 % 7.02 C
523 01-10-2008 00:00:00 13.07222 C 73.9931 % 8.55 C
524 02-10-2008 00:00:00 10.70244 C 65.2056 % 4.45 C
525 03-10-2008 00:00:00 8.94063 C 68.8021 % 3.53 C
Sensor: Nr:Datum:Temp:Feuchte:Taupunkt:
Aussen-T/F 526 04-10-2008 00:00:00 9.76632 C 61.1146 % 2.64 C
527 05-10-2008 00:00:00 11.69062 C 58.3819 % 3.81 C
528 06-10-2008 00:00:00 14.79306 C 80.2569 % 11.43 C
529 07-10-2008 00:00:00 15.17875 C 78.9686 % 11.56 C
530 08-10-2008 00:00:00 13.26389 C 91.9132 % 11.98 C
531 09-10-2008 00:00:00 13.20937 C 76.8056 % 9.23 C
532 10-10-2008 00:00:00 13.01806 C 76.3056 % 8.95 C
533 11-10-2008 00:00:00 13.2125 C 78.3229 % 9.53 C
534 12-10-2008 00:00:00 15.40729 C 73.6181 % 10.72 C
535 13-10-2008 00:00:00 14.40976 C 76.5784 % 10.35 C
536 14-10-2008 00:00:00 15.63438 C 70.1944 % 10.23 C
537 15-10-2008 00:00:00 13.57361 C 75.5764 % 9.35 C
538 16-10-2008 00:00:00 11.59444 C 81.1736 % 8.48 C
539 17-10-2008 00:00:00 8.00313 C 74.4028 % 3.74 C
540 18-10-2008 00:00:00 7.10488 C 75.9408 % 3.16 C
541 19-10-2008 00:00:00 8.10521 C 75.0938 % 3.97 C
542 20-10-2008 00:00:00 9.83646 C 77.4965 % 6.09 C
543 21-10-2008 00:00:00 13.12986 C 81.4965 % 10.04 C
544 22-10-2008 00:00:00 9.36528 C 82.9722 % 6.62 C
545 23-10-2008 00:00:00 9.2115 C 72.7247 % 4.58 C
546 24-10-2008 00:00:00 7.4434 C 76.1250 % 3.52 C
547 25-10-2008 00:00:00 10.48151 C 76.3219 % 6.5 C
548 26-10-2008 00:00:00 10.725 C 66.5333 % 4.76 C
549 27-10-2008 00:00:00 10.21724 C 83.8103 % 7.6 C
550 28-10-2008 00:00:00 6.92456 C 81.5439 % 3.99 C
Sensor: Nr:Datum:Temp:Feuchte:Taupunkt:
Aussen-T/F 551 29-10-2008 00:00:00 5.45 C 80.3621 % 2.35 C
552 30-10-2008 00:00:00 4.78947 C 89.5789 % 3.23 C
553 31-10-2008 00:00:00 5.97414 C 87.4310 % 4.05 C
554 01-11-2008 00:00:00 7.97414 C 86.6897 % 5.9 C
555 02-11-2008 00:00:00 9.98772 C 83.7018 % 7.36 C
556 03-11-2008 00:00:00 9.82241 C 84.2586 % 7.3 C
557 04-11-2008 00:00:00 9.00351 C 88.7193 % 7.24 C
558 05-11-2008 00:00:00 9.79828 C 82.7759 % 7.01 C
559 06-11-2008 00:00:00 10.54483 C 75.7241 % 6.45 C
560 07-11-2008 00:00:00 10.79123 C 73.0526 % 6.16 C
561 08-11-2008 00:00:00 8.24828 C 80.5690 % 5.11 C
562 09-11-2008 00:00:00 8.89583 C 83.4250 % 6.24 C
563 10-11-2008 00:00:00 13.98833 C 65.6333 % 7.66 C
564 11-11-2008 00:00:00 12.73917 C 57.8750 % 4.67 C
565 12-11-2008 00:00:00 8.5175 C 76.7417 % 4.68 C
566 13-11-2008 00:00:00 6.40667 C 81.3417 % 3.45 C
567 14-11-2008 00:00:00 5.60833 C 77.3667 % 1.97 C
568 15-11-2008 00:00:00 9.82083 C 75.7750 % 5.76 C
569 16-11-2008 00:00:00 9.9375 C 83.6167 % 7.3 C
570 17-11-2008 00:00:00 4.03167 C 85.6500 % 1.85 C
571 18-11-2008 00:00:00 4.76417 C 83.5917 % 2.23 C
572 19-11-2008 00:00:00 7.7775 C 74.7250 % 3.58 C
573 20-11-2008 00:00:00 9.54 C 72.1083 % 4.77 C
574 21-11-2008 00:00:00 5.21083 C 75.7083 % 1.28 C
575 22-11-2008 00:00:00 1.08571 C 72.9328 % -3.21 C
Sensor: Nr:Datum:Temp:Feuchte:Taupunkt:
Aussen-T/F 576 23-11-2008 00:00:00 0.81333 C 80.2500 % -2.19 C
577 24-11-2008 00:00:00 1.92667 C 84.5083 % -0.4 C
578 25-11-2008 00:00:00 0.79667 C 88.1250 % -0.94 C
579 26-11-2008 00:00:00 2.38333 C 86.0750 % 0.3 C
580 27-11-2008 00:00:00 3.435 C 74.8000 % -0.6 C
581 28-11-2008 00:00:00 0.47667 C 75.5917 % -3.32 C
582 29-11-2008 00:00:00 0.98 C 79.6833 % -2.13 C
583 30-11-2008 00:00:00 1.12 C 90.1583 % -0.31 C
584 01-12-2008 00:00:00 0.30417 C 91.8167 % -0.87 C
585 02-12-2008 00:00:00 2.80917 C 84.7583 % 0.51 C
586 03-12-2008 00:00:00 1.785 C 89.7417 % 0.28 C
587 04-12-2008 00:00:00 1.92353 C 91.2689 % 0.65 C
588 05-12-2008 00:00:00 5.36 C 86.4250 % 3.28 C
589 06-12-2008 00:00:00 4.73 C 88.2917 % 2.96 C
590 07-12-2008 00:00:00 3.85333 C 91.7750 % 2.64 C
591 08-12-2008 00:00:00 0.26917 C 92.6917 % -0.77 C
592 09-12-2008 00:00:00 0.56667 C 86.5667 % -1.41 C
593 10-12-2008 00:00:00 1.97667 C 93.1250 % 0.99 C
594 11-12-2008 00:00:00 1.4775 C 84.6750 % -0.81 C
595 12-12-2008 00:00:00 -0.23583 C 79.6833 % -3.31 C
596 13-12-2008 00:00:00 -0.26167 C 74.8500 % -4.17 C
597 14-12-2008 00:00:00 0.28083 C 85.7917 % -1.81 C
598 15-12-2008 00:00:00 -0.1075 C 94.2750 % -0.91 C
599 16-12-2008 00:00:00 0.42521 C 91.9328 % -0.73 C
600 17-12-2008 00:00:00 -0.0375 C 89.1000 % -1.61 C
Sensor: Nr:Datum:Temp:Feuchte:Taupunkt:
Aussen-T/F 601 18-12-2008 00:00:00 2.15083 C 89.2667 % 0.57 C
602 19-12-2008 00:00:00 4.22333 C 81.0000 % 1.26 C
603 20-12-2008 00:00:00 6.45667 C 86.6583 % 4.4 C
604 21-12-2008 00:00:00 7.94917 C 82.6583 % 5.19 C
605 22-12-2008 00:00:00 8.47167 C 78.5667 % 4.97 C
606 23-12-2008 00:00:00 6.21417 C 79.6333 % 2.96 C
607 24-12-2008 00:00:00 4.55833 C 85.2000 % 2.29 C
608 25-12-2008 00:00:00 4.40252 C 69.7815 % -0.62 C
609 26-12-2008 00:00:00 -1.1875 C 58.2917 % -8.32 C
610 27-12-2008 00:00:00 -1.85667 C 60.0583 % -8.57 C
611 28-12-2008 00:00:00 -3.02917 C 64.5667 % -8.75 C
612 29-12-2008 00:00:00 -5.49833 C 79.2667 % -8.51 C
613 30-12-2008 00:00:00 -6.21833 C 81.1167 % -8.92 C
614 31-12-2008 00:00:00 -4.32583 C 81.8000 % -6.96 C
615 01-01-2009 00:00:00 -3.46417 C 77.9083 % -6.75 C
616 02-01-2009 00:00:00 -2.03917 C 80.6500 % -4.91 C
617 03-01-2009 00:00:00 -3.57 C 78.4417 % -6.77 C
618 04-01-2009 00:00:00 -1.06833 C 65.8500 % -6.63 C
619 05-01-2009 00:00:00 -1.23866 C 73.6639 % -5.33 C
620 06-01-2009 00:00:00 -6.97 C 42.8583 % -17.47 C
621 07-01-2009 00:00:00 -10.99167 C 63.6167 % -16.52 C
622 08-01-2009 00:00:00 -6.02083 C 71.7750 % -10.28 C
623 09-01-2009 00:00:00 -11.165 C 71.4000 % -15.3 C
624 10-01-2009 00:00:00 -11.3175 C 71.8000 % -15.38 C
625 11-01-2009 00:00:00 -8.9975 C 75.6250 % -12.5 C
Sensor: Nr:Datum:Temp:Feuchte:Taupunkt:
Aussen-T/F 626 12-01-2009 00:00:00 -7.30417 C 74.5667 % -11.04 C
627 13-01-2009 00:00:00 -0.17833 C 68.6583 % -5.23 C
628 14-01-2009 00:00:00 -0.15917 C 84.5417 % -2.44 C
629 15-01-2009 00:00:00 0.77417 C 83.7250 % -1.66 C
630 16-01-2009 00:00:00 0.69833 C 76.7917 % -2.9 C
631 17-01-2009 00:00:00 2.97833 C 82.4917 % 0.3 C
632 18-01-2009 00:00:00 4.50924 C 77.6134 % 0.95 C
633 19-01-2009 00:00:00 5.4575 C 74.3750 % 1.27 C
634 20-01-2009 00:00:00 3.6475 C 67.4583 % -1.8 C
635 21-01-2009 00:00:00 0.32 C 82.9000 % -2.24 C
636 22-01-2009 00:00:00 2.825 C 68.4250 % -2.4 C
637 23-01-2009 00:00:00 4.345 C 81.3083 % 1.43 C
638 24-01-2009 00:00:00 3.13 C 71.4583 % -1.52 C
639 25-01-2009 00:00:00 0.15167 C 83.3750 % -2.32 C
640 26-01-2009 00:00:00 -2.16917 C 88.5583 % -3.8 C
641 27-01-2009 00:00:00 -0.93167 C 86.5917 % -2.88 C
642 28-01-2009 00:00:00 0.50833 C 80.0250 % -2.53 C
643 29-01-2009 00:00:00 1.15667 C 59.5000 % -5.84 C
644 30-01-2009 00:00:00 -1.50917 C 70.1917 % -6.22 C
645 31-01-2009 00:00:00 0.06303 C 53.3109 % -8.28 C
646 01-02-2009 00:00:00 -0.11167 C 46.5667 % -10.18 C
647 02-02-2009 00:00:00 1.085 C 54.3250 % -7.09 C
648 03-02-2009 00:00:00 0.63833 C 75.1583 % -3.24 C
649 04-02-2009 00:00:00 3.0025 C 77.5667 % -0.52 C
650 05-02-2009 00:00:00 3.2325 C 77.6917 % -0.28 C
Sensor: Nr:Datum:Temp:Feuchte:Taupunkt:
Aussen-T/F 651 06-02-2009 00:00:00 4.3 C 77.6083 % 0.74 C
652 07-02-2009 00:00:00 4.03417 C 82.7167 % 1.37 C
653 08-02-2009 00:00:00 2.6525 C 56.8750 % -5.02 C
654 09-02-2009 00:00:00 2.3775 C 66.4917 % -3.21 C
655 10-02-2009 00:00:00 4.155 C 80.4667 % 1.1 C
656 11-02-2009 00:00:00 2.90333 C 61.2250 % -3.81 C
657 12-02-2009 00:00:00 0.68908 C 76.7059 % -2.92 C
658 13-02-2009 00:00:00 0.51333 C 80.7750 % -2.4 C
659 14-02-2009 00:00:00 0.46083 C 68.2667 % -4.69 C
660 15-02-2009 00:00:00 -1.63583 C 65.2583 % -7.29 C
661 16-02-2009 00:00:00 1.96417 C 84.4833 % -0.37 C
662 17-02-2009 00:00:00 3.77167 C 81.8500 % 0.96 C
663 18-02-2009 00:00:00 -1.62667 C 55.2583 % -9.41 C
664 19-02-2009 00:00:00 1.01417 C 51.9417 % -7.73 C
665 20-02-2009 00:00:00 3.41917 C 81.8667 % 0.62 C
666 21-02-2009 00:00:00 4.72083 C 73.0250 % 0.31 C
667 22-02-2009 00:00:00 5.24667 C 83.4417 % 2.68 C
668 23-02-2009 00:00:00 5.50083 C 67.2583 % -0.07 C
669 24-02-2009 00:00:00 4.8325 C 61.0583 % -2.03 C
670 25-02-2009 00:00:00 3.34286 C 65.7731 % -2.44 C
671 26-02-2009 00:00:00 6.73 C 56.4333 % -1.31 C
672 27-02-2009 00:00:00 7.10417 C 70.5083 % 2.11 C
673 28-02-2009 00:00:00 10.0375 C 62.5667 % 3.23 C
674 01-03-2009 00:00:00 9.95 C 61.5333 % 2.91 C
675 02-03-2009 00:00:00 7.98 C 70.8667 % 3.03 C
Sensor: Nr:Datum:Temp:Feuchte:Taupunkt:
Aussen-T/F 676 03-03-2009 00:00:00 5.05583 C 57.7750 % -2.56 C
677 04-03-2009 00:00:00 7.27917 C 50.1417 % -2.4 C
678 05-03-2009 00:00:00 4.42917 C 81.7833 % 1.6 C
679 06-03-2009 00:00:00 3.82417 C 85.1833 % 1.57 C
680 07-03-2009 00:00:00 5.72167 C 54.0000 % -2.85 C
681 08-03-2009 00:00:00 7.50833 C 68.5583 % 2.11 C
682 09-03-2009 00:00:00 5.1521 C 60.8067 % -1.78 C
683 10-03-2009 00:00:00 5.4275 C 68.9500 % 0.2 C
684 11-03-2009 00:00:00 5.60417 C 61.5750 % -1.18 C
685 12-03-2009 00:00:00 5.67083 C 72.2250 % 1.07 C
686 13-03-2009 00:00:00 8.68167 C 65.2333 % 2.53 C
687 14-03-2009 00:00:00 8.925 C 64.7833 % 2.67 C
688 15-03-2009 00:00:00 9.41667 C 54.2417 % 0.65 C
689 16-03-2009 00:00:00 8.23417 C 69.4750 % 2.99 C
690 17-03-2009 00:00:00 7.73833 C 63.3083 % 1.22 C
691 18-03-2009 00:00:00 5.82417 C 54.7250 % -2.57 C
692 19-03-2009 00:00:00 5.41917 C 43.4667 % -6 C
693 20-03-2009 00:00:00 4.59917 C 40.6417 % -7.61 C
694 21-03-2009 00:00:00 5.07 C 41.1250 % -7.03 C
695 22-03-2009 00:00:00 5.16639 C 55.2269 % -3.06 C
696 23-03-2009 00:00:00 7.82917 C 60.0417 % 0.57 C
697 24-03-2009 00:00:00 3.67333 C 68.1250 % -1.65 C
698 25-03-2009 00:00:00 3.18417 C 77.9833 % -0.27 C
699 26-03-2009 00:00:00 6.40083 C 73.5750 % 2.03 C
700 27-03-2009 00:00:00 7.28333 C 67.2667 % 1.63 C
Sensor: Nr:Datum:Temp:Feuchte:Taupunkt:
Aussen-T/F 701 28-03-2009 00:00:00 6.97583 C 69.7250 % 1.84 C
702 29-03-2009 00:00:00 6.18435 C 67.4957 % 0.63 C
703 30-03-2009 00:00:00 6.41833 C 64.1417 % 0.15 C
704 31-03-2009 00:00:00 8.3325 C 53.1833 % -0.62 C
705 01-04-2009 00:00:00 10.89833 C 45.9750 % -0.26 C
706 02-04-2009 00:00:00 15.335 C 39.5667 % 1.68 C
707 03-04-2009 00:00:00 15.87143 C 49.6639 % 5.38 C
708 04-04-2009 00:00:00 16.68333 C 51.5667 % 6.67 C
709 05-04-2009 00:00:00 14.9675 C 54.1167 % 5.78 C
710 06-04-2009 00:00:00 14.72833 C 55.3167 % 5.87 C
711 07-04-2009 00:00:00 14.57333 C 59.3250 % 6.74 C
712 08-04-2009 00:00:00 14.20167 C 49.7000 % 3.85 C
713 09-04-2009 00:00:00 16.28067 C 54.0420 % 6.98 C
714 10-04-2009 00:00:00 18.55372 C 46.9669 % 7.03 C
715 11-04-2009 00:00:00 17.3525 C 49.3083 % 6.63 C
716 12-04-2009 00:00:00 16.79 C 58.7167 % 8.67 C
717 13-04-2009 00:00:00 15.65167 C 69.0750 % 10 C
718 14-04-2009 00:00:00 16.16167 C 60.1167 % 8.43 C
719 15-04-2009 00:00:00 16.94202 C 48.6218 % 6.06 C
720 16-04-2009 00:00:00 14.94583 C 53.1417 % 5.5 C
721 17-04-2009 00:00:00 10.0825 C 92.0333 % 8.85 C
722 18-04-2009 00:00:00 9.84 C 91.7417 % 8.56 C
723 19-04-2009 00:00:00 14.95667 C 59.5000 % 7.14 C
724 20-04-2009 00:00:00 15.16917 C 55.7917 % 6.41 C
725 21-04-2009 00:00:00 15.74583 C 47.3250 % 4.57 C
Sensor: Nr:Datum:Temp:Feuchte:Taupunkt:
Aussen-T/F 726 22-04-2009 00:00:00 13.68833 C 46.2833 % 2.38 C
727 23-04-2009 00:00:00 11.645 C 49.5000 % 1.45 C
728 24-04-2009 00:00:00 14.11333 C 49.0667 % 3.59 C
729 25-04-2009 00:00:00 14.64833 C 57.0583 % 6.25 C
730 26-04-2009 00:00:00 18.35 C 52.2083 % 8.39 C
731 27-04-2009 00:00:00 14.89496 C 57.0756 % 6.48 C
732 28-04-2009 00:00:00 11.07833 C 79.6417 % 7.7 C
733 29-04-2009 00:00:00 11.9025 C 67.4083 % 6.07 C
734 30-04-2009 00:00:00 12.85833 C 66.9667 % 6.88 C
735 01-05-2009 00:00:00 16.25583 C 58.4500 % 8.1 C
736 02-05-2009 00:00:00 17.60167 C 51.3167 % 7.45 C
737 03-05-2009 00:00:00 14.58333 C 56.9750 % 6.16 C
738 04-05-2009 00:00:00 11.88333 C 42.8250 % -0.34 C
739 05-05-2009 00:00:00 10.50917 C 68.7917 % 5.03 C
740 06-05-2009 00:00:00 13.85625 C 60.5982 % 6.38 C
741 07-05-2009 00:00:00 16.47708 C 53.0208 % 6.88 C
742 08-05-2009 00:00:00 16.58021 C 59.9688 % 8.78 C
743 09-05-2009 00:00:00 14.3875 C 64.8854 % 7.87 C
744 10-05-2009 00:00:00 17.72083 C 64.3750 % 10.92 C
745 11-05-2009 00:00:00 13.57188 C 94.1667 % 12.65 C
746 12-05-2009 00:00:00 11.83333 C 86.9688 % 9.74 C
747 13-05-2009 00:00:00 15.51771 C 67.7396 % 9.59 C
748 14-05-2009 00:00:00 16.00104 C 69.2708 % 10.38 C
749 15-05-2009 00:00:00 15.12255 C 80.0294 % 11.71 C
750 16-05-2009 00:00:00 13.80333 C 61.9667 % 6.65 C
Sensor: Nr:Datum:Temp:Feuchte:Taupunkt:
Aussen-T/F 751 17-05-2009 00:00:00 17.02083 C 54.6583 % 7.83 C
752 18-05-2009 00:00:00 16.95083 C 45.9833 % 5.26 C
753 19-05-2009 00:00:00 16.49333 C 55.9500 % 7.68 C
754 20-05-2009 00:00:00 18.70167 C 59.6583 % 10.7 C
755 21-05-2009 00:00:00 19.21167 C 64.9917 % 12.47 C
756 22-05-2009 00:00:00 17.97917 C 48.5500 % 6.98 C
757 23-05-2009 00:00:00 18.72083 C 46.1750 % 6.93 C
758 24-05-2009 00:00:00 22.53417 C 45.4500 % 10.16 C
759 25-05-2009 00:00:00 23.49833 C 50.1500 % 12.53 C
760 26-05-2009 00:00:00 19.86583 C 58.1250 % 11.4 C
761 27-05-2009 00:00:00 14.4425 C 49.8833 % 4.13 C
762 28-05-2009 00:00:00 15.5325 C 61.9750 % 8.28 C
763 29-05-2009 00:00:00 17.81765 C 44.4874 % 5.57 C
764 30-05-2009 00:00:00 18.43417 C 40.9083 % 4.92 C
765 31-05-2009 00:00:00 20.3075 C 42.9000 % 7.3 C
766 01-06-2009 00:00:00 19.37167 C 54.6583 % 10.01 C
767 02-06-2009 00:00:00 19.91917 C 47.4333 % 8.42 C
768 03-06-2009 00:00:00 16.3775 C 38.0667 % 2.07 C
769 04-06-2009 00:00:00 13.435 C 39.4250 % -0.07 C
770 05-06-2009 00:00:00 13.4075 C 42.9917 % 1.1 C
771 06-06-2009 00:00:00 9.18333 C 83.0333 % 6.46 C
772 07-06-2009 00:00:00 13.71083 C 71.1667 % 8.59 C
773 08-06-2009 00:00:00 16.58667 C 52.2917 % 6.78 C
774 09-06-2009 00:00:00 17.9275 C 61.2917 % 10.38 C
775 10-06-2009 00:00:00 17.24454 C 61.2017 % 9.71 C
Sensor: Nr:Datum:Temp:Feuchte:Taupunkt:
Aussen-T/F 776 11-06-2009 00:00:00 14.60417 C 73.9917 % 10.02 C
777 12-06-2009 00:00:00 15.915 C 53.7417 % 6.56 C
778 13-06-2009 00:00:00 18.29417 C 48.8833 % 7.37 C
779 14-06-2009 00:00:00 20.3875 C 57.6667 % 11.77 C
780 15-06-2009 00:00:00 16.76083 C 89.1000 % 14.96 C
781 16-06-2009 00:00:00 16.58083 C 68.6500 % 10.8 C
782 17-06-2009 00:00:00 19.89 C 54.6000 % 10.48 C
783 18-06-2009 00:00:00 19.45417 C 61.5583 % 11.88 C
784 19-06-2009 00:00:00 18.45583 C 50.4250 % 7.98 C
785 20-06-2009 00:00:00 13.84583 C 66.0250 % 7.61 C
786 21-06-2009 00:00:00 13.40167 C 74.0583 % 8.88 C
787 22-06-2009 00:00:00 15.23697 C 58.5546 % 7.17 C
788 23-06-2009 00:00:00 18.58583 C 49.8333 % 7.92 C
789 24-06-2009 00:00:00 22.29167 C 39.7583 % 7.96 C
790 25-06-2009 00:00:00 24.10583 C 44.1750 % 11.16 C
791 26-06-2009 00:00:00 24.31083 C 48.3250 % 12.7 C
792 27-06-2009 00:00:00 22.1625 C 64.0333 % 15.04 C
793 28-06-2009 00:00:00 25.04417 C 51.0333 % 14.21 C
794 29-06-2009 00:00:00 24.71583 C 52.9667 % 14.49 C
795 30-06-2009 00:00:00 22.55083 C 69.7750 % 16.75 C
796 01-07-2009 00:00:00 23.6175 C 64.4750 % 16.52 C
797 02-07-2009 00:00:00 25.95917 C 52.9750 % 15.64 C
798 03-07-2009 00:00:00 23.36083 C 65.3750 % 16.5 C
799 04-07-2009 00:00:00 24.17479 C 53.8235 % 14.23 C
800 05-07-2009 00:00:00 23.89917 C 51.1667 % 13.2 C
Sensor: Nr:Datum:Temp:Feuchte:Taupunkt:
Aussen-T/F 801 06-07-2009 00:00:00 21.82333 C 62.3417 % 14.31 C
802 07-07-2009 00:00:00 18.7625 C 62.9417 % 11.56 C
803 08-07-2009 00:00:00 16.39 C 68.9083 % 10.67 C
804 09-07-2009 00:00:00 16.38583 C 61.5333 % 8.98 C
805 10-07-2009 00:00:00 15.17083 C 60.0083 % 7.47 C
806 11-07-2009 00:00:00 17.55667 C 54.8167 % 8.37 C
807 12-07-2009 00:00:00 19.3525 C 63.5500 % 12.27 C
808 13-07-2009 00:00:00 21.76917 C 63.8667 % 14.63 C
809 14-07-2009 00:00:00 23.4 C 64.0083 % 16.2 C
810 15-07-2009 00:00:00 24.0475 C 46.7750 % 11.97 C
811 16-07-2009 00:00:00 23.37479 C 47.5378 % 11.6 C
812 17-07-2009 00:00:00 20.90917 C 53.6583 % 11.16 C
813 18-07-2009 00:00:00 17.575 C 56.4917 % 8.83 C
814 19-07-2009 00:00:00 17.92167 C 56.9833 % 9.28 C
815 20-07-2009 00:00:00 19.82583 C 46.0000 % 7.88 C
816 21-07-2009 00:00:00 23.22833 C 52.9833 % 13.12 C
817 22-07-2009 00:00:00 25.10583 C 51.8333 % 14.51 C
818 23-07-2009 00:00:00 22.65417 C 61.1000 % 14.78 C
819 24-07-2009 00:00:00 20.33167 C 56.1333 % 11.31 C
820 25-07-2009 00:00:00 18.03083 C 59.8667 % 10.12 C
821 26-07-2009 00:00:00 19.94833 C 56.6000 % 11.07 C
822 27-07-2009 00:00:00 20.60667 C 58.0750 % 12.08 C
823 28-07-2009 00:00:00 20.41513 C 47.8992 % 9.01 C
824 29-07-2009 00:00:00 21.77833 C 48.0167 % 10.29 C
825 30-07-2009 00:00:00 21.10583 C 47.3083 % 9.46 C
Sensor: Nr:Datum:Temp:Feuchte:Taupunkt:
Aussen-T/F 826 31-07-2009 00:00:00 20.32583 C 42.6417 % 7.22 C
827 01-08-2009 00:00:00 22.455 C 43.5250 % 9.45 C
828 02-08-2009 00:00:00 20.47167 C 61.4417 % 12.81 C
829 03-08-2009 00:00:00 19.3075 C 57.0000 % 10.58 C
830 04-08-2009 00:00:00 20.48917 C 50.3583 % 9.82 C
831 05-08-2009 00:00:00 22.0275 C 42.0333 % 8.54 C
832 06-08-2009 00:00:00 24.19667 C 43.2167 % 10.91 C
833 07-08-2009 00:00:00 25.2075 C 43.4333 % 11.9 C
834 08-08-2009 00:00:00 21.22583 C 66.1417 % 14.66 C
835 09-08-2009 00:00:00 22.82101 C 59.6975 % 14.57 C
836 10-08-2009 00:00:00 21.7025 C 61.8167 % 14.06 C
837 11-08-2009 00:00:00 20.44 C 65.4917 % 13.76 C
838 12-08-2009 00:00:00 20.9725 C 61.3833 % 13.27 C
839 13-08-2009 00:00:00 18.55917 C 80.7583 % 15.19 C
840 14-08-2009 00:00:00 19.44083 C 64.8500 % 12.66 C
841 15-08-2009 00:00:00 21.37917 C 56.0917 % 12.27 C
842 16-08-2009 00:00:00 23.84583 C 51.0000 % 13.1 C
843 17-08-2009 00:00:00 23.615 C 52.9250 % 13.46 C
844 18-08-2009 00:00:00 22.105 C 48.4000 % 10.71 C
845 19-08-2009 00:00:00 23.76 C 47.2250 % 11.85 C
846 20-08-2009 00:00:00 26.03167 C 46.7167 % 13.75 C
847 21-08-2009 00:00:00 20.32185 C 60.7227 % 12.49 C
848 22-08-2009 00:00:00 19.745 C 53.6417 % 10.08 C
849 23-08-2009 00:00:00 20.0375 C 48.0000 % 8.7 C
850 24-08-2009 00:00:00 22.19667 C 47.2333 % 10.43 C
Sensor: Nr:Datum:Temp:Feuchte:Taupunkt:
Aussen-T/F 851 25-08-2009 00:00:00 23.11917 C 51.5583 % 12.6 C
852 26-08-2009 00:00:00 21.68417 C 51.2750 % 11.19 C
853 27-08-2009 00:00:00 23.10167 C 50.6833 % 12.32 C
854 28-08-2009 00:00:00 21.60583 C 44.5167 % 9.01 C
855 29-08-2009 00:00:00 16.21167 C 47.9917 % 5.2 C
856 30-08-2009 00:00:00 16.655 C 48.9833 % 5.9 C
857 31-08-2009 00:00:00 19.54667 C 45.1583 % 7.36 C
858 01-09-2009 00:00:00 19.93167 C 59.1917 % 11.73 C
859 02-09-2009 00:00:00 18.765 C 58.3500 % 10.43 C
860 03-09-2009 00:00:00 17.39328 C 58.5546 % 9.19 C
861 04-09-2009 00:00:00 14.56333 C 65.8333 % 8.25 C
862 05-09-2009 00:00:00 15.10833 C 58.8417 % 7.12 C
863 06-09-2009 00:00:00 14.74583 C 65.4917 % 8.35 C
864 07-09-2009 00:00:00 17.63417 C 59.2667 % 9.6 C
865 08-09-2009 00:00:00 19.88167 C 55.6000 % 10.74 C
866 09-09-2009 00:00:00 19.7475 C 55.6250 % 10.63 C
867 10-09-2009 00:00:00 18.43917 C 65.5417 % 11.87 C
868 11-09-2009 00:00:00 17.6725 C 48.9250 % 6.81 C
869 12-09-2009 00:00:00 16.99083 C 50.4917 % 6.65 C
870 13-09-2009 00:00:00 14.23 C 70.4250 % 8.93 C
871 14-09-2009 00:00:00 12.17417 C 93.7250 % 11.19 C
872 15-09-2009 00:00:00 13.7563 C 90.4790 % 12.23 C
873 16-09-2009 00:00:00 16.725 C 80.7417 % 13.4 C
874 17-09-2009 00:00:00 18.47583 C 63.0583 % 11.32 C
875 18-09-2009 00:00:00 18.26083 C 63.1333 % 11.14 C
Sensor: Nr:Datum:Temp:Feuchte:Taupunkt:
Aussen-T/F 876 19-09-2009 00:00:00 20.78583 C 61.2500 % 13.06 C
877 20-09-2009 00:00:00 19.92833 C 69.1167 % 14.1 C
878 21-09-2009 00:00:00 18.85833 C 66.5250 % 12.49 C
879 22-09-2009 00:00:00 17.215 C 64.9583 % 10.57 C
880 23-09-2009 00:00:00 17.4225 C 65.4750 % 10.89 C
881 24-09-2009 00:00:00 17.19 C 71.3833 % 11.97 C
882 25-09-2009 00:00:00 15.16083 C 67.2333 % 9.13 C
883 26-09-2009 00:00:00 14.56333 C 65.6083 % 8.2 C
884 27-09-2009 00:00:00 14.64 C 65.5500 % 8.26 C
885 28-09-2009 00:00:00 14.21583 C 69.3333 % 8.69 C
886 29-09-2009 00:00:00 15.88319 C 64.1513 % 9.12 C
887 30-09-2009 00:00:00 16.535 C 70.9500 % 11.25 C
888 01-10-2009 00:00:00 14.71583 C 70.4750 % 9.41 C
889 02-10-2009 00:00:00 11.32167 C 64.4833 % 4.88 C
890 03-10-2009 00:00:00 11.72333 C 64.5500 % 5.27 C
891 04-10-2009 00:00:00 13.54167 C 67.7083 % 7.69 C
892 05-10-2009 00:00:00 12.4075 C 91.3500 % 11.04 C
893 06-10-2009 00:00:00 16.13417 C 87.9333 % 14.13 C
894 07-10-2009 00:00:00 19.57083 C 76.5667 % 15.34 C
895 08-10-2009 00:00:00 16.41167 C 71.5083 % 11.25 C
896 09-10-2009 00:00:00 11.88417 C 71.4583 % 6.89 C
897 10-10-2009 00:00:00 13.34667 C 83.3667 % 10.59 C
898 11-10-2009 00:00:00 12.35042 C 81.0420 % 9.19 C
899 12-10-2009 00:00:00 10.9275 C 64.5583 % 4.52 C
900 13-10-2009 00:00:00 9.24333 C 70.8833 % 4.24 C
Sensor: Nr:Datum:Temp:Feuchte:Taupunkt:
Aussen-T/F 901 14-10-2009 00:00:00 4.27333 C 67.6167 % -1.17 C
902 15-10-2009 00:00:00 3.45583 C 68.1750 % -1.84 C
903 16-10-2009 00:00:00 6.41083 C 77.8417 % 2.83 C
904 17-10-2009 00:00:00 8.52083 C 65.8417 % 2.51 C
905 18-10-2009 00:00:00 7.3775 C 67.8000 % 1.83 C
906 19-10-2009 00:00:00 4.59 C 71.1667 % -0.17 C
907 20-10-2009 00:00:00 5.17083 C 70.1250 % 0.18 C
908 21-10-2009 00:00:00 8.07333 C 60.4667 % 0.9 C
909 22-10-2009 00:00:00 9.4 C 65.3833 % 3.25 C
910 23-10-2009 00:00:00 8.34 C 83.1083 % 5.65 C
911 24-10-2009 00:00:00 10.5084 C 80.4958 % 7.3 C
912 25-10-2009 00:00:00 12.6096 C 75.8400 % 8.46 C
913 26-10-2009 00:00:00 11.8875 C 71.4000 % 6.89 C
914 27-10-2009 00:00:00 11.82417 C 72.3750 % 7.02 C
915 28-10-2009 00:00:00 8.37917 C 83.3000 % 5.72 C
916 29-10-2009 00:00:00 8.69333 C 86.5333 % 6.58 C
917 30-10-2009 00:00:00 10.54083 C 78.0750 % 6.89 C
918 31-10-2009 00:00:00 7.03083 C 74.9917 % 2.91 C
919 01-11-2009 00:00:00 9.17333 C 75.6500 % 5.1 C
920 02-11-2009 00:00:00 10.32333 C 86.4250 % 8.16 C
921 03-11-2009 00:00:00 8.06167 C 74.6333 % 3.84 C
922 04-11-2009 00:00:00 8.75 C 80.8000 % 5.64 C
923 05-11-2009 00:00:00 9.29748 C 68.9916 % 3.91 C
924 06-11-2009 00:00:00 9.43333 C 69.3000 % 4.1 C
925 07-11-2009 00:00:00 8.11583 C 71.3500 % 3.25 C
Sensor: Nr:Datum:Temp:Feuchte:Taupunkt:
Aussen-T/F 926 08-11-2009 00:00:00 6.9 C 82.2833 % 4.09 C
927 09-11-2009 00:00:00 6.21167 C 85.0833 % 3.9 C
928 10-11-2009 00:00:00 6.03 C 93.3833 % 5.04 C
929 11-11-2009 00:00:00 6.2525 C 83.7333 % 3.71 C
930 12-11-2009 00:00:00 4.66 C 91.2500 % 3.36 C
931 13-11-2009 00:00:00 11.27583 C 81.1833 % 8.17 C
932 14-11-2009 00:00:00 11.7125 C 75.2250 % 7.48 C
933 15-11-2009 00:00:00 11.2125 C 67.9167 % 5.52 C
934 16-11-2009 00:00:00 10.92667 C 85.6250 % 8.61 C
935 17-11-2009 00:00:00 10.88235 C 85.3697 % 8.53 C
936 18-11-2009 00:00:00 10.245 C 65.3583 % 4.04 C
937 19-11-2009 00:00:00 9.77667 C 70.9667 % 4.77 C
938 20-11-2009 00:00:00 7.87917 C 83.2417 % 5.22 C
939 21-11-2009 00:00:00 11.67333 C 74.7417 % 7.35 C
940 22-11-2009 00:00:00 11.84167 C 61.4167 % 4.67 C
941 23-11-2009 00:00:00 10.33417 C 72.1583 % 5.55 C
942 24-11-2009 00:00:00 11.89833 C 68.9917 % 6.4 C
943 25-11-2009 00:00:00 12.0875 C 59.3750 % 4.42 C
944 26-11-2009 00:00:00 9.98917 C 60.9833 % 2.82 C
945 27-11-2009 00:00:00 9.0425 C 63.1500 % 2.42 C
946 28-11-2009 00:00:00 8.79 C 68.4583 % 3.31 C
947 29-11-2009 00:00:00 9.41597 C 67.3361 % 3.68 C
948 30-11-2009 00:00:00 6.46 C 84.5500 % 4.05 C
949 01-12-2009 00:00:00 5.65583 C 83.5583 % 3.1 C
950 02-12-2009 00:00:00 5.96 C 72.1333 % 1.33 C
Sensor: Nr:Datum:Temp:Feuchte:Taupunkt:
Aussen-T/F 951 03-12-2009 00:00:00 8.53667 C 70.9333 % 3.57 C
952 04-12-2009 00:00:00 4.73917 C 65.4500 % -1.17 C
953 05-12-2009 00:00:00 5.3975 C 73.5583 % 1.06 C
954 06-12-2009 00:00:00 9.83 C 80.9583 % 6.72 C
955 07-12-2009 00:00:00 5.59917 C 85.0833 % 3.3 C
956 08-12-2009 00:00:00 6.95833 C 81.1250 % 3.95 C
957 09-12-2009 00:00:00 7.2525 C 78.5917 % 3.79 C
958 10-12-2009 00:00:00 8.78583 C 80.4000 % 5.6 C
959 11-12-2009 00:00:00 6.665 C 81.1917 % 3.68 C
960 12-12-2009 00:00:00 3.47833 C 86.1750 % 1.39 C
961 13-12-2009 00:00:00 1.50924 C 65.8487 % -4.17 C
962 14-12-2009 00:00:00 -0.80667 C 58.3583 % -7.95 C
963 15-12-2009 00:00:00 -0.50083 C 61.5917 % -6.96 C
964 16-12-2009 00:00:00 -1.19917 C 62.6167 % -7.41 C
965 17-12-2009 00:00:00 -4.445 C 73.9500 % -8.38 C
966 18-12-2009 00:00:00 -5.04417 C 68.9417 % -9.85 C
967 19-12-2009 00:00:00 -12.79 C 58.7000 % -19.18 C
968 20-12-2009 00:00:00 -8.03917 C 68.5500 % -12.79 C
969 21-12-2009 00:00:00 -2.18417 C 78.2000 % -5.46 C
970 22-12-2009 00:00:00 2.7175 C 87.1750 % 0.8 C
971 23-12-2009 00:00:00 0.49333 C 93.2833 % -0.46 C
972 24-12-2009 00:00:00 2.31333 C 90.7833 % 0.97 C
973 25-12-2009 00:00:00 4.38824 C 77.7983 % 0.86 C
974 26-12-2009 00:00:00 2.04583 C 79.8417 % -1.06 C
975 27-12-2009 00:00:00 0.5475 C 87.0417 % -1.35 C
Sensor: Nr:Datum:Temp:Feuchte:Taupunkt:
Aussen-T/F 976 28-12-2009 00:00:00 3.1425 C 74.7333 % -0.9 C
977 29-12-2009 00:00:00 0.4625 C 92.0917 % -0.67 C
978 30-12-2009 00:00:00 7.05667 C 93.4917 % 6.08 C
979 31-12-2009 00:00:00 5.32667 C 94.8417 % 4.57 C
980 01-01-2010 00:00:00 -0.1725 C 91.5333 % -1.38 C
981 02-01-2010 00:00:00 -1.51083 C 76.5417 % -5.09 C
982 03-01-2010 00:00:00 -1.79667 C 80.7750 % -4.66 C
983 04-01-2010 00:00:00 -5.24083 C 72.0250 % -9.48 C
984 05-01-2010 00:00:00 -8.00083 C 81.2667 % -10.64 C
985 06-01-2010 00:00:00 -6.88917 C 75.9167 % -10.41 C
986 07-01-2010 00:00:00 -3.75966 C 75.0084 % -7.53 C
987 08-01-2010 00:00:00 -4.82167 C 73.6333 % -8.8 C
988 09-01-2010 00:00:00 -2.655 C 75.7333 % -6.34 C
989 10-01-2010 00:00:00 -1.87083 C 76.9583 % -5.37 C
990 11-01-2010 00:00:00 -1.42833 C 82.4667 % -4.02 C
991 12-01-2010 00:00:00 -1.65833 C 78.7583 % -4.85 C
992 13-01-2010 00:00:00 -2.2325 C 72.0917 % -6.57 C
993 14-01-2010 00:00:00 0.35417 C 80.1083 % -2.66 C
994 15-01-2010 00:00:00 0.87333 C 79.1833 % -2.31 C
995 16-01-2010 00:00:00 -0.11833 C 78.0000 % -3.48 C
996 17-01-2010 00:00:00 2.09667 C 91.1500 % 0.81 C
997 18-01-2010 00:00:00 3.38333 C 83.1500 % 0.8 C
998 19-01-2010 00:00:00 2.24583 C 90.2833 % 0.82 C
999 20-01-2010 00:00:00 1.97417 C 83.9417 % -0.45 C
1000 21-01-2010 00:00:00 2.45126 C 70.1933 % -2.41 C
Sensor: Nr:Datum:Temp:Feuchte:Taupunkt:
Aussen-T/F 1001 22-01-2010 00:00:00 2.93667 C 71.6750 % -1.66 C
1002 23-01-2010 00:00:00 -0.41333 C 71.4167 % -4.94 C
1003 24-01-2010 00:00:00 0.27167 C 82.1667 % -2.4 C
1004 25-01-2010 00:00:00 0.01667 C 86.3167 % -1.99 C
1005 26-01-2010 00:00:00 -3.325 C 73.0333 % -7.46 C
1006 27-01-2010 00:00:00 -5.54083 C 66.7000 % -10.74 C
1007 28-01-2010 00:00:00 1.20667 C 76.7750 % -2.41 C
1008 29-01-2010 00:00:00 1.39083 C 84.4333 % -0.94 C
1009 30-01-2010 00:00:00 -1.54583 C 77.9250 % -4.89 C
1010 31-01-2010 00:00:00 -1.62333 C 73.9000 % -5.66 C
1011 01-02-2010 00:00:00 0.20167 C 75.0083 % -3.69 C
1012 02-02-2010 00:00:00 0.69916 C 78.5798 % -2.59 C
1013 03-02-2010 00:00:00 2.28899 C 89.1468 % 0.69 C
1014 04-02-2010 00:00:00 4.17018 C 86.3684 % 2.1 C
1015 05-02-2010 00:00:00 3.29649 C 80.7719 % 0.32 C
1016 06-02-2010 00:00:00 4.55172 C 82.9483 % 1.91 C
1017 07-02-2010 00:00:00 4.17018 C 78.0526 % 0.7 C
1018 08-02-2010 00:00:00 -0.75 C 62.0517 % -7.1 C
1019 09-02-2010 00:00:00 -3.74483 C 58.3621 % -10.71 C
1020 10-02-2010 00:00:00 -4.8 C 67.0702 % -9.96 C
1021 11-02-2010 00:00:00 -3.79828 C 70.5345 % -8.36 C
1022 12-02-2010 00:00:00 -2.14737 C 70.6140 % -6.76 C
1023 13-02-2010 00:00:00 -2.57414 C 69.6724 % -7.34 C
1024 14-02-2010 00:00:00 -2.13621 C 74.1379 % -6.11 C
1025 15-02-2010 00:00:00 -1.12632 C 71.6491 % -5.58 C
Sensor: Nr:Datum:Temp:Feuchte:Taupunkt:
Aussen-T/F 1026 16-02-2010 00:00:00 -1.16379 C 67.5690 % -6.39 C
1027 17-02-2010 00:00:00 -1.61754 C 73.4912 % -5.73 C
1028 18-02-2010 00:00:00 3.2569 C 75.4138 % -0.66 C
1029 19-02-2010 00:00:00 3.59375 C 66.6094 % -2.03 C
1030 20-02-2010 00:00:00 1.69333 C 64.8167 % -4.2 C
1031 21-02-2010 00:00:00 2.87833 C 72.0500 % -1.65 C
1032 22-02-2010 00:00:00 6.76417 C 68.6833 % 1.42 C
1033 23-02-2010 00:00:00 9.7875 C 76.2667 % 5.82 C
1034 24-02-2010 00:00:00 9.55 C 71.2250 % 4.61 C
1035 25-02-2010 00:00:00 9.58 C 64.7500 % 3.28 C
1036 26-02-2010 00:00:00 8.62667 C 61.8917 % 1.74 C
1037 27-02-2010 00:00:00 8.4025 C 48.0000 % -1.95 C
1038 28-02-2010 00:00:00 8.30667 C 65.2417 % 2.18 C
1039 01-03-2010 00:00:00 5.40917 C 55.1833 % -2.85 C
1040 02-03-2010 00:00:00 3.135 C 64.5000 % -2.9 C
1041 03-03-2010 00:00:00 2.9925 C 56.0000 % -4.91 C
1042 04-03-2010 00:00:00 2.47395 C 46.4538 % -7.82 C
1043 05-03-2010 00:00:00 0.77667 C 47.2000 % -9.17 C
1044 06-03-2010 00:00:00 -0.47083 C 72.0000 % -4.89 C
1045 07-03-2010 00:00:00 -1.6825 C 52.6417 % -10.08 C
1046 08-03-2010 00:00:00 -1.21083 C 43.0500 % -12.16 C
1047 09-03-2010 00:00:00 -0.87167 C 38.6333 % -13.19 C
1048 10-03-2010 00:00:00 1.41667 C 32.7750 % -13.15 C
1049 11-03-2010 00:00:00 0.40167 C 51.3333 % -8.45 C
1050 12-03-2010 00:00:00 1.61167 C 71.3417 % -3 C
Sensor: Nr:Datum:Temp:Feuchte:Taupunkt:
Aussen-T/F 1051 13-03-2010 00:00:00 4.36583 C 64.8667 % -1.65 C
1052 14-03-2010 00:00:00 5.79833 C 56.7083 % -2.12 C
1053 15-03-2010 00:00:00 6.445 C 67.4417 % 0.87 C
1054 16-03-2010 00:00:00 6.08067 C 77.1933 % 2.4 C
1055 17-03-2010 00:00:00 6.69417 C 58.9167 % -0.76 C
1056 18-03-2010 00:00:00 10.12333 C 47.9167 % -0.4 C
1057 19-03-2010 00:00:00 15.0225 C 36.2750 % 0.19 C
1058 20-03-2010 00:00:00 14.37667 C 68.5333 % 8.67 C
1059 21-03-2010 00:00:00 11.23667 C 85.1833 % 8.84 C
1060 22-03-2010 00:00:00 9.7575 C 75.9583 % 5.73 C
1061 23-03-2010 00:00:00 8.94 C 69.7083 % 3.71 C
1062 24-03-2010 00:00:00 11.9975 C 58.5500 % 4.14 C
1063 25-03-2010 00:00:00 14.27083 C 53.1750 % 4.88 C
1064 26-03-2010 00:00:00 10.0325 C 74.5250 % 5.72 C
1065 27-03-2010 00:00:00 9.34333 C 63.2500 % 2.73 C
1066 28-03-2010 00:00:00 9.93478 C 66.1043 % 3.91 C
1067 29-03-2010 00:00:00 11.88167 C 76.0000 % 7.79 C
1068 30-03-2010 00:00:00 12.70672 C 57.7479 % 4.6 C
1069 31-03-2010 00:00:00 8.18667 C 53.2250 % -0.75 C
1070 01-04-2010 00:00:00 5.84333 C 52.3000 % -3.16 C
1071 02-04-2010 00:00:00 6.48583 C 58.2667 % -1.1 C
1072 03-04-2010 00:00:00 9.73667 C 59.2250 % 2.17 C
1073 04-04-2010 00:00:00 8.98833 C 59.6417 % 1.57 C
1074 05-04-2010 00:00:00 9.15083 C 51.2500 % -0.37 C
1075 06-04-2010 00:00:00 10.38167 C 45.7750 % -0.79 C
Sensor: Nr:Datum:Temp:Feuchte:Taupunkt:
Aussen-T/F 1076 07-04-2010 00:00:00 13.61167 C 43.0667 % 1.3 C
1077 08-04-2010 00:00:00 12.375 C 63.8000 % 5.72 C
1078 09-04-2010 00:00:00 11.49917 C 57.1917 % 3.34 C
1079 10-04-2010 00:00:00 11.3575 C 45.4833 % 0.01 C
1080 11-04-2010 00:00:00 7.86667 C 53.1250 % -1.07 C
1081 12-04-2010 00:00:00 7.44958 C 67.1176 % 1.76 C
1082 13-04-2010 00:00:00 11.85583 C 58.3000 % 3.94 C
1083 14-04-2010 00:00:00 11.76417 C 44.4000 % 0.05 C
1084 15-04-2010 00:00:00 11.8575 C 47.2917 % 1.01 C
1085 16-04-2010 00:00:00 9.71583 C 46.7750 % -1.1 C
1086 17-04-2010 00:00:00 11.1225 C 45.0083 % -0.34 C
1087 18-04-2010 00:00:00 13.27917 C 39.1333 % -0.32 C
1088 19-04-2010 00:00:00 11.18333 C 50.5667 % 1.32 C
1089 20-04-2010 00:00:00 11.13833 C 50.6583 % 1.3 C
1090 21-04-2010 00:00:00 7.34417 C 48.4667 % -2.8 C
1091 22-04-2010 00:00:00 8.35333 C 45.1250 % -2.83 C
1092 23-04-2010 00:00:00 11.44917 C 39.7500 % -1.74 C
1093 24-04-2010 00:00:00 14.91167 C 35.7417 % -0.11 C
1094 25-04-2010 00:00:00 17.1075 C 36.0667 % 1.96 C
1095 26-04-2010 00:00:00 15.72269 C 52.7899 % 6.12 C
1096 27-04-2010 00:00:00 15.50417 C 47.7417 % 4.48 C
1097 28-04-2010 00:00:00 16.8925 C 44.0167 % 4.58 C
1098 29-04-2010 00:00:00 19.21417 C 40.4917 % 5.48 C
1099 30-04-2010 00:00:00 18.69583 C 44.4333 % 6.35 C
1100 01-05-2010 00:00:00 15.09917 C 52.5333 % 5.47 C
Sensor: Nr:Datum:Temp:Feuchte:Taupunkt:
Aussen-T/F 1101 02-05-2010 00:00:00 13.48583 C 65.3833 % 7.13 C
1102 03-05-2010 00:00:00 10.01667 C 73.7583 % 5.56 C
1103 04-05-2010 00:00:00 9.78833 C 59.6167 % 2.32 C
1104 05-05-2010 00:00:00 10.09083 C 40.0167 % -2.87 C
1105 06-05-2010 00:00:00 6.68167 C 89.3500 % 5.06 C
1106 07-05-2010 00:00:00 6.49417 C 88.9000 % 4.8 C
1107 08-05-2010 00:00:00 11.06218 C 63.5126 % 4.41 C
1108 09-05-2010 00:00:00 12.575 C 62.7583 % 5.67 C
1109 10-05-2010 00:00:00 11.99917 C 62.6167 % 5.1 C
1110 11-05-2010 00:00:00 11.53167 C 66.0583 % 5.42 C
1111 12-05-2010 00:00:00 8.62333 C 73.6000 % 4.18 C
1112 13-05-2010 00:00:00 8.07667 C 75.9167 % 4.09 C
1113 14-05-2010 00:00:00 8.97333 C 81.9833 % 6.07 C
1114 15-05-2010 00:00:00 10.6825 C 60.3500 % 3.33 C
1115 16-05-2010 00:00:00 13.32917 C 45.9333 % 1.95 C
1116 17-05-2010 00:00:00 10.56917 C 73.2083 % 5.98 C
1117 18-05-2010 00:00:00 11.44333 C 59.0083 % 3.73 C
1118 19-05-2010 00:00:00 10.30583 C 66.0083 % 4.24 C
1119 20-05-2010 00:00:00 12.64034 C 56.8739 % 4.32 C
1120 21-05-2010 00:00:00 16.54333 C 54.3833 % 7.31 C
1121 22-05-2010 00:00:00 18.32583 C 49.5167 % 7.59 C
1122 23-05-2010 00:00:00 20.32083 C 49.1083 % 9.3 C
1123 24-05-2010 00:00:00 21.23 C 48.1667 % 9.84 C
1124 25-05-2010 00:00:00 20.64583 C 44.5083 % 8.14 C
1125 26-05-2010 00:00:00 15.41917 C 68.9500 % 9.75 C
Sensor: Nr:Datum:Temp:Feuchte:Taupunkt:
Aussen-T/F 1126 27-05-2010 00:00:00 15.6175 C 61.4583 % 8.24 C
1127 28-05-2010 00:00:00 17.3075 C 53.8500 % 7.88 C
1128 29-05-2010 00:00:00 16.34 C 52.0167 % 6.48 C
1129 30-05-2010 00:00:00 14.5975 C 71.3750 % 9.48 C
1130 31-05-2010 00:00:00 11.56667 C 78.6667 % 7.99 C
1131 01-06-2010 00:00:00 16.01833 C 61.6500 % 8.66 C
1132 02-06-2010 00:00:00 17.66471 C 51.7731 % 7.63 C
1133 03-06-2010 00:00:00 20.49083 C 44.3000 % 7.93 C
1134 04-06-2010 00:00:00 21.43 C 42.1333 % 8.04 C
1135 05-06-2010 00:00:00 22.97667 C 42.9500 % 9.72 C
1136 06-06-2010 00:00:00 20.91333 C 60.9250 % 13.1 C
1137 07-06-2010 00:00:00 19.58833 C 53.6333 % 9.93 C
1138 08-06-2010 00:00:00 19.76833 C 55.8333 % 10.7 C
1139 09-06-2010 00:00:00 22.5625 C 56.5667 % 13.5 C
1140 10-06-2010 00:00:00 22.76417 C 66.8333 % 16.28 C
1141 11-06-2010 00:00:00 22.89167 C 56.7417 % 13.86 C
1142 12-06-2010 00:00:00 18.84917 C 63.4750 % 11.77 C
1143 13-06-2010 00:00:00 18.25083 C 50.0250 % 7.67 C
1144 14-06-2010 00:00:00 19.76667 C 45.7833 % 7.76 C
1145 15-06-2010 00:00:00 18.9 C 49.7311 % 8.18 C
1146 16-06-2010 00:00:00 18.82833 C 38.3167 % 4.34 C
1147 17-06-2010 00:00:00 15.08583 C 71.6167 % 10 C
1148 18-06-2010 00:00:00 15.2325 C 71.9167 % 10.2 C
1149 19-06-2010 00:00:00 14.2725 C 51.1167 % 4.32 C
1150 20-06-2010 00:00:00 13.20333 C 59.2167 % 5.43 C
Sensor: Nr:Datum:Temp:Feuchte:Taupunkt:
Aussen-T/F 1151 21-06-2010 00:00:00 14.11083 C 52.4833 % 4.55 C
1152 22-06-2010 00:00:00 17.38667 C 47.4833 % 6.12 C
1153 23-06-2010 00:00:00 19.75917 C 47.6667 % 8.34 C
1154 24-06-2010 00:00:00 22.54833 C 43.3500 % 9.47 C
1155 25-06-2010 00:00:00 23.37 C 41.1917 % 9.45 C
1156 26-06-2010 00:00:00 23.635 C 41.1583 % 9.67 C
1157 27-06-2010 00:00:00 24.49417 C 40.2750 % 10.12 C
1158 28-06-2010 00:00:00 25.25546 C 38.9832 % 10.31 C
1159 29-06-2010 00:00:00 24.86167 C 43.0500 % 11.45 C
1160 30-06-2010 00:00:00 24.6175 C 44.6583 % 11.78 C
1161 01-07-2010 00:00:00 25.8425 C 40.2750 % 11.32 C
1162 02-07-2010 00:00:00 26.96667 C 37.4917 % 11.24 C
1163 03-07-2010 00:00:00 26.33 C 45.6083 % 13.66 C
1164 04-07-2010 00:00:00 26.44833 C 48.2917 % 14.65 C
1165 05-07-2010 00:00:00 22.02083 C 46.5417 % 10.05 C
1166 06-07-2010 00:00:00 20.17833 C 47.7667 % 8.76 C
1167 07-07-2010 00:00:00 22.53417 C 40.7500 % 8.54 C
1168 08-07-2010 00:00:00 26.43417 C 34.8333 % 9.67 C
1169 09-07-2010 00:00:00 27.51333 C 35.5750 % 10.93 C
1170 10-07-2010 00:00:00 29.25667 C 36.9500 % 13.04 C
1171 11-07-2010 00:00:00 28.48319 C 46.0252 % 15.75 C
1172 12-07-2010 00:00:00 27.1175 C 42.8500 % 13.41 C
1173 13-07-2010 00:00:00 25.36083 C 44.2167 % 12.31 C
1174 14-07-2010 00:00:00 25.98917 C 48.2250 % 14.2 C
1175 15-07-2010 00:00:00 22.6525 C 43.7250 % 9.69 C
Sensor: Nr:Datum:Temp:Feuchte:Taupunkt:
Aussen-T/F 1176 16-07-2010 00:00:00 23.97667 C 38.9833 % 9.17 C
1177 17-07-2010 00:00:00 21.99167 C 52.4833 % 11.83 C
1178 18-07-2010 00:00:00 21.73833 C 38.4417 % 6.98 C
1179 19-07-2010 00:00:00 23.63167 C 37.6000 % 8.33 C
1180 20-07-2010 00:00:00 25.03833 C 36.6583 % 9.2 C
1181 21-07-2010 00:00:00 24.73833 C 41.0417 % 10.62 C
1182 22-07-2010 00:00:00 21.34917 C 62.1250 % 13.8 C
1183 23-07-2010 00:00:00 20.17059 C 65.9748 % 13.61 C
1184 24-07-2010 00:00:00 19.00667 C 56.1417 % 10.07 C
1185 25-07-2010 00:00:00 17.26833 C 53.0333 % 7.62 C
1186 26-07-2010 00:00:00 17.2925 C 77.8500 % 13.39 C
1187 27-07-2010 00:00:00 19.815 C 58.8583 % 11.54 C
1188 28-07-2010 00:00:00 20.5075 C 62.7583 % 13.17 C
1189 29-07-2010 00:00:00 16.32417 C 82.1667 % 13.28 C
1190 30-07-2010 00:00:00 19.665 C 55.1000 % 10.41 C
1191 31-07-2010 00:00:00 20.62417 C 50.6750 % 10.04 C
1192 01-08-2010 00:00:00 22.90833 C 58.5833 % 14.36 C
1193 02-08-2010 00:00:00 19.60917 C 66.5833 % 13.22 C
1194 03-08-2010 00:00:00 18.94167 C 62.2917 % 11.58 C
1195 04-08-2010 00:00:00 19.62269 C 54.1933 % 10.12 C
1196 05-08-2010 00:00:00 18.49417 C 63.2500 % 11.38 C
1197 06-08-2010 00:00:00 19.04667 C 49.4417 % 8.23 C
1198 07-08-2010 00:00:00 19.46583 C 47.2333 % 7.94 C
1199 08-08-2010 00:00:00 18.485 C 73.9083 % 13.75 C
1200 09-08-2010 00:00:00 19.515 C 62.0500 % 12.06 C
Sensor: Nr:Datum:Temp:Feuchte:Taupunkt:
Aussen-T/F 1201 10-08-2010 00:00:00 22.13583 C 49.8000 % 11.17 C
1202 11-08-2010 00:00:00 20.32833 C 71.7583 % 15.06 C
1203 12-08-2010 00:00:00 19.10917 C 68.7917 % 13.24 C
1204 13-08-2010 00:00:00 18.77833 C 56.4000 % 9.93 C
1205 14-08-2010 00:00:00 19.9675 C 55.6000 % 10.82 C
1206 15-08-2010 00:00:00 16.88667 C 82.0833 % 13.81 C
1207 16-08-2010 00:00:00 17.07479 C 76.6975 % 12.95 C
1208 17-08-2010 00:00:00 16.06667 C 78.3083 % 12.29 C
1209 18-08-2010 00:00:00 18.40917 C 62.9750 % 11.24 C
1210 19-08-2010 00:00:00 18.88917 C 50.6417 % 8.44 C
1211 20-08-2010 00:00:00 20.42605 C 55.8739 % 11.32 C
1212 21-08-2010 00:00:00 23.76417 C 52.7167 % 13.53 C
1213 22-08-2010 00:00:00 23.01667 C 59.0250 % 14.58 C
1214 23-08-2010 00:00:00 21.205 C 70.7833 % 15.69 C
1215 24-08-2010 00:00:00 19.27083 C 47.4667 % 7.83 C
1216 25-08-2010 00:00:00 17.61917 C 51.1167 % 7.4 C
1217 26-08-2010 00:00:00 20.68083 C 64.0500 % 13.64 C
1218 27-08-2010 00:00:00 18.37667 C 83.9000 % 15.61 C
1219 28-08-2010 00:00:00 14.0675 C 73.3833 % 9.38 C
1220 29-08-2010 00:00:00 13.03167 C 75.5167 % 8.81 C
1221 30-08-2010 00:00:00 12.5675 C 77.2917 % 8.7 C
1222 31-08-2010 00:00:00 15.42917 C 63.8417 % 8.62 C
1223 01-09-2010 00:00:00 14.82437 C 66.2437 % 8.59 C
1224 02-09-2010 00:00:00 14.95333 C 68.7750 % 9.27 C
1225 03-09-2010 00:00:00 15.91417 C 66.8500 % 9.77 C
Sensor: Nr:Datum:Temp:Feuchte:Taupunkt:
Aussen-T/F 1226 04-09-2010 00:00:00 16.71417 C 59.2667 % 8.74 C
1227 05-09-2010 00:00:00 15.205 C 57.9500 % 6.99 C
1228 06-09-2010 00:00:00 15.675 C 50.6333 % 5.48 C
1229 07-09-2010 00:00:00 13.36083 C 72.0500 % 8.43 C
1230 08-09-2010 00:00:00 15.545 C 82.5083 % 12.58 C
1231 09-09-2010 00:00:00 16.20583 C 69.6333 % 10.65 C
1232 10-09-2010 00:00:00 16.18 C 73.5500 % 11.45 C
1233 11-09-2010 00:00:00 18.13417 C 67.4000 % 12 C
1234 12-09-2010 00:00:00 16.21667 C 76.2417 % 12.03 C
1235 13-09-2010 00:00:00 15.67583 C 69.6833 % 10.16 C
1236 14-09-2010 00:00:00 16.63697 C 63.2689 % 9.63 C
1237 15-09-2010 00:00:00 16.3175 C 56.3417 % 7.62 C
1238 16-09-2010 00:00:00 14.07 C 68.7833 % 8.43 C
1239 17-09-2010 00:00:00 13.76667 C 63.3000 % 6.92 C
1240 18-09-2010 00:00:00 11.45083 C 66.4583 % 5.43 C
1241 19-09-2010 00:00:00 11.7425 C 63.7833 % 5.12 C
1242 20-09-2010 00:00:00 14.01 C 60.2750 % 6.44 C
1243 21-09-2010 00:00:00 14.27 C 69.4583 % 8.76 C
1244 22-09-2010 00:00:00 15.86667 C 68.2250 % 10.02 C
1245 23-09-2010 00:00:00 16.56167 C 70.7917 % 11.24 C
1246 24-09-2010 00:00:00 14.165 C 94.1000 % 13.23 C
1247 25-09-2010 00:00:00 12.41833 C 72.2250 % 7.56 C
1248 26-09-2010 00:00:00 11.2425 C 71.6917 % 6.33 C
1249 27-09-2010 00:00:00 9.86807 C 80.2269 % 6.63 C
1250 28-09-2010 00:00:00 10.93083 C 94.2917 % 10.05 C
Sensor: Nr:Datum:Temp:Feuchte:Taupunkt:
Aussen-T/F 1251 29-09-2010 00:00:00 13.39417 C 76.6083 % 9.37 C
1252 30-09-2010 00:00:00 11.89667 C 83.4333 % 9.18 C
1253 01-10-2010 00:00:00 12.33667 C 83.6000 % 9.64 C
1254 02-10-2010 00:00:00 13.4525 C 88.8333 % 11.65 C
1255 03-10-2010 00:00:00 17.83583 C 69.4500 % 12.17 C
1256 04-10-2010 00:00:00 16.905 C 67.1833 % 10.78 C
1257 05-10-2010 00:00:00 15.64833 C 81.7000 % 12.53 C
1258 06-10-2010 00:00:00 17.22333 C 68.1250 % 11.3 C
1259 07-10-2010 00:00:00 16.31167 C 74.2083 % 11.71 C
1260 08-10-2010 00:00:00 16.02917 C 68.6417 % 10.27 C
1261 09-10-2010 00:00:00 13.1475 C 71.0083 % 8.01 C
1262 10-10-2010 00:00:00 11.6125 C 61.5417 % 4.48 C
1263 11-10-2010 00:00:00 10.90084 C 54.7647 % 2.17 C
1264 12-10-2010 00:00:00 8.71917 C 68.1167 % 3.18 C
1265 13-10-2010 00:00:00 7.475 C 69.3833 % 2.25 C
1266 14-10-2010 00:00:00 7.55583 C 74.6167 % 3.35 C
1267 15-10-2010 00:00:00 10.475 C 76.0250 % 6.44 C
1268 16-10-2010 00:00:00 8.375 C 89.9250 % 6.82 C
1269 17-10-2010 00:00:00 7.22667 C 80.5250 % 4.11 C
1270 18-10-2010 00:00:00 6.71833 C 73.3000 % 2.29 C
1271 19-10-2010 00:00:00 7.28167 C 81.9417 % 4.41 C
1272 20-10-2010 00:00:00 6.14167 C 81.5000 % 3.22 C
1273 21-10-2010 00:00:00 5.27 C 66.8833 % -0.37 C
1274 22-10-2010 00:00:00 4.20167 C 63.7833 % -2.03 C
1275 23-10-2010 00:00:00 4.37899 C 73.9748 % 0.16 C
Sensor: Nr:Datum:Temp:Feuchte:Taupunkt:
Aussen-T/F 1276 24-10-2010 00:00:00 8.55667 C 66.0833 % 2.59 C
1277 25-10-2010 00:00:00 6.1525 C 71.2167 % 1.34 C
1278 26-10-2010 00:00:00 3.62417 C 82.5583 % 0.94 C
1279 27-10-2010 00:00:00 8.14917 C 58.7667 % 0.58 C
1280 28-10-2010 00:00:00 9.1725 C 62.2417 % 2.34 C
1281 29-10-2010 00:00:00 9.9325 C 69.5917 % 4.64 C
1282 30-10-2010 00:00:00 10.57143 C 68.9286 % 5.12 C
1283 02-11-2010 00:00:00 11.31548 C 66.6667 % 5.35 C
1284 03-11-2010 00:00:00 13.10333 C 68.7083 % 7.49 C
1285 04-11-2010 00:00:00 16.41167 C 62.3167 % 9.19 C
1286 05-11-2010 00:00:00 14.51917 C 58.8000 % 6.56 C
1287 06-11-2010 00:00:00 10.40917 C 80.1167 % 7.13 C
1288 07-11-2010 00:00:00 6.86917 C 92.5083 % 5.74 C
1289 08-11-2010 00:00:00 4.65583 C 85.5500 % 2.45 C
1290 09-11-2010 00:00:00 6.65667 C 85.5833 % 4.42 C
1291 10-11-2010 00:00:00 7.08319 C 83.2017 % 4.43 C
1292 11-11-2010 00:00:00 5.84167 C 74.0333 % 1.58 C
1293 12-11-2010 00:00:00 11.04083 C 67.0583 % 5.17 C
1294 13-11-2010 00:00:00 14.51917 C 70.8917 % 9.31 C
1295 14-11-2010 00:00:00 14.60833 C 62.1917 % 7.46 C
1296 15-11-2010 00:00:00 9.47833 C 67.6667 % 3.81 C
1297 16-11-2010 00:00:00 6.0125 C 79.4417 % 2.73 C
1298 17-11-2010 00:00:00 5.3125 C 74.5000 % 1.16 C
1299 18-11-2010 00:00:00 5.61917 C 84.0500 % 3.14 C
1300 19-11-2010 00:00:00 6.4275 C 81.7500 % 3.54 C
Sensor: Nr:Datum:Temp:Feuchte:Taupunkt:
Aussen-T/F 1301 20-11-2010 00:00:00 4.8325 C 88.3833 % 3.08 C
1302 21-11-2010 00:00:00 4.48333 C 73.7500 % 0.22 C
1303 22-11-2010 00:00:00 4.47417 C 75.5417 % 0.54 C
1304 23-11-2010 00:00:00 4.54118 C 69.6723 % -0.51 C
1305 24-11-2010 00:00:00 3.415 C 80.1833 % 0.33 C
1306 25-11-2010 00:00:00 1.74083 C 80.3500 % -1.27 C
1307 26-11-2010 00:00:00 -0.29083 C 87.9417 % -2.04 C
1308 27-11-2010 00:00:00 -1.99167 C 84.3333 % -4.27 C
1309 28-11-2010 00:00:00 -1.325 C 80.3667 % -4.26 C
1310 29-11-2010 00:00:00 -1.55833 C 80.7833 % -4.42 C
1311 30-11-2010 00:00:00 -1.9425 C 80.4000 % -4.86 C
1312 01-12-2010 00:00:00 -5.7325 C 61.7750 % -11.88 C
1313 02-12-2010 00:00:00 -7.03167 C 68.9667 % -11.75 C
1314 03-12-2010 00:00:00 -7.38583 C 76.6667 % -10.77 C
1315 04-12-2010 00:00:00 -3.48167 C 68.7667 % -8.38 C
1316 05-12-2010 00:00:00 0.91667 C 65.5750 % -4.79 C
1317 06-12-2010 00:00:00 0.24538 C 81.3697 % -2.56 C
1318 07-12-2010 00:00:00 -0.20833 C 81.1417 % -3.04 C
1319 08-12-2010 00:00:00 -0.25917 C 90.8167 % -1.57 C
1320 09-12-2010 00:00:00 0.61333 C 77.4667 % -2.86 C
1321 10-12-2010 00:00:00 1.73333 C 85.9917 % -0.35 C
1322 11-12-2010 00:00:00 4.07583 C 81.0750 % 1.13 C
1323 12-12-2010 00:00:00 3.085 C 76.4250 % -0.65 C
1324 13-12-2010 00:00:00 -4.44833 C 70.7250 % -8.95 C
1325 14-12-2010 00:00:00 -3.65833 C 75.1500 % -7.41 C
Sensor: Nr:Datum:Temp:Feuchte:Taupunkt:
Aussen-T/F 1326 15-12-2010 00:00:00 -3.1275 C 73.4333 % -7.19 C
1327 16-12-2010 00:00:00 -3.4675 C 77.7917 % -6.78 C
1328 17-12-2010 00:00:00 -2.77417 C 73.1083 % -6.91 C
1329 18-12-2010 00:00:00 -4.65833 C 78.4500 % -7.83 C
1330 19-12-2010 00:00:00 -0.7125 C 83.7583 % -3.11 C
1331 20-12-2010 00:00:00 -1.53667 C 79.9500 % -4.54 C
1332 21-12-2010 00:00:00 -0.65546 C 86.2857 % -2.66 C
1333 22-12-2010 00:00:00 0.9225 C 90.2417 % -0.49 C
1334 23-12-2010 00:00:00 -0.36833 C 89.5583 % -1.87 C
1335 24-12-2010 00:00:00 -1.77438 C 82.4132 % -4.37 C
1336 25-12-2010 00:00:00 -5.4775 C 72.1917 % -9.68 C
1337 26-12-2010 00:00:00 -4.87833 C 75.4833 % -8.53 C
1338 27-12-2010 00:00:00 -2.21833 C 78.9083 % -5.37 C
1339 28-12-2010 00:00:00 -2.07899 C 79.7983 % -5.09 C
1340 29-12-2010 00:00:00 -0.255 C 79.0333 % -3.44 C
1341 30-12-2010 00:00:00 -0.55333 C 77.5833 % -3.98 C
1342 31-12-2010 00:00:00 -1.10413 C 79.2975 % -4.22 C
1343 01-01-2011 00:00:00 1.07311 C 86.7311 % -0.88 C
1344 02-01-2011 00:00:00 0.8025 C 85.7500 % -1.31 C
1345 03-01-2011 00:00:00 -0.9125 C 85.2333 % -3.07 C
1346 04-01-2011 00:00:00 -2.36667 C 81.6500 % -5.07 C
1347 05-01-2011 00:00:00 -3.83583 C 71.7333 % -8.18 C
1348 06-01-2011 00:00:00 3.72667 C 87.9667 % 1.92 C
1349 07-01-2011 00:00:00 6.91833 C 89.9000 % 5.38 C
1350 08-01-2011 00:00:00 10.5675 C 72.8000 % 5.9 C
Sensor: Nr:Datum:Temp:Feuchte:Taupunkt:
Aussen-T/F 1351 09-01-2011 00:00:00 5.08655 C 85.5042 % 2.86 C
1352 10-01-2011 00:00:00 0.7175 C 86.3333 % -1.3 C
1353 11-01-2011 00:00:00 3.43667 C 78.5333 % 0.07 C
1354 12-01-2011 00:00:00 5.44 C 78.6250 % 2.03 C
1355 13-01-2011 00:00:00 11.80333 C 77.9417 % 8.09 C
1356 14-01-2011 00:00:00 11.77417 C 66.0167 % 5.64 C
1357 15-01-2011 00:00:00 8.68167 C 69.2417 % 3.37 C
1358 16-01-2011 00:00:00 6.84167 C 76.6833 % 3.04 C
1359 17-01-2011 00:00:00 3.62917 C 87.1750 % 1.7 C
1360 18-01-2011 00:00:00 7.28833 C 76.0833 % 3.36 C
1361 19-01-2011 00:00:00 3.30833 C 77.6417 % -0.21 C
1362 20-01-2011 00:00:00 1.7 C 80.0083 % -1.37 C
1363 21-01-2011 00:00:00 -0.0675 C 63.4250 % -6.17 C
1364 22-01-2011 00:00:00 0.39664 C 78.3361 % -2.92 C
1365 23-01-2011 00:00:00 1.50167 C 86.5500 % -0.49 C
1366 24-01-2011 00:00:00 3.10167 C 84.6333 % 0.77 C
1367 25-01-2011 00:00:00 2.49833 C 79.4167 % -0.69 C
1368 26-01-2011 00:00:00 0.84083 C 82.9250 % -1.72 C
1369 27-01-2011 00:00:00 -0.28583 C 71.6667 % -4.77 C
1370 28-01-2011 00:00:00 -1.27083 C 64.6250 % -7.07 C
1371 29-01-2011 00:00:00 -4.9 C 78.6250 % -8.03 C
1372 30-01-2011 00:00:00 -6.20917 C 79.4500 % -9.17 C
1373 31-01-2011 00:00:00 -5.73833 C 80.2583 % -8.59 C
1374 01-02-2011 00:00:00 -4.03917 C 72.9333 % -8.16 C
1375 02-02-2011 00:00:00 -0.865 C 75.9667 % -4.56 C
Sensor: Nr:Datum:Temp:Feuchte:Taupunkt:
Aussen-T/F 1376 03-02-2011 00:00:00 1.94454 C 80.8824 % -0.98 C
1377 04-02-2011 00:00:00 6.18583 C 70.0667 % 1.15 C
1378 05-02-2011 00:00:00 9.25833 C 62.0000 % 2.37 C
1379 06-02-2011 00:00:00 8.62 C 60.0083 % 1.31 C
1380 07-02-2011 00:00:00 6.48083 C 55.1667 % -1.85 C
1381 08-02-2011 00:00:00 5.48833 C 65.0417 % -0.55 C
1382 09-02-2011 00:00:00 -0.23333 C 82.7917 % -2.8 C
1383 10-02-2011 00:00:00 3.9425 C 78.7083 % 0.59 C
1384 11-02-2011 00:00:00 10.23917 C 74.1917 % 5.85 C
1385 12-02-2011 00:00:00 6.88 C 81.4333 % 3.93 C
1386 13-02-2011 00:00:00 5.13417 C 82.5250 % 2.41 C
1387 14-02-2011 00:00:00 5.215 C 81.7250 % 2.35 C
1388 15-02-2011 00:00:00 5.14958 C 83.2101 % 2.54 C
1389 16-02-2011 00:00:00 4.90417 C 79.7167 % 1.7 C
1390 17-02-2011 00:00:00 1.96333 C 77.4417 % -1.56 C
1391 18-02-2011 00:00:00 2.23667 C 72.6417 % -2.16 C
1392 19-02-2011 00:00:00 2.82833 C 73.3833 % -1.45 C
1393 20-02-2011 00:00:00 0.7 C 62.1917 % -5.69 C
1394 21-02-2011 00:00:00 -1.8125 C 51.6000 % -10.45 C
1395 22-02-2011 00:00:00 -3.39167 C 51.9833 % -11.83 C
1396 23-02-2011 00:00:00 -2.66583 C 50.3167 % -11.56 C
1397 24-02-2011 00:00:00 0.91083 C 75.5417 % -2.91 C
1398 25-02-2011 00:00:00 3.445 C 84.2583 % 1.05 C
1399 26-02-2011 00:00:00 5.07167 C 75.9333 % 1.19 C
1400 27-02-2011 00:00:00 5.47731 C 73.6807 % 1.16 C
Sensor: Nr:Datum:Temp:Feuchte:Taupunkt:
Aussen-T/F 1401 28-02-2011 00:00:00 4.52333 C 67.9083 % -0.88 C
1402 01-03-2011 00:00:00 4.31167 C 69.8833 % -0.69 C
1403 02-03-2011 00:00:00 3.41 C 50.2917 % -5.93 C
1404 03-03-2011 00:00:00 1.585 C 49.3000 % -7.87 C
1405 04-03-2011 00:00:00 2.1825 C 60.4167 % -4.67 C
1406 05-03-2011 00:00:00 0.19833 C 75.1083 % -3.68 C
1407 06-03-2011 00:00:00 1.7325 C 60.2167 % -5.14 C
1408 07-03-2011 00:00:00 1.05667 C 46.9417 % -8.99 C
1409 08-03-2011 00:00:00 1.92583 C 52.3083 % -6.79 C
1410 09-03-2011 00:00:00 6.48333 C 61.8000 % -0.3 C
1411 10-03-2011 00:00:00 7.3 C 57.6167 % -0.49 C
1412 11-03-2011 00:00:00 8.78571 C 53.4790 % -0.13 C
1413 12-03-2011 00:00:00 7.3525 C 60.9583 % 0.33 C
1414 13-03-2011 00:00:00 11.07917 C 64.7167 % 4.7 C
1415 14-03-2011 00:00:00 10.09917 C 77.5250 % 6.35 C
1416 15-03-2011 00:00:00 10.73917 C 68.9250 % 5.28 C
1417 16-03-2011 00:00:00 8.73583 C 66.1667 % 2.78 C
1418 17-03-2011 00:00:00 6.295 C 79.3167 % 2.99 C
1419 18-03-2011 00:00:00 6.41833 C 70.2167 % 1.4 C
1420 19-03-2011 00:00:00 6.63 C 65.1750 % 0.57 C
1421 20-03-2011 00:00:00 3.39167 C 61.9167 % -3.2 C
1422 21-03-2011 00:00:00 4.66333 C 60.1083 % -2.4 C
1423 22-03-2011 00:00:00 6.83333 C 59.2833 % -0.54 C
1424 23-03-2011 00:00:00 8.59333 C 65.0750 % 2.41 C
1425 24-03-2011 00:00:00 9.14417 C 60.8917 % 2.01 C
Sensor: Nr:Datum:Temp:Feuchte:Taupunkt:
Aussen-T/F 1426 25-03-2011 00:00:00 9.65798 C 55.8908 % 1.29 C
1427 26-03-2011 00:00:00 8.11917 C 59.6833 % 0.76 C
1428 27-03-2011 00:00:00 9.62174 C 53.4696 % 0.65 C
1429 28-03-2011 00:00:00 7.7225 C 57.4083 % -0.15 C
1430 29-03-2011 00:00:00 7.42083 C 58.3917 % -0.2 C
1431 30-03-2011 00:00:00 8.36333 C 66.2417 % 2.44 C
1432 31-03-2011 00:00:00 12.03833 C 73.1000 % 7.37 C
1433 01-04-2011 00:00:00 13.985 C 68.4250 % 8.27 C
1434 02-04-2011 00:00:00 14.21833 C 66.4500 % 8.06 C
1435 03-04-2011 00:00:00 11.81167 C 76.3083 % 7.78 C
1436 04-04-2011 00:00:00 10.68333 C 67.0083 % 4.82 C
1437 05-04-2011 00:00:00 9.30833 C 68.0500 % 3.73 C
1438 06-04-2011 00:00:00 15.69167 C 63.4000 % 8.77 C
1439 07-04-2011 00:00:00 16.35294 C 59.8739 % 8.55 C
1440 08-04-2011 00:00:00 13.4925 C 56.0417 % 4.91 C
1441 09-04-2011 00:00:00 12.96917 C 49.7083 % 2.72 C
1442 10-04-2011 00:00:00 12.2825 C 55.3833 % 3.61 C
1443 11-04-2011 00:00:00 14.76333 C 53.4583 % 5.41 C
1444 12-04-2011 00:00:00 10.27917 C 57.0083 % 2.15 C
1445 13-04-2011 00:00:00 7.60083 C 55.2417 % -0.79 C
1446 14-04-2011 00:00:00 8.3025 C 53.3167 % -0.62 C
1447 15-04-2011 00:00:00 7.43583 C 58.4250 % -0.17 C
1448 16-04-2011 00:00:00 8.14667 C 54.9167 % -0.36 C
1449 17-04-2011 00:00:00 11.61917 C 46.3000 % 0.5 C
1450 18-04-2011 00:00:00 10.9521 C 55.2605 % 2.34 C
Sensor: Nr:Datum:Temp:Feuchte:Taupunkt:
Aussen-T/F 1451 19-04-2011 00:00:00 12.87583 C 55.1250 % 4.1 C
1452 20-04-2011 00:00:00 13.54917 C 55.3917 % 4.79 C
1453 21-04-2011 00:00:00 14.49333 C 54.9917 % 5.57 C
1454 22-04-2011 00:00:00 16.35083 C 55.1083 % 7.33 C
1455 23-04-2011 00:00:00 18.26083 C 59.3250 % 10.2 C
1456 24-04-2011 00:00:00 16.74333 C 54.1333 % 7.43 C
1457 25-04-2011 00:00:00 15.975 C 45.3000 % 4.16 C
1458 26-04-2011 00:00:00 12.8275 C 60.7167 % 5.44 C
1459 27-04-2011 00:00:00 11.27167 C 76.9583 % 7.38 C
1460 28-04-2011 00:00:00 13.99 C 71.8583 % 9 C
1461 29-04-2011 00:00:00 15.08333 C 65.8750 % 8.76 C
1462 30-04-2011 00:00:00 15.42 C 56.5500 % 6.84 C
1463 01-05-2011 00:00:00 15.09328 C 37.9496 % 0.88 C
1464 02-05-2011 00:00:00 11.83333 C 44.3167 % 0.09 C
1465 03-05-2011 00:00:00 10.93167 C 41.8667 % -1.5 C
1466 04-05-2011 00:00:00 8.28 C 53.9417 % -0.48 C
1467 05-05-2011 00:00:00 10.32333 C 55.8000 % 1.89 C
1468 06-05-2011 00:00:00 13.52917 C 53.1000 % 4.17 C
1469 07-05-2011 00:00:00 17.6125 C 49.5667 % 6.95 C
1470 08-05-2011 00:00:00 19.07167 C 37.5667 % 4.28 C
1471 09-05-2011 00:00:00 18.40083 C 39.3250 % 4.33 C
1472 10-05-2011 00:00:00 17.95833 C 50.2083 % 7.45 C
1473 11-05-2011 00:00:00 18.40667 C 60.4833 % 10.63 C
1474 12-05-2011 00:00:00 15.77833 C 53.4917 % 6.36 C
1475 13-05-2011 00:00:00 13.68403 C 52.7983 % 4.24 C
Sensor: Nr:Datum:Temp:Feuchte:Taupunkt:
Aussen-T/F 1476 14-05-2011 00:00:00 12.59917 C 53.0417 % 3.3 C
1477 15-05-2011 00:00:00 10.34333 C 63.7833 % 3.79 C
1478 16-05-2011 00:00:00 12.58667 C 60.3917 % 5.13 C
1479 17-05-2011 00:00:00 17.04083 C 51.7667 % 7.06 C
1480 18-05-2011 00:00:00 16.60583 C 55.1333 % 7.57 C
1481 19-05-2011 00:00:00 17.10833 C 62.0917 % 9.8 C
1482 20-05-2011 00:00:00 16.53 C 72.2833 % 11.53 C
1483 21-05-2011 00:00:00 19.16077 C 60.6385 % 11.38 C
1484 22-05-2011 00:00:00 16.79593 C 62.6667 % 9.64 C
1485 23-05-2011 00:00:00 16.00167 C 49.6833 % 5.5 C
1486 24-05-2011 00:00:00 15.90583 C 48.1000 % 4.95 C
1487 25-05-2011 00:00:00 15.29333 C 44.6833 % 3.34 C
1488 26-05-2011 00:00:00 16.04833 C 43.0167 % 3.49 C
1489 27-05-2011 00:00:00 14.61 C 44.7667 % 2.75 C
1490 28-05-2011 00:00:00 15.2875 C 48.6000 % 4.53 C
1491 29-05-2011 00:00:00 19.21849 C 41.4286 % 5.81 C
1492 30-05-2011 00:00:00 20.91333 C 47.3750 % 9.3 C
1493 31-05-2011 00:00:00 14.84583 C 71.3000 % 9.7 C
1494 01-06-2011 00:00:00 14.86083 C 55.0833 % 5.94 C
1495 02-06-2011 00:00:00 19.79167 C 41.8750 % 6.48 C
1496 03-06-2011 00:00:00 20.65583 C 37.7917 % 5.77 C
1497 04-06-2011 00:00:00 21.20417 C 56.0500 % 12.1 C
1498 05-06-2011 00:00:00 18.63333 C 81.4833 % 15.4 C
1499 06-06-2011 00:00:00 18.38667 C 75.9000 % 14.06 C
1500 07-06-2011 00:00:00 20.62417 C 61.2917 % 12.92 C
Sensor: Nr:Datum:Temp:Feuchte:Taupunkt:
Aussen-T/F 1501 08-06-2011 00:00:00 15.695 C 66.5583 % 9.49 C
1502 09-06-2011 00:00:00 14.09328 C 68.2437 % 8.34 C
1503 10-06-2011 00:00:00 14.6563 C 70.2437 % 9.3 C
1504 11-06-2011 00:00:00 15.99417 C 59.1250 % 8.03 C
1505 12-06-2011 00:00:00 15.21167 C 56.7750 % 6.7 C
1506 13-06-2011 00:00:00 16.92167 C 58.7417 % 8.8 C
1507 14-06-2011 00:00:00 20.63333 C 59.4000 % 12.45 C
1508 15-06-2011 00:00:00 19.88909 C 59.3000 % 11.72 C
1509 16-06-2011 00:00:00 15.99375 C 61.2500 % 8.54 C
1510 17-06-2011 00:00:00 15.96417 C 59.6833 % 8.14 C
1511 18-06-2011 00:00:00 15.91083 C 58.8917 % 7.89 C
1512 19-06-2011 00:00:00 14.57917 C 57.0417 % 6.18 C
1513 20-06-2011 00:00:00 13.67417 C 78.2583 % 9.96 C
1514 21-06-2011 00:00:00 19.2575 C 67.7583 % 13.15 C
1515 22-06-2011 00:00:00 18.02773 C 72.1597 % 12.94 C
1516 23-06-2011 00:00:00 16.265 C 59.2250 % 8.3 C
1517 24-06-2011 00:00:00 14.2775 C 58.5250 % 6.27 C
1518 25-06-2011 00:00:00 13.42417 C 77.5000 % 9.57 C
1519 26-06-2011 00:00:00 15 C 80.0000 % 11.58 C
1520 27-06-2011 00:00:00 17.65667 C 72.5083 % 12.66 C
1521 28-06-2011 00:00:00 25.33167 C 49.5333 % 14.02 C
1522 29-06-2011 00:00:00 20.62 C 64.0583 % 13.59 C
1523 30-06-2011 00:00:00 17.92833 C 46.7417 % 6.39 C
1524 01-07-2011 00:00:00 15.115 C 62.0000 % 7.9 C
1525 02-07-2011 00:00:00 14.5975 C 56.8083 % 6.14 C
Sensor: Nr:Datum:Temp:Feuchte:Taupunkt:
Aussen-T/F 1526 03-07-2011 00:00:00 16.92083 C 48.2583 % 5.93 C
1527 04-07-2011 00:00:00 16.2 C 55.0000 % 7.16 C
1528 05-07-2011 00:00:00 24.435 C 44.7625 % 11.65 C
1529 06-07-2011 00:00:00 20.39333 C 51.4417 % 10.05 C
1530 07-07-2011 00:00:00 19.52083 C 53.1917 % 9.75 C
1531 08-07-2011 00:00:00 19.92333 C 49.6583 % 9.1 C
1532 09-07-2011 00:00:00 21.28083 C 46.1667 % 9.26 C
1533 10-07-2011 00:00:00 18.22833 C 60.4000 % 10.44 C
1534 11-07-2011 00:00:00 20.90417 C 55.0583 % 11.55 C
1535 12-07-2011 00:00:00 19.89917 C 61.4750 % 12.28 C
1536 13-07-2011 00:00:00 15.985 C 78.1250 % 12.18 C
1537 14-07-2011 00:00:00 15.70417 C 52.2083 % 5.94 C
1538 15-07-2011 00:00:00 18.7025 C 41.8750 % 5.5 C
1539 16-07-2011 00:00:00 18.92269 C 46.1933 % 7.12 C
1540 17-07-2011 00:00:00 17.68667 C 65.9583 % 11.25 C
1541 18-07-2011 00:00:00 16.98583 C 56.7583 % 8.35 C
1542 19-07-2011 00:00:00 16.52167 C 65.5917 % 10.06 C
1543 20-07-2011 00:00:00 15.91917 C 76.3167 % 11.76 C
1544 21-07-2011 00:00:00 16.59583 C 76.6083 % 12.47 C
1545 22-07-2011 00:00:00 16.87083 C 58.2333 % 8.62 C
1546 23-07-2011 00:00:00 13.94417 C 62.1417 % 6.82 C
1547 24-07-2011 00:00:00 12.63083 C 75.5917 % 8.44 C
1548 25-07-2011 00:00:00 16.39417 C 63.4083 % 9.44 C
1549 26-07-2011 00:00:00 16.5375 C 73.3667 % 11.76 C
1550 27-07-2011 00:00:00 17.045 C 76.9417 % 12.97 C
Sensor: Nr:Datum:Temp:Feuchte:Taupunkt:
Aussen-T/F 1551 28-07-2011 00:00:00 18.71345 C 71.7899 % 13.52 C
1552 29-07-2011 00:00:00 17.87583 C 65.5000 % 11.33 C
1553 30-07-2011 00:00:00 15.04833 C 66.9083 % 8.95 C
1554 31-07-2011 00:00:00 15.27667 C 58.7917 % 7.27 C
1555 01-08-2011 00:00:00 16.885 C 62.5250 % 9.69 C
1556 02-08-2011 00:00:00 20.45917 C 60.0667 % 12.45 C
1557 03-08-2011 00:00:00 19.3425 C 74.8750 % 14.77 C
1558 04-08-2011 00:00:00 21.59083 C 66.0417 % 14.98 C
1559 05-08-2011 00:00:00 22.10417 C 66.0500 % 15.47 C
1560 06-08-2011 00:00:00 19.43333 C 80.8333 % 16.06 C
1561 07-08-2011 00:00:00 17.99583 C 60.5083 % 10.25 C
1562 08-08-2011 00:00:00 15.61 C 65.0500 % 9.07 C
1563 09-08-2011 00:00:00 15.21177 C 65.5882 % 8.82 C
1564 10-08-2011 00:00:00 11.545 C 70.7500 % 6.42 C
1565 11-08-2011 00:00:00 15.27417 C 59.8917 % 7.54 C
1566 12-08-2011 00:00:00 17.7625 C 71.7917 % 12.61 C
1567 13-08-2011 00:00:00 19.08833 C 72.0417 % 13.93 C
1568 14-08-2011 00:00:00 18.79167 C 79.1417 % 15.1 C
1569 15-08-2011 00:00:00 19.07917 C 64.2167 % 12.17 C
1570 16-08-2011 00:00:00 18.73083 C 60.4333 % 10.92 C
1571 17-08-2011 00:00:00 18.89 C 66.1833 % 12.45 C
1572 18-08-2011 00:00:00 22.63167 C 61.2417 % 14.79 C
1573 19-08-2011 00:00:00 19.24667 C 68.7333 % 13.36 C
1574 20-08-2011 00:00:00 18.59833 C 65.7167 % 12.06 C
1575 21-08-2011 00:00:00 20.63583 C 69.0417 % 14.76 C
Sensor: Nr:Datum:Temp:Feuchte:Taupunkt:
Aussen-T/F 1576 22-08-2011 00:00:00 23.83613 C 62.0504 % 16.13 C
1577 23-08-2011 00:00:00 23.46583 C 60.9833 % 15.51 C
1578 24-08-2011 00:00:00 20.97833 C 67.3417 % 14.7 C
1579 25-08-2011 00:00:00 20.68833 C 69.8333 % 14.99 C
1580 26-08-2011 00:00:00 20.87 C 74.2833 % 16.12 C
1581 27-08-2011 00:00:00 15.035 C 76.8333 % 11.01 C
1582 28-08-2011 00:00:00 15.25583 C 63.6333 % 8.41 C
1583 29-08-2011 00:00:00 14.68667 C 59.3667 % 6.86 C
1584 30-08-2011 00:00:00 12.15833 C 69.4583 % 6.74 C
1585 31-08-2011 00:00:00 13.1325 C 69.1000 % 7.6 C
1586 01-09-2011 00:00:00 15.16083 C 67.3250 % 9.15 C
1587 02-09-2011 00:00:00 17.55667 C 71.4250 % 12.33 C
1588 03-09-2011 00:00:00 20.71597 C 69.7311 % 14.99 C
1589 04-09-2011 00:00:00 21.65833 C 66.8333 % 15.23 C
1590 05-09-2011 00:00:00 17.79667 C 52.4583 % 7.95 C
1591 06-09-2011 00:00:00 15.93333 C 57.8333 % 7.64 C
1592 07-09-2011 00:00:00 16.43 C 56.2417 % 7.7 C
1593 08-09-2011 00:00:00 15.3775 C 59.5333 % 7.55 C
1594 09-09-2011 00:00:00 18.46 C 74.5500 % 13.86 C
1595 10-09-2011 00:00:00 21.15667 C 77.6667 % 17.1 C
1596 11-09-2011 00:00:00 17.895 C 81.2500 % 14.64 C
1597 12-09-2011 00:00:00 17.43583 C 68.8250 % 11.65 C
1598 13-09-2011 00:00:00 18.005 C 66.8333 % 11.75 C
1599 14-09-2011 00:00:00 14.43917 C 60.2417 % 6.84 C
1600 15-09-2011 00:00:00 13.91583 C 66.4583 % 7.78 C
Sensor: Nr:Datum:Temp:Feuchte:Taupunkt:
Aussen-T/F 1601 16-09-2011 00:00:00 12.79667 C 78.8750 % 9.23 C
1602 17-09-2011 00:00:00 16.78824 C 67.5798 % 10.76 C
1603 18-09-2011 00:00:00 12.7625 C 73.2333 % 8.1 C
1604 19-09-2011 00:00:00 12.76833 C 68.7167 % 7.17 C
1605 20-09-2011 00:00:00 12.41333 C 74.0667 % 7.93 C
1606 21-09-2011 00:00:00 13.775 C 70.1333 % 8.43 C
1607 22-09-2011 00:00:00 15.79167 C 59.3417 % 7.89 C
1608 23-09-2011 00:00:00 14.20917 C 64.8250 % 7.69 C
1609 24-09-2011 00:00:00 12.8025 C 74.2750 % 8.34 C
1610 25-09-2011 00:00:00 14.1125 C 76.8000 % 10.11 C
1611 26-09-2011 00:00:00 15.74917 C 76.1250 % 11.56 C
1612 27-09-2011 00:00:00 17.1525 C 74.8583 % 12.66 C
1613 28-09-2011 00:00:00 16.71 C 77.5333 % 12.77 C
1614 29-09-2011 00:00:00 16.13167 C 75.2500 % 11.75 C
1615 30-09-2011 00:00:00 14.48824 C 75.4034 % 10.2 C
1616 01-10-2011 00:00:00 14.3525 C 77.3833 % 10.45 C
1617 02-10-2011 00:00:00 14.74 C 77.1417 % 10.78 C
1618 03-10-2011 00:00:00 15.125 C 75.4750 % 10.82 C
1619 04-10-2011 00:00:00 16.96167 C 63.1167 % 9.9 C
1620 05-10-2011 00:00:00 17.94667 C 59.6250 % 9.98 C
1621 06-10-2011 00:00:00 14.175 C 69.3833 % 8.66 C
1622 07-10-2011 00:00:00 9.92583 C 66.5083 % 3.99 C
1623 08-10-2011 00:00:00 9.01167 C 73.3417 % 4.51 C
1624 09-10-2011 00:00:00 9.11667 C 79.0750 % 5.69 C
1625 10-10-2011 00:00:00 16.5475 C 68.2167 % 10.67 C
Sensor: Nr:Datum:Temp:Feuchte:Taupunkt:
Aussen-T/F 1626 11-10-2011 00:00:00 16.37917 C 62.5417 % 9.22 C
1627 12-10-2011 00:00:00 15.74333 C 66.8000 % 9.59 C
1628 13-10-2011 00:00:00 10.145 C 73.3667 % 5.6 C
1629 14-10-2011 00:00:00 6.14286 C 78.8151 % 2.75 C
1630 15-10-2011 00:00:00 4.65417 C 78.8000 % 1.3 C
1631 16-10-2011 00:00:00 4.29833 C 79.7583 % 1.12 C
1632 17-10-2011 00:00:00 6.42917 C 82.1833 % 3.62 C
1633 18-10-2011 00:00:00 8.99833 C 81.0167 % 5.92 C
1634 19-10-2011 00:00:00 8.2025 C 70.7333 % 3.21 C
1635 20-10-2011 00:00:00 5.4275 C 79.8333 % 2.23 C
1636 21-10-2011 00:00:00 3.16333 C 87.6917 % 1.32 C
1637 22-10-2011 00:00:00 3.45333 C 82.2083 % 0.71 C
1638 23-10-2011 00:00:00 2.44833 C 85.8917 % 0.33 C
1639 24-10-2011 00:00:00 5.85083 C 75.8167 % 1.92 C
1640 25-10-2011 00:00:00 9.17417 C 73.4750 % 4.69 C
1641 26-10-2011 00:00:00 9.305 C 71.1750 % 4.36 C
1642 27-10-2011 00:00:00 5.69333 C 85.4917 % 3.46 C
1643 28-10-2011 00:00:00 8.32857 C 86.7731 % 6.26 C
1644 29-10-2011 00:00:00 10.61667 C 83.0000 % 7.85 C
1645 30-10-2011 00:00:00 12.2192 C 86.1680 % 9.98 C
1646 31-10-2011 00:00:00 11.39 C 86.4000 % 9.2 C
1647 01-11-2011 00:00:00 9.17333 C 84.4083 % 6.69 C
1648 02-11-2011 00:00:00 10.59667 C 80.8500 % 7.45 C
1649 03-11-2011 00:00:00 11.35583 C 71.9417 % 6.48 C
1650 04-11-2011 00:00:00 10.15333 C 80.0500 % 6.87 C
Sensor: Nr:Datum:Temp:Feuchte:Taupunkt:
Aussen-T/F 1651 05-11-2011 00:00:00 10.31333 C 76.4167 % 6.35 C
1652 06-11-2011 00:00:00 8.90583 C 84.0333 % 6.36 C
1653 07-11-2011 00:00:00 8.85 C 80.9583 % 5.77 C
1654 08-11-2011 00:00:00 5.84583 C 87.4583 % 3.93 C
1655 09-11-2011 00:00:00 6.5025 C 86.5500 % 4.43 C
1656 10-11-2011 00:00:00 6.29328 C 81.6218 % 3.39 C
1657 11-11-2011 00:00:00 6.25417 C 76.0750 % 2.36 C
1658 12-11-2011 00:00:00 4.20083 C 82.4417 % 1.48 C
1659 13-11-2011 00:00:00 4.15833 C 85.7750 % 1.99 C
1660 14-11-2011 00:00:00 0.35917 C 92.4167 % -0.72 C
1661 15-11-2011 00:00:00 0.25583 C 92.2667 % -0.85 C
1662 16-11-2011 00:00:00 -1.305 C 91.7000 % -2.48 C
1663 17-11-2011 00:00:00 3.935 C 80.2583 % 0.85 C
1664 18-11-2011 00:00:00 7.49833 C 83.7333 % 4.93 C
1665 19-11-2011 00:00:00 5.435 C 89.5667 % 3.86 C
1666 20-11-2011 00:00:00 6.58083 C 80.3583 % 3.45 C
1667 21-11-2011 00:00:00 1.40917 C 92.2250 % 0.29 C
1668 22-11-2011 00:00:00 1.14083 C 92.1583 % 0.01 C
1669 23-11-2011 00:00:00 1.59583 C 92.8833 % 0.57 C
1670 24-11-2011 00:00:00 2.37083 C 92.1167 % 1.23 C
1671 25-11-2011 00:00:00 1.0775 C 85.7083 % -1.04 C
1672 26-11-2011 00:00:00 6.25167 C 75.0583 % 2.17 C
1673 27-11-2011 00:00:00 7.40833 C 70.7917 % 2.46 C
1674 28-11-2011 00:00:00 0.83833 C 92.3250 % -0.26 C
1675 29-11-2011 00:00:00 1.88167 C 89.6667 % 0.37 C
Sensor: Nr:Datum:Temp:Feuchte:Taupunkt:
Aussen-T/F 1676 30-11-2011 00:00:00 4.85083 C 85.9250 % 2.7 C
1677 01-12-2011 00:00:00 5.52417 C 87.8333 % 3.67 C
1678 02-12-2011 00:00:00 7.12667 C 77.6917 % 3.5 C
1679 03-12-2011 00:00:00 6.26583 C 76.7250 % 2.49 C
1680 04-12-2011 00:00:00 8.2975 C 80.9000 % 5.22 C
1681 05-12-2011 00:00:00 4.38417 C 71.7167 % -0.26 C
1682 06-12-2011 00:00:00 4.445 C 67.2500 % -1.08 C
1683 07-12-2011 00:00:00 5.57833 C 70.8167 % 0.71 C
1684 08-12-2011 00:00:00 6.22333 C 62.1250 % -0.48 C
1685 09-12-2011 00:00:00 5.94583 C 71.2167 % 1.14 C
1686 10-12-2011 00:00:00 1.885 C 76.4500 % -1.81 C
1687 11-12-2011 00:00:00 0.43667 C 83.0417 % -2.1 C
1688 12-12-2011 00:00:00 5.96583 C 76.8000 % 2.21 C
1689 13-12-2011 00:00:00 6.86417 C 68.8250 % 1.55 C
1690 14-12-2011 00:00:00 6.68371 C 80.3447 % 3.55 C
1691 15-12-2011 00:00:00 6.13646 C 77.7778 % 2.56 C
1692 16-12-2011 00:00:00 6.07222 C 83.0347 % 3.41 C
1693 17-12-2011 00:00:00 3.63507 C 84.7535 % 1.31 C
1694 18-12-2011 00:00:00 2.25764 C 86.7604 % 0.29 C
1695 19-12-2011 00:00:00 1.70208 C 86.1250 % -0.36 C
1696 20-12-2011 00:00:00 2.28715 C 90.9132 % 0.96 C
1697 21-12-2011 00:00:00 4.19792 C 87.9167 % 2.38 C
1698 22-12-2011 00:00:00 6.57917 C 94.6910 % 5.79 C
1699 23-12-2011 00:00:00 8.41806 C 90.8021 % 7 C
1700 24-12-2011 00:00:00 5.63368 C 83.5243 % 3.07 C
Sensor: Nr:Datum:Temp:Feuchte:Taupunkt:
Aussen-T/F 1701 25-12-2011 00:00:00 5.68472 C 86.3750 % 3.59 C
1702 26-12-2011 00:00:00 8.12222 C 89.4931 % 6.5 C
1703 27-12-2011 00:00:00 8.25139 C 89.0139 % 6.55 C
1704 28-12-2011 00:00:00 5.71424 C 86.6597 % 3.67 C
1705 29-12-2011 00:00:00 5.51667 C 80.4757 % 2.43 C
1706 30-12-2011 00:00:00 4.24861 C 83.3125 % 1.68 C
1707 31-12-2011 00:00:00 5.15729 C 93.6007 % 4.21 C
1708 01-01-2012 00:00:00 12.02807 C 88.3754 % 10.17 C
1709 02-01-2012 00:00:00 8.87847 C 88.2917 % 7.05 C
1710 03-01-2012 00:00:00 7.43403 C 81.7917 % 4.53 C
1711 04-01-2012 00:00:00 6.56875 C 76.5174 % 2.75 C
1712 05-01-2012 00:00:00 6.88368 C 80.3785 % 3.75 C
1713 06-01-2012 00:00:00 5.40208 C 81.6389 % 2.52 C
1714 07-01-2012 00:00:00 5.54653 C 84.9201 % 3.22 C
1715 08-01-2012 00:00:00 5.96042 C 84.6111 % 3.57 C
1716 09-01-2012 00:00:00 6.11424 C 89.9479 % 4.59 C
1717 10-01-2012 00:00:00 6.93056 C 91.1319 % 5.59 C
1718 11-01-2012 00:00:00 8.11597 C 82.0938 % 5.25 C
1719 12-01-2012 00:00:00 8.18819 C 82.4028 % 5.37 C
1720 13-01-2012 00:00:00 5.12569 C 75.8264 % 1.22 C
1721 14-01-2012 00:00:00 3.95417 C 78.8958 % 0.63 C
1722 15-01-2012 00:00:00 -0.23715 C 94.8993 % -0.95 C
1723 16-01-2012 00:00:00 -1.80312 C 94.0521 % -2.63 C
1724 17-01-2012 00:00:00 -2.78368 C 92.5069 % -3.83 C
1725 18-01-2012 00:00:00 -0.12708 C 89.9653 % -1.57 C
Sensor: Nr:Datum:Temp:Feuchte:Taupunkt:
Aussen-T/F 1726 19-01-2012 00:00:00 6.67639 C 90.1007 % 5.17 C
1727 20-01-2012 00:00:00 4.025 C 86.9236 % 2.05 C
1728 21-01-2012 00:00:00 5.73681 C 89.5382 % 4.15 C
1729 22-01-2012 00:00:00 6.85764 C 76.0660 % 2.94 C
1730 23-01-2012 00:00:00 5.22708 C 82.6806 % 2.53 C
1731 24-01-2012 00:00:00 3.1191 C 90.7222 % 1.75 C
1732 25-01-2012 00:00:00 0.47708 C 94.7813 % -0.26 C
1733 26-01-2012 00:00:00 1.84132 C 84.3368 % -0.51 C
1734 27-01-2012 00:00:00 2.58437 C 92.0104 % 1.42 C
1735 28-01-2012 00:00:00 2.69896 C 87.8090 % 0.89 C
1736 29-01-2012 00:00:00 0.84583 C 81.3299 % -1.98 C
1737 30-01-2012 00:00:00 -0.00208 C 80.3854 % -2.97 C
1738 31-01-2012 00:00:00 -1.90972 C 70.0243 % -6.64 C
1739 01-02-2012 00:00:00 -5.28403 C 61.1667 % -11.58 C
1740 02-02-2012 00:00:00 -7.12396 C 51.7535 % -15.35 C
1741 03-02-2012 00:00:00 -8.52361 C 68.2153 % -13.32 C
1742 04-02-2012 00:00:00 -8.31389 C 77.7396 % -11.5 C
1743 05-02-2012 00:00:00 -9.04861 C 72.3715 % -13.1 C
1744 06-02-2012 00:00:00 -9.67674 C 69.6979 % -14.16 C
1745 07-02-2012 00:00:00 -9.19832 C 69.3067 % -13.77 C
1746 08-02-2012 00:00:00 -5.57083 C 72.6528 % -9.69 C
1747 09-02-2012 00:00:00 -7.39479 C 86.5868 % -9.24 C
1748 10-02-2012 00:00:00 -6.11875 C 75.6354 % -9.71 C
1749 11-02-2012 00:00:00 -8.24931 C 70.5451 % -12.64 C
1750 12-02-2012 00:00:00 -6.58063 C 72.4466 % -10.7 C
Sensor: Nr:Datum:Temp:Feuchte:Taupunkt:
Aussen-T/F 1751 13-02-2012 00:00:00 -0.88993 C 82.6458 % -3.46 C
1752 14-02-2012 00:00:00 1.59931 C 93.4410 % 0.66 C
1753 15-02-2012 00:00:00 3.97674 C 86.0694 % 1.86 C
1754 16-02-2012 00:00:00 3.54896 C 91.1875 % 2.25 C
1755 17-02-2012 00:00:00 5.57917 C 87.8576 % 3.73 C
1756 18-02-2012 00:00:00 6.37083 C 88.0556 % 4.54 C
1757 19-02-2012 00:00:00 2.99271 C 87.9861 % 1.2 C
1758 20-02-2012 00:00:00 1.18333 C 84.9583 % -1.06 C
1759 21-02-2012 00:00:00 1.84583 C 78.4063 % -1.5 C
1760 22-02-2012 00:00:00 3.17951 C 81.1493 % 0.27 C
1761 23-02-2012 00:00:00 6.17352 C 81.6864 % 3.28 C
1762 24-02-2012 00:00:00 9.38101 C 86.6938 % 7.28 C
1763 25-02-2012 00:00:00 8.6186 C 80.9439 % 5.54 C
1764 26-02-2012 00:00:00 5.29167 C 88.4757 % 3.55 C
1765 27-02-2012 00:00:00 5.81944 C 83.3333 % 3.22 C
1766 28-02-2012 00:00:00 8.57639 C 85.4861 % 6.28 C
1767 29-02-2012 00:00:00 9.49583 C 92.3403 % 8.32 C
1768 01-03-2012 00:00:00 9.01563 C 93.6979 % 8.06 C
1769 02-03-2012 00:00:00 8.57986 C 92.6771 % 7.46 C
1770 03-03-2012 00:00:00 7.91597 C 90.3438 % 6.43 C
1771 04-03-2012 00:00:00 8.65625 C 81.6354 % 5.7 C
1772 05-03-2012 00:00:00 5.81597 C 77.6597 % 2.22 C
1773 06-03-2012 00:00:00 5.43924 C 73.2222 % 1.04 C
1774 07-03-2012 00:00:00 2.91784 C 81.1970 % 0.02 C
1775 08-03-2012 00:00:00 5.35833 C 80.5347 % 2.29 C
Sensor: Nr:Datum:Temp:Feuchte:Taupunkt:
Aussen-T/F 1776 09-03-2012 00:00:00 4.88437 C 78.4410 % 1.46 C
1777 10-03-2012 00:00:00 8.58723 C 78.8759 % 5.14 C
1778 11-03-2012 00:00:00 9.26151 C 82.9496 % 6.52 C
1779 12-03-2012 00:00:00 8.06347 C 86.5240 % 5.96 C
1780 13-03-2012 00:00:00 7.68299 C 83.6458 % 5.1 C
1781 14-03-2012 00:00:00 6.93542 C 78.8819 % 3.53 C
1782 15-03-2012 00:00:00 7.07812 C 79.2431 % 3.73 C
1783 16-03-2012 00:00:00 10.0412 C 69.7077 % 4.77 C
1784 17-03-2012 00:00:00 9.42917 C 75.0799 % 5.24 C
1785 18-03-2012 00:00:00 8.64931 C 83.8368 % 6.07 C
1786 19-03-2012 00:00:00 7.34303 C 72.1270 % 2.66 C
1787 20-03-2012 00:00:00 6.68807 C 68.1687 % 1.25 C
1788 21-03-2012 00:00:00 7.73902 C 69.3206 % 2.49 C
1789 22-03-2012 00:00:00 10.04583 C 71.3403 % 5.1 C
1790 23-03-2012 00:00:00 11.69132 C 71.9826 % 6.82 C
1791 24-03-2012 00:00:00 11.62674 C 70.9132 % 6.54 C
1792 25-03-2012 00:00:00 12.80873 C 62.8291 % 5.91 C
1793 26-03-2012 00:00:00 11.16806 C 58.5764 % 3.36 C
1794 27-03-2012 00:00:00 11.10694 C 65.9826 % 5 C
1795 28-03-2012 00:00:00 11.74201 C 67.7188 % 5.98 C
1796 29-03-2012 00:00:00 9.58194 C 71.1354 % 4.62 C
1797 30-03-2012 00:00:00 9.39062 C 79.1701 % 5.97 C
1798 31-03-2012 00:00:00 7.98706 C 76.3042 % 4.08 C
1799 01-04-2012 00:00:00 4.77396 C 63.6736 % -1.51 C
1800 02-04-2012 00:00:00 6.69514 C 71.1493 % 1.85 C
Sensor: Nr:Datum:Temp:Feuchte:Taupunkt:
Aussen-T/F 1801 03-04-2012 00:00:00 11.08125 C 62.9931 % 4.31 C
1802 04-04-2012 00:00:00 9.89722 C 82.2743 % 7.02 C
1803 05-04-2012 00:00:00 7.74514 C 80.8958 % 4.68 C
1804 06-04-2012 00:00:00 7.88292 C 67.6655 % 2.28 C
1805 07-04-2012 00:00:00 5.61389 C 72.7882 % 1.13 C
1806 08-04-2012 00:00:00 5.19194 C 54.1941 % -3.29 C
1807 09-04-2012 00:00:00 7.24583 C 83.3264 % 4.61 C
1808 10-04-2012 00:00:00 11.25451 C 77.8646 % 7.54 C
1809 11-04-2012 00:00:00 9.71215 C 72.8056 % 5.08 C
1810 12-04-2012 00:00:00 6.41736 C 84.4444 % 3.99 C
1811 13-04-2012 00:00:00 6.76632 C 81.2847 % 3.79 C
1812 14-04-2012 00:00:00 7.83021 C 71.5486 % 3.02 C
1813 15-04-2012 00:00:00 8.52361 C 73.9826 % 4.16 C
1814 16-04-2012 00:00:00 5.92438 C 63.9835 % -0.36 C
1815 17-04-2012 00:00:00 5.90382 C 59.8090 % -1.3 C
1816 18-04-2012 00:00:00 8.72674 C 72.5451 % 4.08 C
1817 19-04-2012 00:00:00 8.47422 C 80.8084 % 5.37 C
1818 20-04-2012 00:00:00 7.34574 C 84.4529 % 4.9 C
1819 21-04-2012 00:00:00 8.16701 C 81.3229 % 5.16 C
1820 22-04-2012 00:00:00 7.84306 C 80.2049 % 4.65 C
1821 23-04-2012 00:00:00 8.39097 C 79.6389 % 5.08 C
1822 24-04-2012 00:00:00 8.89757 C 84.6181 % 6.45 C
1823 25-04-2012 00:00:00 10.14167 C 78.2292 % 6.53 C
1824 26-04-2012 00:00:00 11.47083 C 79.8958 % 8.13 C
1825 27-04-2012 00:00:00 12.5625 C 82.5104 % 9.67 C
Sensor: Nr:Datum:Temp:Feuchte:Taupunkt:
Aussen-T/F 1826 28-04-2012 00:00:00 18.10903 C 72.5139 % 13.09 C
1827 29-04-2012 00:00:00 16.89826 C 73.1979 % 12.07 C
1828 30-04-2012 00:00:00 17.93194 C 63.6007 % 10.94 C
1829 01-05-2012 00:00:00 17.12465 C 71.7708 % 11.99 C
1830 02-05-2012 00:00:00 15.24479 C 86.9549 % 13.09 C
1831 03-05-2012 00:00:00 13.43472 C 77.5035 % 9.59 C
1832 04-05-2012 00:00:00 14.57083 C 73.6806 % 9.93 C
1833 05-05-2012 00:00:00 11.45069 C 92.9271 % 10.35 C
1834 06-05-2012 00:00:00 10.57674 C 92.8021 % 9.46 C
1835 07-05-2012 00:00:00 10.38681 C 83.5556 % 7.73 C
1836 08-05-2012 00:00:00 13.89063 C 73.1215 % 9.16 C
1837 09-05-2012 00:00:00 16.78229 C 82.0903 % 13.71 C
1838 10-05-2012 00:00:00 19.11111 C 78.7257 % 15.33 C
1839 11-05-2012 00:00:00 19.125 C 80.7014 % 15.73 C
1840 12-05-2012 00:00:00 11.31289 C 69.8188 % 6.01 C
1841 13-05-2012 00:00:00 9.38646 C 66.5382 % 3.48 C
1842 14-05-2012 00:00:00 11.40799 C 62.7778 % 4.57 C
1843 15-05-2012 00:00:00 9.5625 C 74.6979 % 5.3 C
1844 16-05-2012 00:00:00 8.66597 C 76.0417 % 4.69 C
1845 17-05-2012 00:00:00 9.38889 C 67.5799 % 3.7 C
1846 18-05-2012 00:00:00 12.68299 C 77.1667 % 8.79 C
1847 19-05-2012 00:00:00 15.71389 C 82.6667 % 12.77 C
1848 20-05-2012 00:00:00 17.6684 C 78.6076 % 13.91 C
1849 21-05-2012 00:00:00 18.52986 C 81.4410 % 15.29 C
1850 22-05-2012 00:00:00 21.31944 C 73.3576 % 16.36 C
Sensor: Nr:Datum:Temp:Feuchte:Taupunkt:
Aussen-T/F 1851 23-05-2012 00:00:00 18.79965 C 89.2743 % 17 C
1852 24-05-2012 00:00:00 20.69687 C 73.7639 % 15.85 C
1853 25-05-2012 00:00:00 19.45313 C 48.2882 % 8.25 C
1854 26-05-2012 00:00:00 18.11007 C 54.3056 % 8.75 C
1855 27-05-2012 00:00:00 18.05868 C 62.2743 % 10.74 C
1856 28-05-2012 00:00:00 18.93417 C 63.8705 % 11.95 C
1857 29-05-2012 00:00:00 18.46288 C 64.9508 % 11.76 C
1858 30-05-2012 00:00:00 17.68438 C 78.7569 % 13.95 C
1859 31-05-2012 00:00:00 16.03021 C 84.4167 % 13.4 C
1860 01-06-2012 00:00:00 15.74271 C 76.1632 % 11.56 C
1861 02-06-2012 00:00:00 15.19271 C 70.5938 % 9.89 C
1862 03-06-2012 00:00:00 12.60255 C 88.8727 % 10.82 C
1863 04-06-2012 00:00:00 13.31389 C 85.8576 % 11 C
1864 05-06-2012 00:00:00 12.15312 C 69.0486 % 6.65 C
1865 06-06-2012 00:00:00 13.09444 C 86.8056 % 10.95 C
1866 07-06-2012 00:00:00 16.45799 C 88.8576 % 14.62 C
1867 08-06-2012 00:00:00 17.34097 C 72.3854 % 12.33 C
1868 09-06-2012 00:00:00 14.79028 C 66.1215 % 8.53 C
1869 10-06-2012 00:00:00 15.29514 C 66.6736 % 9.14 C
1870 11-06-2012 00:00:00 14.57014 C 84.7083 % 12.03 C
1871 12-06-2012 00:00:00 14.40729 C 86.0764 % 12.11 C
1872 13-06-2012 00:00:00 12.57363 C 92.7692 % 11.44 C
1873 14-06-2012 00:00:00 14.15694 C 81.5104 % 11.04 C
1874 15-06-2012 00:00:00 16.11806 C 85.0833 % 13.61 C
1875 16-06-2012 00:00:00 15.40799 C 92.7326 % 14.24 C
Sensor: Nr:Datum:Temp:Feuchte:Taupunkt:
Aussen-T/F 1876 17-06-2012 00:00:00 17.28021 C 70.4549 % 11.86 C
1877 18-06-2012 00:00:00 18.57292 C 74.0694 % 13.87 C
1878 19-06-2012 00:00:00 17.44028 C 82.5590 % 14.44 C
1879 20-06-2012 00:00:00 16.35833 C 96.8785 % 15.86 C
1880 21-06-2012 00:00:00 18.41354 C 89.4583 % 16.65 C
1881 22-06-2012 00:00:00 16.36181 C 75.7083 % 12.07 C
1882 23-06-2012 00:00:00 16.63472 C 71.3924 % 11.44 C
1883 24-06-2012 00:00:00 14.73507 C 82.4306 % 11.78 C
1884 25-06-2012 00:00:00 15.09028 C 78.7917 % 11.44 C
1885 26-06-2012 00:00:00 16.43125 C 73.6111 % 11.71 C
1886 27-06-2012 00:00:00 18.07569 C 84.8264 % 15.48 C
1887 28-06-2012 00:00:00 21.87465 C 80.2743 % 18.32 C
1888 29-06-2012 00:00:00 20.49063 C 90.0868 % 18.81 C
1889 30-06-2012 00:00:00 20.14965 C 78.6563 % 16.32 C
1890 01-07-2012 00:00:00 17.98889 C 81.2882 % 14.74 C
1891 02-07-2012 00:00:00 15.24444 C 86.4826 % 13 C
1892 03-07-2012 00:00:00 18.02153 C 76.9132 % 13.91 C
1893 04-07-2012 00:00:00 19.87465 C 76.5000 % 15.62 C
1894 05-07-2012 00:00:00 19.09722 C 91.7153 % 17.72 C
1895 06-07-2012 00:00:00 19.21042 C 82.2708 % 16.11 C
1896 07-07-2012 00:00:00 19.57743 C 72.4514 % 14.49 C
1897 08-07-2012 00:00:00 17.84097 C 81.3542 % 14.6 C
1898 09-07-2012 00:00:00 18.63611 C 72.1944 % 13.53 C
1899 10-07-2012 00:00:00 19.1441 C 76.7604 % 14.97 C
1900 11-07-2012 00:00:00 16.03394 C 79.6861 % 12.53 C
Sensor: Nr:Datum:Temp:Feuchte:Taupunkt:
Aussen-T/F 1901 12-07-2012 00:00:00 14.8191 C 77.8715 % 11 C
1902 13-07-2012 00:00:00 15.50417 C 89.5694 % 13.8 C
1903 14-07-2012 00:00:00 15.27708 C 87.8125 % 13.27 C
1904 15-07-2012 00:00:00 14.52014 C 86.8542 % 12.36 C
1905 16-07-2012 00:00:00 15.02292 C 79.1840 % 11.45 C
1906 17-07-2012 00:00:00 17.55035 C 76.7431 % 13.42 C
1907 18-07-2012 00:00:00 19.89649 C 72.5088 % 14.81 C
1908 19-07-2012 00:00:00 18.18194 C 70.2743 % 12.68 C
1909 20-07-2012 00:00:00 14.85872 C 85.6406 % 12.48 C
1910 21-07-2012 00:00:00 15.04167 C 80.6493 % 11.74 C
1911 22-07-2012 00:00:00 14.62049 C 74.5139 % 10.15 C
1912 23-07-2012 00:00:00 17.15069 C 68.0972 % 11.22 C
1913 24-07-2012 00:00:00 19.81701 C 70.4826 % 14.3 C
1914 25-07-2012 00:00:00 22.11408 C 72.7218 % 16.99 C
1915 26-07-2012 00:00:00 23.10764 C 73.2326 % 18.05 C
1916 27-07-2012 00:00:00 22.2566 C 82.8021 % 19.19 C
1917 28-07-2012 00:00:00 19.03507 C 92.5660 % 17.8 C
1918 29-07-2012 00:00:00 17.61875 C 75.5799 % 13.26 C
1919 30-07-2012 00:00:00 16.17396 C 70.1250 % 10.73 C
1920 31-07-2012 00:00:00 16.33993 C 79.2778 % 12.75 C
1921 01-08-2012 00:00:00 20.08194 C 75.0521 % 15.52 C
1922 02-08-2012 00:00:00 20.75938 C 75.0938 % 16.19 C
1923 03-08-2012 00:00:00 19.31771 C 71.6042 % 14.06 C
1924 04-08-2012 00:00:00 19.1 C 71.9653 % 13.93 C
1925 05-08-2012 00:00:00 19.0875 C 83.3889 % 16.21 C
Sensor: Nr:Datum:Temp:Feuchte:Taupunkt:
Aussen-T/F 1926 06-08-2012 00:00:00 18.40312 C 78.4965 % 14.6 C
1927 07-08-2012 00:00:00 17.15556 C 73.1701 % 12.31 C
1928 08-08-2012 00:00:00 16.59132 C 79.3229 % 13 C
1929 09-08-2012 00:00:00 18.49479 C 77.0868 % 14.41 C
1930 10-08-2012 00:00:00 17.33299 C 71.4028 % 12.11 C
1931 11-08-2012 00:00:00 16.29444 C 73.2604 % 11.5 C
1932 12-08-2012 00:00:00 17.40486 C 68.6181 % 11.58 C
1933 13-08-2012 00:00:00 18.22326 C 73.1944 % 13.35 C
1934 14-08-2012 00:00:00 19.78993 C 79.0521 % 16.05 C
1935 15-08-2012 00:00:00 22.31354 C 70.9549 % 16.79 C
1936 16-08-2012 00:00:00 21.27535 C 67.3125 % 14.97 C
1937 17-08-2012 00:00:00 20.12986 C 70.1146 % 14.51 C
1938 18-08-2012 00:00:00 23.0066 C 67.4271 % 16.65 C
1939 19-08-2012 00:00:00 24.67083 C 69.9722 % 18.82 C
1940 20-08-2012 00:00:00 23.43229 C 80.3090 % 19.84 C
1941 21-08-2012 00:00:00 22.6875 C 81.6771 % 19.39 C
1942 22-08-2012 00:00:00 20.95729 C 64.6042 % 14.04 C
1943 23-08-2012 00:00:00 17.78194 C 65.1285 % 11.15 C
1944 24-08-2012 00:00:00 18.62842 C 81.4105 % 15.38 C
1945 25-08-2012 00:00:00 18.46493 C 78.6458 % 14.69 C
1946 26-08-2012 00:00:00 16.26667 C 78.3021 % 12.49 C
1947 27-08-2012 00:00:00 16.32049 C 79.0486 % 12.68 C
1948 28-08-2012 00:00:00 18.03507 C 74.6076 % 13.46 C
1949 29-08-2012 00:00:00 20.02396 C 77.5486 % 15.98 C
1950 30-08-2012 00:00:00 17.48889 C 81.0208 % 14.2 C
Sensor: Nr:Datum:Temp:Feuchte:Taupunkt:
Aussen-T/F 1951 31-08-2012 00:00:00 13.93646 C 84.9132 % 11.44 C
1952 01-09-2012 00:00:00 14.49236 C 76.3785 % 10.39 C
1953 02-09-2012 00:00:00 13.96285 C 82.2604 % 10.99 C
1954 03-09-2012 00:00:00 16.22222 C 79.7535 % 12.72 C
1955 04-09-2012 00:00:00 16.86098 C 82.0105 % 13.77 C
1956 05-09-2012 00:00:00 16.4125 C 79.7500 % 12.91 C
1957 06-09-2012 00:00:00 14.63604 C 70.9187 % 9.42 C
1958 07-09-2012 00:00:00 14.4309 C 73.8368 % 9.83 C
1959 08-09-2012 00:00:00 16.83403 C 70.1076 % 11.36 C
1960 09-09-2012 00:00:00 18.54722 C 68.1563 % 12.57 C
1961 10-09-2012 00:00:00 19.67847 C 67.2465 % 13.44 C
1962 11-09-2012 00:00:00 17.74028 C 83.6910 % 14.95 C
1963 12-09-2012 00:00:00 11.13646 C 93.3750 % 10.11 C
1964 13-09-2012 00:00:00 10.78611 C 90.3368 % 9.27 C
1965 14-09-2012 00:00:00 13.01424 C 83.7639 % 10.33 C
1966 15-09-2012 00:00:00 13.44514 C 88.4410 % 11.57 C
1967 16-09-2012 00:00:00 13.24236 C 85.5903 % 10.88 C
1968 17-09-2012 00:00:00 15.15729 C 83.0208 % 12.3 C
1969 18-09-2012 00:00:00 14.10868 C 84.2188 % 11.49 C
1970 19-09-2012 00:00:00 11.7684 C 70.2292 % 6.53 C
1971 20-09-2012 00:00:00 9.9566 C 72.9271 % 5.33 C
1972 21-09-2012 00:00:00 10.62118 C 79.5069 % 7.23 C
1973 22-09-2012 00:00:00 11.53611 C 80.2917 % 8.26 C
1974 23-09-2012 00:00:00 11.58819 C 78.6007 % 8 C
1975 24-09-2012 00:00:00 14.89201 C 84.5486 % 12.31 C
Sensor: Nr:Datum:Temp:Feuchte:Taupunkt:
Aussen-T/F 1976 25-09-2012 00:00:00 12.86597 C 88.1563 % 10.96 C
1977 26-09-2012 00:00:00 12.27917 C 95.0382 % 11.51 C
1978 27-09-2012 00:00:00 12.68611 C 88.7257 % 10.88 C
1979 28-09-2012 00:00:00 12.56701 C 85.9757 % 10.29 C
1980 29-09-2012 00:00:00 11.68819 C 84.0382 % 9.08 C
1981 30-09-2012 00:00:00 9.30035 C 89.3681 % 7.64 C
1982 01-10-2012 00:00:00 9.46319 C 85.2118 % 7.11 C
1983 02-10-2012 00:00:00 12.25764 C 84.6736 % 9.75 C
1984 03-10-2012 00:00:00 14.55312 C 82.0139 % 11.52 C
1985 04-10-2012 00:00:00 12.89722 C 83.2569 % 10.13 C
1986 05-10-2012 00:00:00 13.57986 C 85.1285 % 11.13 C
1987 06-10-2012 00:00:00 14.99065 C 84.0244 % 12.32 C
1988 07-10-2012 00:00:00 10.63669 C 85.8058 % 8.36 C
1989 08-10-2012 00:00:00 8.1958 C 91.4790 % 6.89 C
1990 09-10-2012 00:00:00 10.60348 C 82.4776 % 7.75 C
1991 10-10-2012 00:00:00 6.21146 C 91.4826 % 4.93 C
1992 11-10-2012 00:00:00 6.67361 C 92.2431 % 5.51 C
1993 12-10-2012 00:00:00 10.79653 C 89.9479 % 9.22 C
1994 13-10-2012 00:00:00 9.08472 C 85.8854 % 6.85 C
1995 14-10-2012 00:00:00 8.15833 C 90.5868 % 6.71 C
1996 15-10-2012 00:00:00 7.43264 C 92.8646 % 6.36 C
1997 16-10-2012 00:00:00 7.85556 C 89.7188 % 6.27 C
1998 17-10-2012 00:00:00 10.85972 C 90.2361 % 9.33 C
1999 18-10-2012 00:00:00 14.37569 C 85.3924 % 11.96 C
2000 19-10-2012 00:00:00 14.37187 C 89.1111 % 12.6 C
Sensor: Nr:Datum:Temp:Feuchte:Taupunkt:
Aussen-T/F 2001 20-10-2012 00:00:00 13.74722 C 92.9722 % 12.63 C
2002 21-10-2012 00:00:00 13.32917 C 93.7014 % 12.34 C
2003 22-10-2012 00:00:00 11.79062 C 93.9931 % 10.86 C
2004 23-10-2012 00:00:00 11.38403 C 87.8194 % 9.44 C
2005 24-10-2012 00:00:00 9.71528 C 91.8819 % 8.46 C
2006 25-10-2012 00:00:00 9.9441 C 92.9271 % 8.85 C
2007 26-10-2012 00:00:00 6.73542 C 93.3472 % 5.74 C
2008 27-10-2012 00:00:00 2.98993 C 78.3160 % -0.41 C
2009 28-10-2012 00:00:00 0.51181 C 90.1007 % -0.92 C
2010 29-10-2012 00:00:00 0.69306 C 92.2292 % -0.42 C
2011 30-10-2012 00:00:00 6.0566 C 90.8507 % 4.68 C
2012 31-10-2012 00:00:00 5.97118 C 91.2778 % 4.66 C
2013 01-11-2012 00:00:00 7.64965 C 85.8819 % 5.44 C
2014 02-11-2012 00:00:00 7.75417 C 81.4132 % 4.78 C
2015 03-11-2012 00:00:00 7.38542 C 94.0104 % 6.49 C
2016 04-11-2012 00:00:00 7.74028 C 92.3472 % 6.58 C
2017 05-11-2012 00:00:00 8.00382 C 84.4444 % 5.55 C
2018 06-11-2012 00:00:00 6.03264 C 87.7708 % 4.16 C
2019 07-11-2012 00:00:00 8.52535 C 86.8021 % 6.46 C
2020 08-11-2012 00:00:00 8.82222 C 80.7188 % 5.7 C
2021 09-11-2012 00:00:00 8.19861 C 83.9444 % 5.65 C
2022 10-11-2012 00:00:00 8.89201 C 93.0243 % 7.83 C
2023 11-11-2012 00:00:00 8.24097 C 92.3333 % 7.07 C
2024 12-11-2012 00:00:00 5.70868 C 88.6701 % 3.99 C
2025 13-11-2012 00:00:00 3.26076 C 94.2639 % 2.43 C
Sensor: Nr:Datum:Temp:Feuchte:Taupunkt:
Aussen-T/F 2026 14-11-2012 00:00:00 2.60312 C 94.3438 % 1.79 C
2027 15-11-2012 00:00:00 4.53958 C 88.2361 % 2.77 C
2028 16-11-2012 00:00:00 3.22222 C 87.5313 % 1.36 C
2029 17-11-2012 00:00:00 4.33472 C 93.4931 % 3.38 C
2030 18-11-2012 00:00:00 7.54896 C 95.9792 % 6.95 C
2031 19-11-2012 00:00:00 7.68403 C 95.0035 % 6.94 C
2032 20-11-2012 00:00:00 5.27188 C 93.6215 % 4.33 C
2033 21-11-2012 00:00:00 4.38681 C 91.7778 % 3.17 C
2034 22-11-2012 00:00:00 5.51111 C 94.8819 % 4.76 C
2035 23-11-2012 00:00:00 6.88472 C 93.0660 % 5.84 C
2036 24-11-2012 00:00:00 9.16042 C 89.4167 % 7.51 C
2037 25-11-2012 00:00:00 10.6066 C 72.8889 % 5.95 C
2038 26-11-2012 00:00:00 6.01493 C 95.3368 % 5.33 C
2039 27-11-2012 00:00:00 7.67986 C 89.1875 % 6.02 C
2040 28-11-2012 00:00:00 5.5184 C 91.1563 % 4.19 C
2041 29-11-2012 00:00:00 4.01319 C 86.8021 % 2.02 C
2042 30-11-2012 00:00:00 1.44375 C 93.9375 % 0.58 C
2043 01-12-2012 00:00:00 -0.39861 C 93.9271 % -1.25 C
2044 02-12-2012 00:00:00 2.39375 C 89.5035 % 0.85 C
2045 03-12-2012 00:00:00 2.27222 C 89.5486 % 0.74 C
2046 04-12-2012 00:00:00 3.75312 C 89.4653 % 2.18 C
2047 05-12-2012 00:00:00 2.86667 C 90.6389 % 1.49 C
2048 06-12-2012 00:00:00 0.5625 C 84.7813 % -1.7 C
2049 07-12-2012 00:00:00 -1.00382 C 91.2500 % -2.25 C
2050 08-12-2012 00:00:00 -4.66111 C 93.4826 % -5.55 C
Sensor: Nr:Datum:Temp:Feuchte:Taupunkt:
Aussen-T/F 2051 09-12-2012 00:00:00 0.22326 C 90.9479 % -1.08 C
2052 10-12-2012 00:00:00 2.70764 C 86.9965 % 0.77 C
2053 11-12-2012 00:00:00 -0.72396 C 86.9514 % -2.62 C
2054 12-12-2012 00:00:00 -3.40937 C 85.1563 % -5.54 C
2055 13-12-2012 00:00:00 -3.53646 C 88.4896 % -5.16 C
2056 14-12-2012 00:00:00 2.76076 C 92.6389 % 1.69 C
2057 15-12-2012 00:00:00 6.97153 C 92.2500 % 5.8 C
2058 16-12-2012 00:00:00 6.60868 C 91.0278 % 5.25 C
2059 17-12-2012 00:00:00 6.04792 C 93.6910 % 5.11 C
2060 18-12-2012 00:00:00 5.04583 C 93.1146 % 4.03 C
2061 19-12-2012 00:00:00 3.47361 C 96.2708 % 2.94 C
2062 20-12-2012 00:00:00 1.32396 C 93.7708 % 0.43 C
2063 21-12-2012 00:00:00 3.19236 C 97.7708 % 2.87 C
2064 22-12-2012 00:00:00 6.1691 C 95.2361 % 5.47 C
2065 23-12-2012 00:00:00 11.85 C 90.7014 % 10.38 C
2066 24-12-2012 00:00:00 11.08715 C 83.9306 % 8.48 C
2067 25-12-2012 00:00:00 9.61181 C 81.7431 % 6.65 C
2068 26-12-2012 00:00:00 8.15278 C 84.2465 % 5.66 C
2069 27-12-2012 00:00:00 7.84757 C 87.0868 % 5.84 C
2070 28-12-2012 00:00:00 6.19479 C 93.6806 % 5.25 C
2071 29-12-2012 00:00:00 8.19931 C 92.4514 % 7.05 C
2072 30-12-2012 00:00:00 8.44618 C 76.8021 % 4.62 C
2073 31-12-2012 00:00:00 8.92569 C 76.6319 % 5.05 C
2074 01-01-2013 00:00:00 6.59132 C 85.2465 % 4.3 C
2075 02-01-2013 00:00:00 4.69861 C 86.2326 % 2.6 C
Sensor: Nr:Datum:Temp:Feuchte:Taupunkt:
Aussen-T/F 2076 03-01-2013 00:00:00 7.62951 C 90.5069 % 6.18 C
2077 04-01-2013 00:00:00 9.87292 C 91.9063 % 8.62 C
2078 05-01-2013 00:00:00 7.8816 C 90.6528 % 6.45 C
2079 06-01-2013 00:00:00 8.15069 C 89.3438 % 6.51 C
2080 07-01-2013 00:00:00 7.30764 C 88.5938 % 5.55 C
2081 08-01-2013 00:00:00 6.15417 C 86.4549 % 4.07 C
2082 09-01-2013 00:00:00 4.72465 C 87.9271 % 2.9 C
2083 10-01-2013 00:00:00 4.44028 C 90.6840 % 3.05 C
2084 11-01-2013 00:00:00 1.09201 C 80.8958 % -1.81 C
2085 12-01-2013 00:00:00 -2.64514 C 86.8611 % -4.53 C
2086 13-01-2013 00:00:00 -3.28368 C 83.3715 % -5.69 C
2087 14-01-2013 00:00:00 -4.44028 C 89.7431 % -5.87 C
2088 15-01-2013 00:00:00 -2.1941 C 89.2222 % -3.72 C
2089 16-01-2013 00:00:00 -2.65521 C 90.0208 % -4.06 C
2090 17-01-2013 00:00:00 -2.48542 C 88.3472 % -4.14 C
2091 18-01-2013 00:00:00 -1.70729 C 86.0417 % -3.73 C
2092 19-01-2013 00:00:00 -2.39375 C 81.1181 % -5.18 C
2093 20-01-2013 00:00:00 -3.06146 C 87.3229 % -4.87 C
2094 21-01-2013 00:00:00 -0.75938 C 92.5590 % -1.81 C
2095 22-01-2013 00:00:00 -1.20382 C 91.8194 % -2.36 C
2096 23-01-2013 00:00:00 -1.0566 C 91.6736 % -2.24 C
2097 24-01-2013 00:00:00 -2.40833 C 86.2639 % -4.38 C
2098 25-01-2013 00:00:00 -2.18368 C 84.2292 % -4.48 C
2099 26-01-2013 00:00:00 -1.99549 C 84.4306 % -4.26 C
2100 27-01-2013 00:00:00 2.22882 C 88.1528 % 0.48 C
Sensor: Nr:Datum:Temp:Feuchte:Taupunkt:
Aussen-T/F 2101 28-01-2013 00:00:00 3.96389 C 87.7361 % 2.12 C
2102 29-01-2013 00:00:00 9.00868 C 87.2743 % 7.01 C
2103 30-01-2013 00:00:00 11.32361 C 82.5660 % 8.47 C
2104 31-01-2013 00:00:00 7.765 C 75.5864 % 3.73 C
2105 01-02-2013 00:00:00 6.26378 C 91.9921 % 5.06 C
2106 02-02-2013 00:00:00 3.24097 C 87.7743 % 1.41 C
2107 03-02-2013 00:00:00 3.41458 C 84.2292 % 1.01 C
2108 04-02-2013 00:00:00 5.84792 C 89.4167 % 4.24 C
2109 05-02-2013 00:00:00 4.44583 C 78.9896 % 1.13 C
2110 06-02-2013 00:00:00 1.58819 C 91.4306 % 0.35 C
2111 07-02-2013 00:00:00 1.88576 C 90.5625 % 0.51 C
2112 08-02-2013 00:00:00 0.56424 C 91.6042 % -0.64 C
2113 09-02-2013 00:00:00 -0.7941 C 88.5694 % -2.44 C
2114 10-02-2013 00:00:00 -1.98681 C 82.7569 % -4.52 C
2115 11-02-2013 00:00:00 -0.9316 C 70.8750 % -5.54 C
2116 12-02-2013 00:00:00 -0.84618 C 72.2569 % -5.2 C
2117 13-02-2013 00:00:00 -0.98125 C 73.6458 % -5.08 C
2118 14-02-2013 00:00:00 -2.40382 C 83.6806 % -4.78 C
2119 15-02-2013 00:00:00 0.91806 C 93.3993 % -0.02 C
2120 16-02-2013 00:00:00 2.92847 C 95.7014 % 2.31 C
2121 17-02-2013 00:00:00 2.97465 C 92.8229 % 1.93 C
2122 18-02-2013 00:00:00 0.52847 C 89.7049 % -0.96 C
2123 19-02-2013 00:00:00 0.79306 C 91.9375 % -0.36 C
2124 20-02-2013 00:00:00 0.4316 C 79.5799 % -2.68 C
2125 21-02-2013 00:00:00 -1.21979 C 76.7188 % -4.77 C
Sensor: Nr:Datum:Temp:Feuchte:Taupunkt:
Aussen-T/F 2126 22-02-2013 00:00:00 -2.3066 C 72.8819 % -6.5 C
2127 23-02-2013 00:00:00 -2.80139 C 85.8924 % -4.83 C
2128 24-02-2013 00:00:00 -0.43958 C 90.7604 % -1.76 C
2129 25-02-2013 00:00:00 0.88785 C 95.9375 % 0.32 C
2130 26-02-2013 00:00:00 2.31215 C 94.4792 % 1.52 C
2131 27-02-2013 00:00:00 1.69271 C 89.6667 % 0.18 C
2132 28-02-2013 00:00:00 2.41771 C 88.3368 % 0.69 C
2133 01-03-2013 00:00:00 2.75278 C 82.7014 % 0.11 C
2134 02-03-2013 00:00:00 2.60208 C 75.2674 % -1.32 C
2135 03-03-2013 00:00:00 1.90104 C 84.2535 % -0.47 C
2136 04-03-2013 00:00:00 1.8934 C 82.4444 % -0.77 C
2137 05-03-2013 00:00:00 2.56979 C 83.8611 % 0.12 C
2138 06-03-2013 00:00:00 5.45035 C 78.0139 % 1.93 C
2139 07-03-2013 00:00:00 8.96146 C 79.3646 % 5.59 C
2140 08-03-2013 00:00:00 10.92049 C 83.9063 % 8.31 C
2141 09-03-2013 00:00:00 10.42118 C 84.5660 % 7.94 C
2142 10-03-2013 00:00:00 3.88611 C 90.5799 % 2.49 C
2143 11-03-2013 00:00:00 -0.5191 C 89.0764 % -2.09 C
2144 12-03-2013 00:00:00 -2.72153 C 90.2674 % -4.09 C
2145 13-03-2013 00:00:00 -2.95907 C 81.1566 % -5.73 C
2146 14-03-2013 00:00:00 -1.88944 C 86.0493 % -3.91 C
2147 15-03-2013 00:00:00 -2.50139 C 79.4063 % -5.57 C
2148 16-03-2013 00:00:00 2.40938 C 66.0729 % -3.26 C
2149 17-03-2013 00:00:00 3.22014 C 86.2431 % 1.15 C
2150 18-03-2013 00:00:00 4.14479 C 82.4410 % 1.43 C
Sensor: Nr:Datum:Temp:Feuchte:Taupunkt:
Aussen-T/F 2151 19-03-2013 00:00:00 4.10313 C 82.7500 % 1.44 C
2152 20-03-2013 00:00:00 3.59201 C 90.7639 % 2.23 C
2153 21-03-2013 00:00:00 1.33993 C 86.7153 % -0.62 C
2154 22-03-2013 00:00:00 1.7441 C 78.1840 % -1.64 C
2155 23-03-2013 00:00:00 1.46875 C 67.2951 % -3.92 C
2156 24-03-2013 00:00:00 0.48854 C 50.8924 % -8.48 C
2157 25-03-2013 00:00:00 0.18681 C 56.3854 % -7.45 C
2158 26-03-2013 00:00:00 0.3309 C 54.9167 % -7.65 C
2159 27-03-2013 00:00:00 1.19896 C 57.4340 % -6.26 C
2160 28-03-2013 00:00:00 2.07639 C 68.6563 % -3.07 C
2161 29-03-2013 00:00:00 0.53715 C 86.8750 % -1.39 C
2162 30-03-2013 00:00:00 1.50903 C 75.2361 % -2.39 C
2163 31-03-2013 00:00:00 1.17246 C 77.9094 % -2.24 C
2164 01-04-2013 00:00:00 1.44201 C 69.0382 % -3.6 C
2165 02-04-2013 00:00:00 2.12708 C 62.2396 % -4.33 C
2166 03-04-2013 00:00:00 1.88194 C 70.0521 % -2.99 C
2167 04-04-2013 00:00:00 3.97465 C 65.6701 % -1.85 C
2168 05-04-2013 00:00:00 2.45382 C 75.3299 % -1.46 C
2169 06-04-2013 00:00:00 3.55104 C 83.4028 % 1.01 C
2170 07-04-2013 00:00:00 3.40382 C 71.6181 % -1.23 C
2171 08-04-2013 00:00:00 4.46979 C 71.6076 % -0.2 C
2172 09-04-2013 00:00:00 5.89479 C 88.8681 % 4.2 C
2173 10-04-2013 00:00:00 8.34653 C 86.5139 % 6.23 C
2174 11-04-2013 00:00:00 12.25972 C 76.2674 % 8.21 C
2175 12-04-2013 00:00:00 10.42708 C 83.9722 % 7.84 C
Sensor: Nr:Datum:Temp:Feuchte:Taupunkt:
Aussen-T/F 2176 13-04-2013 00:00:00 11.30243 C 70.4826 % 6.14 C
2177 14-04-2013 00:00:00 15.49271 C 69.5903 % 9.96 C
2178 15-04-2013 00:00:00 15.52118 C 73.4931 % 10.81 C
2179 16-04-2013 00:00:00 16.01215 C 73.3854 % 11.26 C
2180 17-04-2013 00:00:00 17.14167 C 64.9028 % 10.49 C
2181 18-04-2013 00:00:00 15.57153 C 62.1528 % 8.36 C
2182 19-04-2013 00:00:00 11.46389 C 56.8333 % 3.21 C
2183 20-04-2013 00:00:00 10.16944 C 61.6736 % 3.15 C
2184 21-04-2013 00:00:00 10.71389 C 59.7014 % 3.21 C
2185 22-04-2013 00:00:00 12.26562 C 60.0069 % 4.74 C
2186 23-04-2013 00:00:00 12.48924 C 62.8681 % 5.62 C
2187 24-04-2013 00:00:00 14.60278 C 69.3472 % 9.06 C
2188 25-04-2013 00:00:00 17.28958 C 64.4965 % 10.54 C
2189 26-04-2013 00:00:00 12.59896 C 84.6528 % 10.09 C
2190 27-04-2013 00:00:00 6.70972 C 88.6111 % 4.97 C
2191 28-04-2013 00:00:00 7.57118 C 83.3438 % 4.93 C
2192 29-04-2013 00:00:00 11.20139 C 67.0556 % 5.32 C
2193 30-04-2013 00:00:00 9.40104 C 78.5139 % 5.86 C
2194 01-05-2013 00:00:00 12.25 C 80.0972 % 8.92 C
2195 02-05-2013 00:00:00 15.26458 C 71.7535 % 10.2 C
2196 03-05-2013 00:00:00 14.28056 C 76.8472 % 10.28 C
2197 04-05-2013 00:00:00 15.30521 C 68.4132 % 9.53 C
2198 05-05-2013 00:00:00 14.71458 C 67.0556 % 8.67 C
2199 06-05-2013 00:00:00 15.4691 C 70.1458 % 10.06 C
2200 07-05-2013 00:00:00 14.47708 C 86.2465 % 12.21 C
Sensor: Nr:Datum:Temp:Feuchte:Taupunkt:
Aussen-T/F 2201 08-05-2013 00:00:00 15.69062 C 80.7188 % 12.39 C
2202 09-05-2013 00:00:00 16.1566 C 79.2674 % 12.57 C
2203 10-05-2013 00:00:00 13.28785 C 70.3924 % 8.02 C
2204 11-05-2013 00:00:00 12.72431 C 79.9549 % 9.36 C
2205 12-05-2013 00:00:00 9.44583 C 87.2049 % 7.43 C
2206 13-05-2013 00:00:00 11.19688 C 87.3056 % 9.17 C
2207 14-05-2013 00:00:00 12.63125 C 81.3576 % 9.53 C
2208 15-05-2013 00:00:00 13.05694 C 84.4688 % 10.5 C
2209 16-05-2013 00:00:00 13.25521 C 93.0174 % 12.15 C
2210 17-05-2013 00:00:00 10.33125 C 94.0278 % 9.41 C
2211 18-05-2013 00:00:00 13.12118 C 83.2813 % 10.35 C
2212 19-05-2013 00:00:00 13.29792 C 84.1910 % 10.69 C
2213 20-05-2013 00:00:00 10.92014 C 91.6771 % 9.62 C
2214 21-05-2013 00:00:00 12.35104 C 85.9826 % 10.08 C
2215 22-05-2013 00:00:00 9.34444 C 87.3438 % 7.35 C
2216 23-05-2013 00:00:00 7.90764 C 85.7535 % 5.67 C
2217 24-05-2013 00:00:00 7.60521 C 78.8576 % 4.18 C
2218 25-05-2013 00:00:00 8.39687 C 79.6493 % 5.09 C
2219 26-05-2013 00:00:00 8.03611 C 93.6493 % 7.08 C
2220 27-05-2013 00:00:00 12.39201 C 76.8368 % 8.45 C
2221 28-05-2013 00:00:00 13.87465 C 75.0903 % 9.54 C
2222 29-05-2013 00:00:00 10.21285 C 92.6875 % 9.08 C
2223 30-05-2013 00:00:00 11.70208 C 80.4896 % 8.46 C
2224 31-05-2013 00:00:00 13.19792 C 90.3090 % 11.65 C
2225 01-06-2013 00:00:00 12.09549 C 87.9410 % 10.16 C
Sensor: Nr:Datum:Temp:Feuchte:Taupunkt:
Aussen-T/F 2226 02-06-2013 00:00:00 13.08125 C 66.3472 % 6.96 C
2227 03-06-2013 00:00:00 12.7375 C 64.3750 % 6.19 C
2228 04-06-2013 00:00:00 13.85833 C 72.3507 % 8.97 C
2229 05-06-2013 00:00:00 16.28889 C 78.3125 % 12.51 C
2230 06-06-2013 00:00:00 18.00868 C 68.3264 % 12.09 C
2231 07-06-2013 00:00:00 18.14826 C 71.4236 % 12.9 C
2232 08-06-2013 00:00:00 18.53125 C 79.0556 % 14.83 C
2233 09-06-2013 00:00:00 15.18819 C 89.5868 % 13.49 C
2234 10-06-2013 00:00:00 12.77396 C 94.5868 % 11.93 C
2235 11-06-2013 00:00:00 15.40451 C 84.7708 % 12.86 C
2236 12-06-2013 00:00:00 17.48576 C 83.4236 % 14.65 C
2237 13-06-2013 00:00:00 18.45313 C 85.0625 % 15.9 C
2238 14-06-2013 00:00:00 14.47917 C 78.2500 % 10.74 C
2239 15-06-2013 00:00:00 15.22674 C 77.9653 % 11.41 C
2240 16-06-2013 00:00:00 16.60104 C 70.9306 % 11.31 C
2241 17-06-2013 00:00:00 20.99236 C 73.9583 % 16.17 C
2242 18-06-2013 00:00:00 23.88576 C 78.5104 % 19.92 C
2243 19-06-2013 00:00:00 24.9691 C 80.3924 % 21.36 C
2244 20-06-2013 00:00:00 21.63299 C 83.6493 % 18.74 C
2245 21-06-2013 00:00:00 17.72778 C 79.6563 % 14.17 C
2246 22-06-2013 00:00:00 18.08576 C 74.9688 % 13.58 C
2247 23-06-2013 00:00:00 16.03403 C 77.5938 % 12.12 C
2248 24-06-2013 00:00:00 14.4184 C 80.7326 % 11.15 C
2249 25-06-2013 00:00:00 13.24861 C 81.2049 % 10.1 C
2250 26-06-2013 00:00:00 12.21597 C 78.8819 % 8.66 C
Sensor: Nr:Datum:Temp:Feuchte:Taupunkt:
Aussen-T/F 2251 27-06-2013 00:00:00 12.77257 C 85.6111 % 10.42 C
2252 28-06-2013 00:00:00 12.51979 C 89.5764 % 10.85 C
2253 29-06-2013 00:00:00 15.31319 C 83.5000 % 12.54 C
2254 30-06-2013 00:00:00 14.36458 C 77.9931 % 10.58 C
2255 01-07-2013 00:00:00 18.46319 C 74.8715 % 13.93 C
2256 02-07-2013 00:00:00 18.88542 C 76.4132 % 14.65 C
2257 03-07-2013 00:00:00 17.18993 C 93.0868 % 16.06 C
2258 04-07-2013 00:00:00 18.03542 C 87.4410 % 15.92 C
2259 05-07-2013 00:00:00 19.17361 C 80.8785 % 15.81 C
2260 06-07-2013 00:00:00 19.30833 C 81.3438 % 16.03 C
2261 07-07-2013 00:00:00 20.55243 C 74.5069 % 15.86 C
2262 08-07-2013 00:00:00 20.53924 C 71.9444 % 15.31 C
2263 09-07-2013 00:00:00 20.80694 C 73.6597 % 15.93 C
2264 10-07-2013 00:00:00 20.12292 C 72.3368 % 14.99 C
2265 11-07-2013 00:00:00 17.10417 C 69.4097 % 11.47 C
2266 12-07-2013 00:00:00 16.90868 C 73.6806 % 12.18 C
2267 13-07-2013 00:00:00 17.26424 C 74.3160 % 12.66 C
2268 14-07-2013 00:00:00 18.30139 C 74.2847 % 13.65 C
2269 15-07-2013 00:00:00 18.85486 C 75.3333 % 14.4 C
2270 16-07-2013 00:00:00 20.18438 C 72.0590 % 14.99 C
2271 17-07-2013 00:00:00 20.29896 C 74.5729 % 15.63 C
2272 18-07-2013 00:00:00 21.84757 C 69.7014 % 16.06 C
2273 19-07-2013 00:00:00 22.12674 C 67.1042 % 15.74 C
2274 20-07-2013 00:00:00 21.31076 C 69.5417 % 15.52 C
2275 21-07-2013 00:00:00 22.30521 C 69.0000 % 16.34 C
Sensor: Nr:Datum:Temp:Feuchte:Taupunkt:
Aussen-T/F 2276 22-07-2013 00:00:00 22.41562 C 70.3958 % 16.76 C
2277 23-07-2013 00:00:00 21.37396 C 86.5069 % 19.03 C
2278 24-07-2013 00:00:00 21.35972 C 80.1076 % 17.79 C
2279 25-07-2013 00:00:00 20.88542 C 86.3472 % 18.52 C
2280 26-07-2013 00:00:00 21.25729 C 95.1007 % 20.44 C
2281 27-07-2013 00:00:00 23.54236 C 84.8646 % 20.85 C
2282 28-07-2013 00:00:00 21.69965 C 82.3889 % 18.57 C
2283 29-07-2013 00:00:00 19.41007 C 88.3993 % 17.44 C
2284 30-07-2013 00:00:00 18.99028 C 79.0139 % 15.27 C
2285 31-07-2013 00:00:00 20.83715 C 75.4653 % 16.34 C
2286 01-08-2013 00:00:00 21.89653 C 75.0764 % 17.28 C
2287 02-08-2013 00:00:00 23.37049 C 72.4132 % 18.13 C
2288 03-08-2013 00:00:00 21.1934 C 85.6146 % 18.69 C
2289 04-08-2013 00:00:00 19.79549 C 78.0382 % 15.86 C
2290 05-08-2013 00:00:00 20.42639 C 78.9618 % 16.65 C
2291 06-08-2013 00:00:00 19.98646 C 87.9132 % 17.92 C
2292 07-08-2013 00:00:00 18.91562 C 91.5833 % 17.51 C
2293 08-08-2013 00:00:00 16.92118 C 86.3229 % 14.62 C
2294 09-08-2013 00:00:00 16.41597 C 86.1181 % 14.09 C
2295 10-08-2013 00:00:00 18.10764 C 74.2986 % 13.46 C
2296 11-08-2013 00:00:00 16.80278 C 69.1771 % 11.13 C
2297 12-08-2013 00:00:00 15.88229 C 83.6007 % 13.11 C
2298 13-08-2013 00:00:00 15.61319 C 81.7326 % 12.5 C
2299 14-08-2013 00:00:00 14.4559 C 81.5660 % 11.34 C
2300 15-08-2013 00:00:00 16.30035 C 77.9028 % 12.44 C
Sensor: Nr:Datum:Temp:Feuchte:Taupunkt:
Aussen-T/F 2301 16-08-2013 00:00:00 17.96319 C 75.3750 % 13.55 C
2302 17-08-2013 00:00:00 20.47965 C 70.5158 % 14.94 C
2303 18-08-2013 00:00:00 19.29614 C 82.4596 % 16.23 C
2304 19-08-2013 00:00:00 17.75764 C 80.2465 % 14.31 C
2305 20-08-2013 00:00:00 14.96458 C 79.6111 % 11.47 C
2306 21-08-2013 00:00:00 15.16285 C 81.7743 % 12.07 C
2307 22-08-2013 00:00:00 16.33576 C 83.6111 % 13.56 C
2308 23-08-2013 00:00:00 18.61667 C 76.7708 % 14.46 C
2309 24-08-2013 00:00:00 16.10208 C 89.7396 % 14.42 C
2310 25-08-2013 00:00:00 16.06806 C 95.2708 % 15.31 C
2311 26-08-2013 00:00:00 15.16806 C 96.5451 % 14.62 C
2312 27-08-2013 00:00:00 15.88472 C 89.9792 % 14.24 C
2313 28-08-2013 00:00:00 15.65312 C 87.5035 % 13.59 C
2314 29-08-2013 00:00:00 14.74062 C 90.2153 % 13.15 C
2315 30-08-2013 00:00:00 15.73924 C 87.8472 % 13.73 C
2316 31-08-2013 00:00:00 16.33229 C 86.2986 % 14.04 C
2317 01-09-2013 00:00:00 14.50938 C 73.5035 % 9.83 C
2318 02-09-2013 00:00:00 17.48924 C 69.9375 % 11.95 C
2319 03-09-2013 00:00:00 18.08299 C 80.6319 % 14.7 C
2320 04-09-2013 00:00:00 17.74583 C 85.1701 % 15.22 C
2321 05-09-2013 00:00:00 18.47349 C 84.5181 % 15.82 C
2322 06-09-2013 00:00:00 22.68615 C 74.2769 % 17.87 C
2323 07-09-2013 00:00:00 18.36354 C 91.5208 % 16.96 C
2324 08-09-2013 00:00:00 14.78542 C 93.9097 % 13.81 C
2325 09-09-2013 00:00:00 14.16944 C 86.9965 % 12.04 C
Sensor: Nr:Datum:Temp:Feuchte:Taupunkt:
Aussen-T/F 2326 10-09-2013 00:00:00 13.35073 C 82.4891 % 10.43 C
2327 11-09-2013 00:00:00 13.00912 C 87.8066 % 11.04 C
2328 12-09-2013 00:00:00 13.53472 C 92.7535 % 12.39 C
2329 13-09-2013 00:00:00 14.67363 C 88.3553 % 12.77 C
2330 14-09-2013 00:00:00 15.8191 C 93.1007 % 14.71 C
2331 15-09-2013 00:00:00 14.41667 C 87.2500 % 12.33 C
2332 16-09-2013 00:00:00 13.23333 C 81.3229 % 10.11 C
2333 17-09-2013 00:00:00 10.58958 C 82.5833 % 7.75 C
2334 18-09-2013 00:00:00 12.57951 C 92.8750 % 11.46 C
2335 19-09-2013 00:00:00 11.89444 C 86.6076 % 9.73 C
2336 20-09-2013 00:00:00 13.91806 C 85.7778 % 11.58 C
2337 21-09-2013 00:00:00 12.20868 C 91.0000 % 10.78 C
2338 22-09-2013 00:00:00 13.3788 C 90.7668 % 11.9 C
2339 23-09-2013 00:00:00 15.46493 C 89.1076 % 13.68 C
2340 24-09-2013 00:00:00 12.34792 C 94.6979 % 11.52 C
2341 25-09-2013 00:00:00 14.08646 C 94.5347 % 13.22 C
2342 26-09-2013 00:00:00 14.58924 C 91.1389 % 13.16 C
2343 27-09-2013 00:00:00 11.25312 C 89.0660 % 9.52 C
2344 28-09-2013 00:00:00 10.575 C 88.4286 % 8.74 C
2345 29-09-2013 00:00:00 11.89028 C 85.1667 % 9.48 C
2346 30-09-2013 00:00:00 9.80833 C 87.1910 % 7.78 C
2347 01-10-2013 00:00:00 11.38264 C 80.5903 % 8.17 C
2348 02-10-2013 00:00:00 9.01493 C 82.1111 % 6.13 C
2349 03-10-2013 00:00:00 8.84479 C 80.9549 % 5.76 C
2350 04-10-2013 00:00:00 11.33993 C 91.6215 % 10.03 C
Sensor: Nr:Datum:Temp:Feuchte:Taupunkt:
Aussen-T/F 2351 05-10-2013 00:00:00 12.69583 C 97.5486 % 12.32 C
2352 06-10-2013 00:00:00 13.60313 C 92.6910 % 12.44 C
2353 07-10-2013 00:00:00 13.21667 C 94.6806 % 12.38 C
2354 08-10-2013 00:00:00 13.44791 C 95.3505 % 12.72 C
2355 09-10-2013 00:00:00 13.86667 C 91.5938 % 12.52 C
2356 10-10-2013 00:00:00 8.4625 C 94.6285 % 7.65 C
2357 11-10-2013 00:00:00 6.86042 C 97.1285 % 6.44 C
2358 12-10-2013 00:00:00 6.31215 C 95.1910 % 5.6 C
2359 13-10-2013 00:00:00 7.69167 C 90.0208 % 6.16 C
2360 14-10-2013 00:00:00 9.89091 C 92.2182 % 8.69 C
2361 15-10-2013 00:00:00 10.43275 C 94.2113 % 9.54 C
2362 16-10-2013 00:00:00 10.04523 C 95.8799 % 9.42 C
2363 17-10-2013 00:00:00 12.70972 C 88.6771 % 10.89 C
2364 18-10-2013 00:00:00 11.80868 C 95.7083 % 11.15 C
2365 19-10-2013 00:00:00 11.72702 C 95.4877 % 11.03 C
2366 20-10-2013 00:00:00 15.28507 C 93.8021 % 14.29 C
2367 21-10-2013 00:00:00 15.075 C 89.9861 % 13.45 C
2368 22-10-2013 00:00:00 15.7614 C 91.7404 % 14.42 C
2369 23-10-2013 00:00:00 15.81476 C 92.6790 % 14.63 C
2370 24-10-2013 00:00:00 13.67431 C 95.5069 % 12.97 C
2371 25-10-2013 00:00:00 13.01701 C 96.8958 % 12.54 C
2372 26-10-2013 00:00:00 16.41144 C 95.1808 % 15.64 C
2373 27-10-2013 00:00:00 14.94896 C 83.9028 % 12.25 C
2374 28-10-2013 00:00:00 15.40962 C 78.1385 % 11.62 C
2375 29-10-2013 00:00:00 11.12569 C 77.4901 % 7.34 C
Sensor: Nr:Datum:Temp:Feuchte:Taupunkt:
Aussen-T/F 2376 30-10-2013 00:00:00 7.81825 C 86.6702 % 5.74 C
2377 31-10-2013 00:00:00 5.27708 C 94.3854 % 4.45 C
2378 01-11-2013 00:00:00 9.4316 C 89.5208 % 7.8 C
2379 02-11-2013 00:00:00 12.79889 C 90.4354 % 11.27 C
2380 03-11-2013 00:00:00 9.93611 C 83.6701 % 7.31 C
2381 04-11-2013 00:00:00 9.80526 C 87.0912 % 7.76 C
2382 05-11-2013 00:00:00 6.72153 C 87.5556 % 4.81 C
2383 06-11-2013 00:00:00 10.70215 C 88.7348 % 8.92 C
2384 07-11-2013 00:00:00 15.04132 C 84.5243 % 12.46 C
2385 08-11-2013 00:00:00 11.92093 C 93.0372 % 10.83 C
2386 09-11-2013 00:00:00 9.48785 C 80.9931 % 6.39 C
2387 10-11-2013 00:00:00 6.68715 C 90.9653 % 5.32 C
2388 11-11-2013 00:00:00 4.00764 C 96.3542 % 3.48 C
2389 12-11-2013 00:00:00 4.41146 C 93.7951 % 3.5 C
2390 13-11-2013 00:00:00 6.28491 C 93.5579 % 5.32 C
2391 14-11-2013 00:00:00 3.2816 C 95.0833 % 2.57 C
2392 15-11-2013 00:00:00 4.99201 C 90.5035 % 3.57 C
2393 16-11-2013 00:00:00 3.05 C 91.8507 % 1.86 C
2394 17-11-2013 00:00:00 3.2184 C 94.6285 % 2.44 C
2395 18-11-2013 00:00:00 5.38287 C 94.0916 % 4.51 C
2396 19-11-2013 00:00:00 6.22 C 91.5647 % 4.95 C
2397 20-11-2013 00:00:00 3.96643 C 91.7483 % 2.75 C
2398 21-11-2013 00:00:00 4.05603 C 89.4310 % 2.48 C
2399 22-11-2013 00:00:00 4.42 C 86.5545 % 2.38 C
2400 23-11-2013 00:00:00 7.03092 C 87.0000 % 5.02 C
Sensor: Nr:Datum:Temp:Feuchte:Taupunkt:
Aussen-T/F 2401 24-11-2013 00:00:00 5.71435 C 88.4739 % 3.96 C
2402 25-11-2013 00:00:00 2.65439 C 93.3216 % 1.69 C
2403 26-11-2013 00:00:00 0.53125 C 94.5590 % -0.24 C
2404 27-11-2013 00:00:00 0.63854 C 92.5035 % -0.43 C
2405 28-11-2013 00:00:00 3.45709 C 94.3022 % 2.63 C
2406 29-11-2013 00:00:00 5.6434 C 91.5833 % 4.38 C
2407 30-11-2013 00:00:00 4.32604 C 93.7951 % 3.42 C
2408 01-12-2013 00:00:00 5.01254 C 94.7178 % 4.24 C
2409 02-12-2013 00:00:00 4.76458 C 93.0486 % 3.74 C
2410 03-12-2013 00:00:00 -0.45729 C 97.1806 % -0.85 C
2411 04-12-2013 00:00:00 3.27917 C 91.8924 % 2.09 C
2412 05-12-2013 00:00:00 3.93475 C 87.9291 % 2.12 C
2413 06-12-2013 00:00:00 3.76181 C 74.9583 % -0.26 C
2414 07-12-2013 00:00:00 4.38715 C 85.8194 % 2.23 C
2415 08-12-2013 00:00:00 6.92188 C 87.3785 % 4.97 C
2416 09-12-2013 00:00:00 6.42222 C 84.1806 % 3.95 C
2417 10-12-2013 00:00:00 3.24896 C 95.9236 % 2.66 C
2418 11-12-2013 00:00:00 3.72465 C 96.5903 % 3.23 C
2419 12-12-2013 00:00:00 4.08993 C 92.2118 % 2.94 C
2420 13-12-2013 00:00:00 2.65694 C 90.5313 % 1.27 C
2421 14-12-2013 00:00:00 3.58986 C 92.6923 % 2.52 C
2422 15-12-2013 00:00:00 4.99688 C 85.9340 % 2.84 C
2423 16-12-2013 00:00:00 1.49676 C 94.6511 % 0.73 C
2424 17-12-2013 00:00:00 1.25451 C 95.3924 % 0.6 C
2425 18-12-2013 00:00:00 4.19965 C 94.2153 % 3.35 C
Sensor: Nr:Datum:Temp:Feuchte:Taupunkt:
Aussen-T/F 2426 19-12-2013 00:00:00 8.13715 C 88.2813 % 6.32 C
2427 20-12-2013 00:00:00 4.38403 C 92.2708 % 3.24 C
2428 21-12-2013 00:00:00 4.81354 C 81.8229 % 1.98 C
2429 22-12-2013 00:00:00 8.81493 C 82.7222 % 6.04 C
2430 23-12-2013 00:00:00 8.42341 C 85.6230 % 6.16 C
2431 24-12-2013 00:00:00 11.57579 C 73.6140 % 7.03 C
2432 25-12-2013 00:00:00 8.41944 C 92.4444 % 7.27 C
2433 26-12-2013 00:00:00 6.06579 C 94.8195 % 5.3 C
2434 27-12-2013 00:00:00 6.6549 C 85.1608 % 4.34 C
2435 28-12-2013 00:00:00 9.14444 C 90.1181 % 7.61 C
2436 29-12-2013 00:00:00 4.76463 C 93.9695 % 3.88 C
2437 30-12-2013 00:00:00 4.17107 C 89.7934 % 2.65 C
2438 31-12-2013 00:00:00 2.91045 C 89.5522 % 1.37 C
2439 01-01-2014 00:00:00 6.46912 C 86.4737 % 4.38 C
2440 02-01-2014 00:00:00 8.31947 C 88.5649 % 6.54 C
2441 03-01-2014 00:00:00 8.74861 C 86.5347 % 6.63 C
2442 04-01-2014 00:00:00 7.47049 C 88.5833 % 5.71 C
2443 05-01-2014 00:00:00 6.13111 C 91.4622 % 4.85 C
2444 06-01-2014 00:00:00 8.33819 C 89.1736 % 6.66 C
2445 07-01-2014 00:00:00 10.72882 C 85.7708 % 8.45 C
2446 08-01-2014 00:00:00 10.3965 C 86.9027 % 8.31 C
2447 09-01-2014 00:00:00 9.27876 C 85.9961 % 7.06 C
2448 10-01-2014 00:00:00 5.59896 C 86.9757 % 3.61 C
2449 11-01-2014 00:00:00 3.80382 C 93.2049 % 2.81 C
2450 12-01-2014 00:00:00 0.34545 C 97.0618 % -0.06 C
Sensor: Nr:Datum:Temp:Feuchte:Taupunkt:
Aussen-T/F 2451 13-01-2014 00:00:00 3.73194 C 95.9965 % 3.15 C
2452 14-01-2014 00:00:00 5.06036 C 94.4536 % 4.25 C
2453 15-01-2014 00:00:00 4.1934 C 91.9444 % 3 C
2454 16-01-2014 00:00:00 6.5375 C 93.3160 % 5.54 C
2455 17-01-2014 00:00:00 6.75 C 92.8021 % 5.67 C
2456 18-01-2014 00:00:00 4.5321 C 90.4686 % 3.11 C
2457 19-01-2014 00:00:00 4.621 C 92.0569 % 3.44 C
2458 20-01-2014 00:00:00 4.32836 C 94.6567 % 3.55 C
2459 21-01-2014 00:00:00 3.49792 C 93.6632 % 2.58 C
2460 22-01-2014 00:00:00 3.18571 C 95.3022 % 2.51 C
2461 23-01-2014 00:00:00 3.72927 C 92.3049 % 2.6 C
2462 24-01-2014 00:00:00 3.90268 C 93.5670 % 2.96 C
2463 25-01-2014 00:00:00 2.8165 C 94.8000 % 2.07 C
2464 26-01-2014 00:00:00 5.11851 C 83.3630 % 2.54 C
2465 27-01-2014 00:00:00 4.4199 C 87.2094 % 2.48 C
2466 28-01-2014 00:00:00 2.36869 C 88.8889 % 0.73 C
2467 29-01-2014 00:00:00 1.54036 C 85.8253 % -0.57 C
2468 30-01-2014 00:00:00 1.98611 C 84.2049 % -0.39 C
2469 31-01-2014 00:00:00 1.03819 C 91.0799 % -0.25 C
2470 01-02-2014 00:00:00 4.63819 C 89.8646 % 3.12 C
2471 02-02-2014 00:00:00 4.14306 C 90.0729 % 2.66 C
2472 03-02-2014 00:00:00 1.00938 C 95.5486 % 0.38 C
2473 04-02-2014 00:00:00 4.28785 C 89.7083 % 2.75 C
2474 05-02-2014 00:00:00 4.74236 C 89.7049 % 3.2 C
2475 06-02-2014 00:00:00 8.42431 C 76.6181 % 4.56 C
Sensor: Nr:Datum:Temp:Feuchte:Taupunkt:
Aussen-T/F 2476 07-02-2014 00:00:00 8.79132 C 78.4410 % 5.25 C
2477 08-02-2014 00:00:00 6.5309 C 83.7222 % 3.98 C
2478 09-02-2014 00:00:00 5.34375 C 80.9306 % 2.34 C
2479 10-02-2014 00:00:00 3.38819 C 87.2500 % 1.48 C
2480 11-02-2014 00:00:00 5.41354 C 82.3819 % 2.66 C
2481 12-02-2014 00:00:00 5.44028 C 81.1319 % 2.47 C
2482 13-02-2014 00:00:00 5.71771 C 88.4479 % 3.96 C
2483 14-02-2014 00:00:00 5.64722 C 85.6979 % 3.44 C
2484 15-02-2014 00:00:00 9.70669 C 79.3415 % 6.31 C
2485 16-02-2014 00:00:00 7.36493 C 80.5694 % 4.25 C
2486 17-02-2014 00:00:00 3.59861 C 91.7118 % 2.38 C
2487 18-02-2014 00:00:00 3.38715 C 94.0590 % 2.52 C
2488 19-02-2014 00:00:00 7.825 C 84.9722 % 5.46 C
2489 20-02-2014 00:00:00 8.68958 C 82.6215 % 5.9 C
2490 21-02-2014 00:00:00 7.64062 C 84.5451 % 5.21 C
2491 22-02-2014 00:00:00 4.99861 C 87.1563 % 3.05 C
2492 23-02-2014 00:00:00 5.94204 C 83.6694 % 3.39 C
2493 24-02-2014 00:00:00 5.86389 C 80.9444 % 2.85 C
2494 25-02-2014 00:00:00 6.68681 C 82.1910 % 3.87 C
2495 26-02-2014 00:00:00 8.58182 C 81.5382 % 5.61 C
2496 27-02-2014 00:00:00 5.86275 C 84.1961 % 3.41 C
2497 28-02-2014 00:00:00 6.2146 C 87.8248 % 4.35 C
2498 01-03-2014 00:00:00 5.44375 C 88.4410 % 3.69 C
2499 02-03-2014 00:00:00 3.55069 C 87.5208 % 1.68 C
2500 03-03-2014 00:00:00 5.27743 C 86.6458 % 3.24 C
Sensor: Nr:Datum:Temp:Feuchte:Taupunkt:
Aussen-T/F 2501 04-03-2014 00:00:00 4.21701 C 86.7118 % 2.2 C
2502 05-03-2014 00:00:00 4.68235 C 86.5059 % 2.63 C
2503 06-03-2014 00:00:00 3.87951 C 89.4306 % 2.3 C
2504 07-03-2014 00:00:00 6.23037 C 80.7383 % 3.17 C
2505 08-03-2014 00:00:00 7.3847 C 80.0427 % 4.18 C
2506 09-03-2014 00:00:00 7.27263 C 76.4772 % 3.42 C
2507 10-03-2014 00:00:00 7.44444 C 75.5035 % 3.41 C
2508 11-03-2014 00:00:00 8.4184 C 78.6424 % 4.93 C
2509 12-03-2014 00:00:00 9.07812 C 74.1354 % 4.72 C
2510 13-03-2014 00:00:00 8.16007 C 73.3681 % 3.69 C
2511 14-03-2014 00:00:00 7.91944 C 76.8993 % 4.12 C
2512 15-03-2014 00:00:00 8.97326 C 77.3021 % 5.22 C
2513 16-03-2014 00:00:00 11.50486 C 77.2500 % 7.67 C
2514 17-03-2014 00:00:00 10.27882 C 81.5486 % 7.27 C
2515 18-03-2014 00:00:00 9.4066 C 83.2882 % 6.72 C
2516 19-03-2014 00:00:00 12.2875 C 70.5521 % 7.1 C
2517 20-03-2014 00:00:00 12.49333 C 67.2772 % 6.6 C
2518 21-03-2014 00:00:00 13.1375 C 66.5069 % 7.05 C
2519 22-03-2014 00:00:00 8.65208 C 83.0799 % 5.95 C
2520 23-03-2014 00:00:00 6.03507 C 81.4861 % 3.11 C
2521 24-03-2014 00:00:00 5.42632 C 80.7404 % 2.39 C
2522 25-03-2014 00:00:00 4.1625 C 82.4271 % 1.44 C
2523 26-03-2014 00:00:00 4.56076 C 78.8125 % 1.21 C
2524 27-03-2014 00:00:00 8.14604 C 73.6475 % 3.73 C
2525 28-03-2014 00:00:00 10.60972 C 66.4167 % 4.62 C
Sensor: Nr:Datum:Temp:Feuchte:Taupunkt:
Aussen-T/F 2526 29-03-2014 00:00:00 10.34963 C 70.5809 % 5.24 C
2527 30-03-2014 00:00:00 9.15619 C 76.1429 % 5.18 C
2528 31-03-2014 00:00:00 12.96562 C 65.8924 % 6.75 C
2529 01-04-2014 00:00:00 13.77519 C 67.7366 % 7.92 C
2530 02-04-2014 00:00:00 13.90458 C 68.9754 % 8.31 C
2531 03-04-2014 00:00:00 12.54324 C 77.5811 % 8.74 C
2532 04-04-2014 00:00:00 14.95971 C 74.9173 % 10.55 C
2533 05-04-2014 00:00:00 13.00531 C 86.2612 % 10.77 C
2534 06-04-2014 00:00:00 11.67782 C 83.0879 % 8.91 C
2535 07-04-2014 00:00:00 15.95041 C 75.4713 % 11.62 C
2536 08-04-2014 00:00:00 12.18521 C 67.1585 % 6.28 C
2537 09-04-2014 00:00:00 9.27426 C 75.9154 % 5.25 C
2538 10-04-2014 00:00:00 10.31543 C 77.0864 % 6.48 C
2539 11-04-2014 00:00:00 14.56849 C 72.5000 % 9.69 C
2540 12-04-2014 00:00:00 12.65368 C 70.8982 % 7.52 C
2541 13-04-2014 00:00:00 11.60669 C 71.0599 % 6.55 C
2542 14-04-2014 00:00:00 9.7593 C 71.2491 % 4.81 C
2543 15-04-2014 00:00:00 7.10171 C 73.7991 % 2.75 C
2544 16-04-2014 00:00:00 12.97192 C 49.4521 % 2.65 C
2545 17-04-2014 00:00:00 9.85313 C 63.3021 % 3.22 C
2546 18-04-2014 00:00:00 10.72049 C 64.8750 % 4.39 C
2547 19-04-2014 00:00:00 10.82049 C 71.8993 % 5.96 C
2548 20-04-2014 00:00:00 14.91825 C 70.5509 % 9.62 C
2549 21-04-2014 00:00:00 12.49479 C 77.9896 % 8.77 C
2550 22-04-2014 00:00:00 12.82847 C 85.6076 % 10.48 C
Sensor: Nr:Datum:Temp:Feuchte:Taupunkt:
Aussen-T/F 2551 23-04-2014 00:00:00 13.43958 C 81.1771 % 10.28 C
2552 24-04-2014 00:00:00 15.42535 C 79.0035 % 11.8 C
2553 25-04-2014 00:00:00 16.71562 C 74.1319 % 12.09 C
2554 26-04-2014 00:00:00 15.2 C 74.7604 % 10.75 C
2555 27-04-2014 00:00:00 13.07674 C 81.7986 % 10.04 C
2556 28-04-2014 00:00:00 12.80243 C 79.8715 % 9.42 C
2557 29-04-2014 00:00:00 13.43403 C 90.3056 % 11.88 C
2558 30-04-2014 00:00:00 14.53507 C 84.7500 % 12 C
2559 01-05-2014 00:00:00 14.73611 C 81.3611 % 11.58 C
2560 02-05-2014 00:00:00 11.71319 C 86.6736 % 9.57 C
2561 03-05-2014 00:00:00 10.92708 C 61.0069 % 3.71 C
2562 04-05-2014 00:00:00 9.61042 C 68.0590 % 4.02 C
2563 05-05-2014 00:00:00 12.60069 C 67.5521 % 6.76 C
2564 06-05-2014 00:00:00 13.72083 C 74.2778 % 9.23 C
2565 07-05-2014 00:00:00 13.05764 C 84.9931 % 10.6 C
2566 08-05-2014 00:00:00 12.32847 C 84.6146 % 9.81 C
2567 09-05-2014 00:00:00 15.33403 C 71.0833 % 10.13 C
2568 10-05-2014 00:00:00 12.40903 C 81.6528 % 9.36 C
2569 11-05-2014 00:00:00 11.45764 C 80.1667 % 8.16 C
2570 12-05-2014 00:00:00 11.1941 C 74.9167 % 6.92 C
2571 13-05-2014 00:00:00 10.30729 C 85.3368 % 7.96 C
2572 14-05-2014 00:00:00 10.63542 C 76.9514 % 6.77 C
2573 15-05-2014 00:00:00 10.00382 C 80.4757 % 6.8 C
2574 16-05-2014 00:00:00 13.25347 C 73.1250 % 8.55 C
2575 17-05-2014 00:00:00 14.22292 C 71.7500 % 9.2 C
Sensor: Nr:Datum:Temp:Feuchte:Taupunkt:
Aussen-T/F 2576 18-05-2014 00:00:00 15.4809 C 74.3021 % 10.93 C
2577 19-05-2014 00:00:00 17.57188 C 70.6944 % 12.19 C
2578 20-05-2014 00:00:00 19.46562 C 67.3681 % 13.26 C
2579 21-05-2014 00:00:00 20.29792 C 68.1181 % 14.23 C
2580 22-05-2014 00:00:00 20.21806 C 65.7465 % 13.61 C
2581 23-05-2014 00:00:00 15.52639 C 89.6667 % 13.84 C
2582 24-05-2014 00:00:00 14.72993 C 81.1514 % 11.53 C
2583 25-05-2014 00:00:00 15.25071 C 74.9149 % 10.83 C
2584 26-05-2014 00:00:00 16.8625 C 80.3056 % 13.45 C
2585 27-05-2014 00:00:00 15.19431 C 94.7346 % 14.36 C
2586 28-05-2014 00:00:00 14.58118 C 88.4000 % 12.69 C
2587 29-05-2014 00:00:00 13.44653 C 87.1042 % 11.35 C
2588 30-05-2014 00:00:00 13.2316 C 70.4167 % 7.97 C
2589 31-05-2014 00:00:00 13.40382 C 74.2639 % 8.92 C
2590 01-06-2014 00:00:00 15.49273 C 69.6545 % 9.98 C
2591 02-06-2014 00:00:00 15.88943 C 67.9715 % 9.99 C
2592 03-06-2014 00:00:00 15.78662 C 74.8627 % 11.34 C
2593 04-06-2014 00:00:00 14.95388 C 86.4155 % 12.71 C
2594 05-06-2014 00:00:00 14.55765 C 67.7687 % 8.68 C
2595 06-06-2014 00:00:00 17.20312 C 67.7778 % 11.2 C
2596 07-06-2014 00:00:00 20.77257 C 72.3750 % 15.62 C
2597 08-06-2014 00:00:00 24.09514 C 70.7431 % 18.45 C
2598 09-06-2014 00:00:00 25.74583 C 69.9583 % 19.85 C
2599 10-06-2014 00:00:00 23.66632 C 70.6389 % 18.01 C
2600 11-06-2014 00:00:00 20.10803 C 81.3175 % 16.81 C
Sensor: Nr:Datum:Temp:Feuchte:Taupunkt:
Aussen-T/F 2601 12-06-2014 00:00:00 19.97431 C 66.4583 % 13.54 C
2602 13-06-2014 00:00:00 18.37014 C 68.1597 % 12.4 C
2603 14-06-2014 00:00:00 17.27465 C 65.5104 % 10.76 C
2604 15-06-2014 00:00:00 16.86944 C 67.1875 % 10.75 C
2605 16-06-2014 00:00:00 15.61944 C 74.7396 % 11.15 C
2606 17-06-2014 00:00:00 17.41354 C 66.8819 % 11.2 C
2607 18-06-2014 00:00:00 17.76319 C 71.4931 % 12.54 C
2608 19-06-2014 00:00:00 15.70791 C 75.5252 % 11.4 C
2609 20-06-2014 00:00:00 15.64143 C 71.1667 % 10.44 C
2610 21-06-2014 00:00:00 16.62118 C 65.5903 % 10.15 C
2611 22-06-2014 00:00:00 16.62782 C 66.3415 % 10.33 C
2612 23-06-2014 00:00:00 17.14792 C 65.1910 % 10.56 C
2613 24-06-2014 00:00:00 16.64978 C 71.6277 % 11.5 C
2614 25-06-2014 00:00:00 17.29096 C 56.5426 % 8.58 C
2615 26-06-2014 00:00:00 16.18958 C 64.0764 % 9.4 C
2616 27-06-2014 00:00:00 17.54167 C 67.2604 % 11.41 C
2617 28-06-2014 00:00:00 16.28043 C 87.3950 % 14.18 C
2618 29-06-2014 00:00:00 14.67192 C 93.3251 % 13.61 C
2619 30-06-2014 00:00:00 16.05247 C 75.2167 % 11.67 C
2620 01-07-2014 00:00:00 15.65035 C 70.2917 % 10.26 C
2621 02-07-2014 00:00:00 16.86146 C 65.5313 % 10.37 C
2622 03-07-2014 00:00:00 19.78889 C 59.6493 % 11.72 C
2623 04-07-2014 00:00:00 20.36076 C 67.5382 % 14.16 C
2624 05-07-2014 00:00:00 20.4 C 77.3439 % 16.3 C
2625 06-07-2014 00:00:00 23.48509 C 69.7818 % 17.65 C
Sensor: Nr:Datum:Temp:Feuchte:Taupunkt:
Aussen-T/F 2626 07-07-2014 00:00:00 19.86367 C 64.8202 % 13.05 C
2627 08-07-2014 00:00:00 15.57633 C 89.8898 % 13.92 C
2628 09-07-2014 00:00:00 12.97083 C 95.1667 % 12.22 C
2629 10-07-2014 00:00:00 17.68292 C 90.2000 % 16.06 C
2630 11-07-2014 00:00:00 18.42369 C 88.6466 % 16.51 C
2631 12-07-2014 00:00:00 18.68363 C 88.1018 % 16.67 C
2632 13-07-2014 00:00:00 19.06941 C 85.5922 % 16.6 C
2633 14-07-2014 00:00:00 19.60206 C 79.5021 % 15.96 C
2634 15-07-2014 00:00:00 21.3216 C 70.6901 % 15.78 C
2635 16-07-2014 00:00:00 21.88732 C 74.8829 % 17.23 C
2636 17-07-2014 00:00:00 23.77903 C 70.2742 % 18.04 C
2637 18-07-2014 00:00:00 24.87935 C 65.5097 % 17.97 C
2638 19-07-2014 00:00:00 27.76989 C 58.4086 % 18.86 C
2639 20-07-2014 00:00:00 22.68715 C 80.6840 % 19.19 C
2640 21-07-2014 00:00:00 20.29965 C 91.0660 % 18.79 C
2641 22-07-2014 00:00:00 23.6856 C 82.0494 % 20.44 C
2642 23-07-2014 00:00:00 23.11788 C 73.8869 % 18.2 C
2643 24-07-2014 00:00:00 20.63922 C 73.5020 % 15.74 C
2644 25-07-2014 00:00:00 21.8193 C 72.9825 % 16.76 C
2645 26-07-2014 00:00:00 21.92 C 74.3097 % 17.14 C
2646 27-07-2014 00:00:00 19.66694 C 83.9339 % 16.88 C
2647 28-07-2014 00:00:00 22.3284 C 78.8580 % 18.48 C
2648 29-07-2014 00:00:00 19.88194 C 95.8125 % 19.19 C
2649 30-07-2014 00:00:00 19.93194 C 85.4097 % 17.41 C
2650 31-07-2014 00:00:00 20.20645 C 77.0896 % 16.06 C
Sensor: Nr:Datum:Temp:Feuchte:Taupunkt:
Aussen-T/F 2651 01-08-2014 00:00:00 20.08438 C 81.7153 % 16.86 C
2652 02-08-2014 00:00:00 20.10868 C 84.8264 % 17.48 C
2653 03-08-2014 00:00:00 21.3566 C 81.2743 % 18.02 C
2654 04-08-2014 00:00:00 19.00347 C 86.5799 % 16.71 C
2655 05-08-2014 00:00:00 18.77049 C 82.0208 % 15.64 C
2656 06-08-2014 00:00:00 17.59618 C 84.4201 % 14.94 C
2657 07-08-2014 00:00:00 18.9934 C 85.7986 % 16.56 C
2658 08-08-2014 00:00:00 18.87604 C 89.5625 % 17.12 C
2659 09-08-2014 00:00:00 20.16771 C 80.6076 % 16.73 C
2660 10-08-2014 00:00:00 19.0125 C 90.0208 % 17.34 C
2661 11-08-2014 00:00:00 17.0066 C 81.0000 % 13.72 C
2662 12-08-2014 00:00:00 17.62431 C 72.1944 % 12.56 C
2663 13-08-2014 00:00:00 15.97674 C 89.6528 % 14.28 C
2664 14-08-2014 00:00:00 16.15426 C 84.3298 % 13.51 C
2665 15-08-2014 00:00:00 14.48638 C 92.1720 % 13.23 C
2666 16-08-2014 00:00:00 15.13439 C 89.3930 % 13.4 C
2667 17-08-2014 00:00:00 16.14062 C 77.5243 % 12.21 C
2668 18-08-2014 00:00:00 16.30417 C 74.5313 % 11.77 C
2669 19-08-2014 00:00:00 13.79653 C 83.4410 % 11.04 C
2670 20-08-2014 00:00:00 12.68681 C 83.0799 % 9.89 C
2671 21-08-2014 00:00:00 12.84653 C 82.9965 % 10.03 C
2672 22-08-2014 00:00:00 14.04062 C 78.5000 % 10.36 C
2673 23-08-2014 00:00:00 14.26875 C 83.3194 % 11.48 C
2674 24-08-2014 00:00:00 11.58993 C 93.2465 % 10.54 C
2675 25-08-2014 00:00:00 13.23854 C 93.7743 % 12.26 C
Sensor: Nr:Datum:Temp:Feuchte:Taupunkt:
Aussen-T/F 2676 26-08-2014 00:00:00 14.79479 C 96.8681 % 14.3 C
2677 27-08-2014 00:00:00 15.38741 C 91.3237 % 13.98 C
2678 28-08-2014 00:00:00 15.84062 C 93.0556 % 14.72 C
2679 29-08-2014 00:00:00 18.05278 C 88.6979 % 16.16 C
2680 30-08-2014 00:00:00 16.23299 C 90.9965 % 14.76 C
2681 31-08-2014 00:00:00 14.70069 C 92.8125 % 13.55 C
2682 01-09-2014 00:00:00 14.60556 C 91.4896 % 13.24 C
2683 02-09-2014 00:00:00 14.6191 C 90.6771 % 13.11 C
2684 03-09-2014 00:00:00 15.03299 C 89.9549 % 13.4 C
2685 04-09-2014 00:00:00 16.74028 C 89.6910 % 15.04 C
2686 05-09-2014 00:00:00 18.15903 C 91.3819 % 16.73 C
2687 06-09-2014 00:00:00 17.4559 C 92.7604 % 16.27 C
2688 07-09-2014 00:00:00 18.08889 C 88.1264 % 16.09 C
2689 08-09-2014 00:00:00 17.83403 C 84.0833 % 15.11 C
2690 09-09-2014 00:00:00 15.64965 C 81.4410 % 12.48 C
2691 10-09-2014 00:00:00 14.27882 C 83.4132 % 11.51 C
2692 11-09-2014 00:00:00 14.96111 C 83.0903 % 12.12 C
2693 12-09-2014 00:00:00 14.12153 C 84.7257 % 11.59 C
2694 13-09-2014 00:00:00 16.12118 C 88.7743 % 14.27 C
2695 14-09-2014 00:00:00 16.65196 C 88.0641 % 14.67 C
2696 15-09-2014 00:00:00 16.079 C 91.5516 % 14.7 C
2697 16-09-2014 00:00:00 16.93264 C 90.1458 % 15.31 C
2698 17-09-2014 00:00:00 16.05139 C 92.2118 % 14.79 C
2699 18-09-2014 00:00:00 17.4875 C 95.6215 % 16.78 C
2700 19-09-2014 00:00:00 18.38993 C 95.2708 % 17.62 C
Sensor: Nr:Datum:Temp:Feuchte:Taupunkt:
Aussen-T/F 2701 20-09-2014 00:00:00 17.14931 C 96.4583 % 16.58 C
2702 21-09-2014 00:00:00 15.46146 C 95.3090 % 14.71 C
2703 22-09-2014 00:00:00 12.53194 C 86.3194 % 10.31 C
2704 23-09-2014 00:00:00 9.91146 C 90.8993 % 8.5 C
2705 24-09-2014 00:00:00 11.10451 C 89.8056 % 9.5 C
2706 25-09-2014 00:00:00 13.67917 C 85.6806 % 11.33 C
2707 26-09-2014 00:00:00 14.24896 C 88.9653 % 12.46 C
2708 27-09-2014 00:00:00 15.59965 C 91.2743 % 14.18 C
2709 28-09-2014 00:00:00 14.22743 C 95.0660 % 13.45 C
2710 29-09-2014 00:00:00 15.41493 C 94.8472 % 14.59 C
2711 30-09-2014 00:00:00 16.83438 C 93.1875 % 15.73 C
2712 01-10-2014 00:00:00 15.87778 C 94.6389 % 15.02 C
2713 02-10-2014 00:00:00 14.35799 C 95.7326 % 13.69 C
2714 03-10-2014 00:00:00 13.73785 C 95.4063 % 13.02 C
2715 04-10-2014 00:00:00 12.86979 C 93.2014 % 11.8 C
2716 05-10-2014 00:00:00 12.94097 C 94.0799 % 12.01 C
2717 06-10-2014 00:00:00 14.3 C 90.3750 % 12.75 C
2718 07-10-2014 00:00:00 13.71806 C 92.2986 % 12.49 C
2719 08-10-2014 00:00:00 13.3 C 97.6069 % 12.93 C
2720 09-10-2014 00:00:00 15.17173 C 97.6859 % 14.81 C
2721 10-10-2014 00:00:00 14.20902 C 96.4000 % 13.64 C
2722 11-10-2014 00:00:00 14.77847 C 96.0347 % 14.15 C
2723 12-10-2014 00:00:00 12.52744 C 95.6029 % 11.84 C
2724 13-10-2014 00:00:00 14.72014 C 96.7569 % 14.21 C
2725 14-10-2014 00:00:00 12.54495 C 95.1847 % 11.8 C
Sensor: Nr:Datum:Temp:Feuchte:Taupunkt:
Aussen-T/F 2726 15-10-2014 00:00:00 11.65639 C 95.3910 % 10.94 C
2727 16-10-2014 00:00:00 14.02682 C 94.9818 % 13.24 C
2728 17-10-2014 00:00:00 14.05977 C 93.7854 % 13.07 C
2729 18-10-2014 00:00:00 12.49887 C 97.7283 % 12.15 C
2730 19-10-2014 00:00:00 15.09722 C 92.7188 % 13.93 C
2731 20-10-2014 00:00:00 15.06015 C 83.9885 % 12.38 C
2732 21-10-2014 00:00:00 11.78491 C 85.1649 % 9.38 C
2733 22-10-2014 00:00:00 8.88438 C 85.2674 % 6.55 C
2734 23-10-2014 00:00:00 10.3816 C 87.9444 % 8.47 C
2735 24-10-2014 00:00:00 10.59097 C 90.2951 % 9.07 C
2736 25-10-2014 00:00:00 11.53056 C 94.5417 % 10.69 C
2737 26-10-2014 00:00:00 11.35625 C 95.5278 % 10.67 C
2738 27-10-2014 00:00:00 9.22813 C 96.0903 % 8.64 C
2739 28-10-2014 00:00:00 7.93681 C 88.3750 % 6.14 C
2740 29-10-2014 00:00:00 9.50556 C 91.5347 % 8.2 C
2741 30-10-2014 00:00:00 12.10625 C 96.8819 % 11.63 C
2742 31-10-2014 00:00:00 12.05903 C 97.0694 % 11.61 C
2743 01-11-2014 00:00:00 10.92674 C 98.2674 % 10.66 C
2744 02-11-2014 00:00:00 11.24448 C 97.2776 % 10.83 C
2745 03-11-2014 00:00:00 13.84028 C 90.1806 % 12.26 C
2746 04-11-2014 00:00:00 11.22049 C 96.5521 % 10.69 C
2747 05-11-2014 00:00:00 9.33229 C 95.2257 % 8.61 C
2748 06-11-2014 00:00:00 6.59514 C 92.6250 % 5.49 C
2749 07-11-2014 00:00:00 5.60208 C 94.8160 % 4.84 C
2750 08-11-2014 00:00:00 8.8941 C 91.4340 % 7.58 C
Sensor: Nr:Datum:Temp:Feuchte:Taupunkt:
Aussen-T/F 2751 09-11-2014 00:00:00 6.62257 C 96.8125 % 6.15 C
2752 10-11-2014 00:00:00 8.76389 C 96.3715 % 8.22 C
2753 11-11-2014 00:00:00 8.47553 C 95.0106 % 7.72 C
2754 12-11-2014 00:00:00 9.50104 C 95.2604 % 8.78 C
2755 13-11-2014 00:00:00 9.66736 C 96.6806 % 9.17 C
2756 14-11-2014 00:00:00 10.60174 C 90.0313 % 9.04 C
2757 15-11-2014 00:00:00 9.75938 C 94.5347 % 8.93 C
2758 16-11-2014 00:00:00 8.75674 C 97.4468 % 8.38 C
2759 17-11-2014 00:00:00 8.71146 C 97.5799 % 8.35 C
2760 18-11-2014 00:00:00 8.62491 C 96.7473 % 8.14 C
2761 19-11-2014 00:00:00 8.07465 C 95.9514 % 7.47 C
2762 20-11-2014 00:00:00 6.45486 C 94.4826 % 5.63 C
2763 21-11-2014 00:00:00 5.36458 C 95.0799 % 4.64 C
2764 22-11-2014 00:00:00 5.83576 C 95.7569 % 5.21 C
2765 23-11-2014 00:00:00 6.30104 C 96.9931 % 5.86 C
2766 24-11-2014 00:00:00 7.36679 C 94.6236 % 6.56 C
2767 25-11-2014 00:00:00 3.04781 C 97.7769 % 2.73 C
2768 26-11-2014 00:00:00 5.29848 C 89.8182 % 3.77 C
2769 27-11-2014 00:00:00 5.85447 C 92.9300 % 4.8 C
2770 28-11-2014 00:00:00 5.42203 C 91.8771 % 4.21 C
2771 29-11-2014 00:00:00 4.46596 C 89.4070 % 2.88 C
2772 30-11-2014 00:00:00 3.88993 C 91.8229 % 2.69 C
2773 01-12-2014 00:00:00 3.33299 C 91.1840 % 2.04 C
2774 02-12-2014 00:00:00 1.63731 C 91.3192 % 0.38 C
2775 03-12-2014 00:00:00 1.74095 C 94.0216 % 0.88 C
Sensor: Nr:Datum:Temp:Feuchte:Taupunkt:
Aussen-T/F 2776 04-12-2014 00:00:00 2.32917 C 92.6806 % 1.27 C
2777 05-12-2014 00:00:00 4.15278 C 92.7500 % 3.09 C
2778 06-12-2014 00:00:00 4.51389 C 95.0174 % 3.79 C
2779 07-12-2014 00:00:00 4.32049 C 92.1597 % 3.16 C
2780 08-12-2014 00:00:00 3.10625 C 93.1458 % 2.11 C
2781 09-12-2014 00:00:00 2.57569 C 96.3472 % 2.05 C
2782 10-12-2014 00:00:00 4.42118 C 89.8993 % 2.91 C
2783 11-12-2014 00:00:00 6.26736 C 89.8125 % 4.72 C
2784 12-12-2014 00:00:00 9.07951 C 85.8507 % 6.84 C
2785 13-12-2014 00:00:00 4.45625 C 96.4618 % 3.94 C
2786 14-12-2014 00:00:00 2.59063 C 96.5868 % 2.1 C
2787 15-12-2014 00:00:00 3.42986 C 93.8646 % 2.54 C
2788 16-12-2014 00:00:00 6.12049 C 91.8542 % 4.9 C
2789 17-12-2014 00:00:00 6.08021 C 92.4167 % 4.95 C
2790 18-12-2014 00:00:00 11.91597 C 90.3021 % 10.38 C
2791 19-12-2014 00:00:00 10.45243 C 86.8194 % 8.35 C
2792 20-12-2014 00:00:00 5.90764 C 85.4618 % 3.66 C
2793 21-12-2014 00:00:00 6.41042 C 88.0833 % 4.59 C
2794 22-12-2014 00:00:00 8.375 C 87.5139 % 6.43 C
2795 23-12-2014 00:00:00 10.04444 C 85.6222 % 7.75 C
2796 24-12-2014 00:00:00 8.3214 C 86.1158 % 6.14 C
2797 25-12-2014 00:00:00 5.2875 C 85.6027 % 3.08 C
2798 26-12-2014 00:00:00 2.31469 C 97.1259 % 1.91 C
2799 27-12-2014 00:00:00 1.46649 C 94.8796 % 0.74 C
2800 28-12-2014 00:00:00 -3.09591 C 79.8636 % -6.07 C
Sensor: Nr:Datum:Temp:Feuchte:Taupunkt:
Aussen-T/F 2801 29-12-2014 00:00:00 -0.46157 C 89.7388 % -1.94 C
2802 30-12-2014 00:00:00 2.6765 C 92.5574 % 1.59 C
2803 31-12-2014 00:00:00 2.46053 C 93.8487 % 1.57 C
2804 01-01-2015 00:00:00 1.89397 C 96.4741 % 1.39 C
2805 02-01-2015 00:00:00 3.6411 C 89.1575 % 2.03 C
2806 03-01-2015 00:00:00 1.94125 C 94.7000 % 1.18 C
2807 04-01-2015 00:00:00 2.94172 C 93.6503 % 2.02 C
2808 05-01-2015 00:00:00 -0.02447 C 95.0904 % -0.71 C
2809 06-01-2015 00:00:00 0.48846 C 92.6923 % -0.55 C
2810 07-01-2015 00:00:00 2.52604 C 92.4113 % 1.42 C
2811 08-01-2015 00:00:00 6.62222 C 92.6632 % 5.52 C
2812 09-01-2015 00:00:00 9.27879 C 85.8977 % 7.04 C
2813 10-01-2015 00:00:00 13.56872 C 83.0051 % 10.74 C
2814 11-01-2015 00:00:00 5.45068 C 76.2432 % 1.61 C
2815 12-01-2015 00:00:00 6.91962 C 83.3811 % 4.3 C
2816 13-01-2015 00:00:00 10.09231 C 75.4163 % 5.95 C
2817 14-01-2015 00:00:00 5.9911 C 84.6525 % 3.61 C
2818 15-01-2015 00:00:00 10.14352 C 76.1574 % 6.14 C
2819 16-01-2015 00:00:00 6.66424 C 88.4201 % 4.89 C
2820 17-01-2015 00:00:00 3.35174 C 91.5660 % 2.11 C
2821 18-01-2015 00:00:00 1.91111 C 84.4965 % -0.42 C
2822 19-01-2015 00:00:00 0.89028 C 89.3889 % -0.65 C
2823 20-01-2015 00:00:00 0.86285 C 90.8576 % -0.46 C
2824 21-01-2015 00:00:00 -0.0414 C 88.7123 % -1.68 C
2825 22-01-2015 00:00:00 1.45625 C 84.8438 % -0.81 C
Sensor: Nr:Datum:Temp:Feuchte:Taupunkt:
Aussen-T/F 2826 23-01-2015 00:00:00 1.33299 C 89.6736 % -0.17 C
2827 24-01-2015 00:00:00 1.04056 C 91.7189 % -0.15 C
2828 25-01-2015 00:00:00 2.19444 C 94.2396 % 1.37 C
2829 26-01-2015 00:00:00 3.05694 C 95.0069 % 2.34 C
2830 27-01-2015 00:00:00 3.85208 C 93.6806 % 2.93 C
2831 28-01-2015 00:00:00 4.1184 C 90.7604 % 2.75 C
2832 29-01-2015 00:00:00 3.03715 C 88.2431 % 1.29 C
2833 30-01-2015 00:00:00 1.92569 C 90.3715 % 0.52 C
2834 31-01-2015 00:00:00 2.07143 C 87.5437 % 0.23 C
2835 01-02-2015 00:00:00 2.04274 C 93.0565 % 1.04 C
2836 02-02-2015 00:00:00 2.35794 C 89.0635 % 0.75 C
2837 03-02-2015 00:00:00 0.88769 C 90.6462 % -0.46 C
2838 04-02-2015 00:00:00 0.04848 C 87.0379 % -1.84 C
2839 05-02-2015 00:00:00 -1.86778 C 83.7333 % -4.25 C
2840 06-02-2015 00:00:00 0.42153 C 69.7431 % -4.45 C
2841 07-02-2015 00:00:00 -0.6316 C 80.7569 % -3.52 C
2842 08-02-2015 00:00:00 3.19444 C 81.6701 % 0.37 C
2843 09-02-2015 00:00:00 4.06597 C 90.9549 % 2.73 C
2844 10-02-2015 00:00:00 4.96528 C 91.7188 % 3.73 C
2845 11-02-2015 00:00:00 3.82917 C 87.1771 % 1.9 C
2846 12-02-2015 00:00:00 2.75556 C 89.3854 % 1.19 C
2847 13-02-2015 00:00:00 2.27396 C 89.2326 % 0.69 C
2848 14-02-2015 00:00:00 3.73438 C 86.5382 % 1.7 C
2849 15-02-2015 00:00:00 1.72778 C 89.3542 % 0.17 C
2850 16-02-2015 00:00:00 1.82744 C 88.4874 % 0.13 C
Sensor: Nr:Datum:Temp:Feuchte:Taupunkt:
Aussen-T/F 2851 17-02-2015 00:00:00 3.31146 C 88.3646 % 1.58 C
2852 18-02-2015 00:00:00 4.09479 C 89.1493 % 2.47 C
2853 19-02-2015 00:00:00 0.94861 C 88.1007 % -0.79 C
2854 20-02-2015 00:00:00 6.96389 C 77.7326 % 3.35 C
2855 21-02-2015 00:00:00 5.27535 C 85.5972 % 3.06 C
2856 22-02-2015 00:00:00 3.72083 C 82.6285 % 1.05 C
2857 23-02-2015 00:00:00 3.46944 C 89.0000 % 1.83 C
2858 24-02-2015 00:00:00 4.88611 C 84.9757 % 2.58 C
2859 25-02-2015 00:00:00 4.28403 C 89.1215 % 2.65 C
2860 26-02-2015 00:00:00 6.06354 C 89.7708 % 4.51 C
2861 27-02-2015 00:00:00 5.01736 C 91.6632 % 3.78 C
2862 28-02-2015 00:00:00 2.37187 C 85.8854 % 0.26 C
2863 01-03-2015 00:00:00 7.71493 C 80.8125 % 4.63 C
2864 02-03-2015 00:00:00 6.14653 C 79.5556 % 2.88 C
2865 03-03-2015 00:00:00 5.52812 C 78.2778 % 2.05 C
2866 04-03-2015 00:00:00 4.51771 C 82.8576 % 1.86 C
2867 05-03-2015 00:00:00 5.08681 C 83.0556 % 2.45 C
2868 06-03-2015 00:00:00 4.14931 C 84.0660 % 1.71 C
2869 07-03-2015 00:00:00 4.96007 C 81.3993 % 2.05 C
2870 08-03-2015 00:00:00 6.05625 C 83.0174 % 3.4 C
2871 09-03-2015 00:00:00 7.81354 C 84.5938 % 5.38 C
2872 10-03-2015 00:00:00 5.56319 C 96.8542 % 5.1 C
2873 11-03-2015 00:00:00 4.39549 C 87.3090 % 2.48 C
2874 12-03-2015 00:00:00 3.92222 C 82.5382 % 1.23 C
2875 13-03-2015 00:00:00 4.14514 C 76.4688 % 0.39 C
Sensor: Nr:Datum:Temp:Feuchte:Taupunkt:
Aussen-T/F 2876 14-03-2015 00:00:00 4.55451 C 82.5729 % 1.85 C
2877 15-03-2015 00:00:00 4.61042 C 89.4132 % 3.02 C
2878 16-03-2015 00:00:00 4.68368 C 86.6736 % 2.66 C
2879 17-03-2015 00:00:00 7.26632 C 81.9722 % 4.4 C
2880 18-03-2015 00:00:00 9.08924 C 80.6424 % 5.94 C
2881 19-03-2015 00:00:00 7.62431 C 91.9132 % 6.4 C
2882 20-03-2015 00:00:00 8.07465 C 82.3889 % 5.26 C
2883 21-03-2015 00:00:00 5.69201 C 90.0000 % 4.18 C
2884 22-03-2015 00:00:00 5.19792 C 82.4965 % 2.47 C
2885 23-03-2015 00:00:00 3.85521 C 84.2118 % 1.44 C
2886 24-03-2015 00:00:00 6.94167 C 81.1181 % 3.93 C
2887 25-03-2015 00:00:00 7.68056 C 84.0729 % 5.17 C
2888 26-03-2015 00:00:00 7.17257 C 77.3333 % 3.48 C
2889 27-03-2015 00:00:00 7.64965 C 74.8472 % 3.48 C
2890 28-03-2015 00:00:00 8.51667 C 79.0243 % 5.09 C
2891 29-03-2015 00:00:00 11.63659 C 83.7029 % 8.98 C
2892 30-03-2015 00:00:00 8.21597 C 71.2222 % 3.32 C
2893 31-03-2015 00:00:00 10.06181 C 74.1771 % 5.68 C
2894 01-04-2015 00:00:00 6.38924 C 70.3542 % 1.4 C
2895 02-04-2015 00:00:00 6.45868 C 73.6250 % 2.1 C
2896 03-04-2015 00:00:00 5.87951 C 71.3819 % 1.11 C
2897 04-04-2015 00:00:00 6.24896 C 76.7882 % 2.49 C
2898 05-04-2015 00:00:00 5.21354 C 69.6042 % 0.12 C
2899 06-04-2015 00:00:00 5.33542 C 76.9201 % 1.62 C
2900 07-04-2015 00:00:00 5.98646 C 76.3785 % 2.16 C
Sensor: Nr:Datum:Temp:Feuchte:Taupunkt:
Aussen-T/F 2901 08-04-2015 00:00:00 8.43776 C 77.5594 % 4.75 C
2902 09-04-2015 00:00:00 11.19653 C 77.2118 % 7.36 C
2903 10-04-2015 00:00:00 13.22708 C 68.0278 % 7.46 C
2904 11-04-2015 00:00:00 12.37118 C 70.6736 % 7.2 C
2905 12-04-2015 00:00:00 11.34444 C 70.3090 % 6.14 C
2906 13-04-2015 00:00:00 11.50104 C 69.8576 % 6.2 C
2907 14-04-2015 00:00:00 13.37778 C 67.0347 % 7.39 C
2908 15-04-2015 00:00:00 16.43472 C 63.5799 % 9.51 C
2909 16-04-2015 00:00:00 15.04757 C 69.6493 % 9.55 C
2910 17-04-2015 00:00:00 11.41736 C 67.7951 % 5.69 C
2911 18-04-2015 00:00:00 8.60486 C 64.9931 % 2.41 C
2912 19-04-2015 00:00:00 9.50903 C 62.7708 % 2.78 C
2913 20-04-2015 00:00:00 12.20312 C 60.9549 % 4.9 C
2914 21-04-2015 00:00:00 13.69549 C 60.5278 % 6.21 C
2915 22-04-2015 00:00:00 10.77465 C 69.4826 % 5.42 C
2916 23-04-2015 00:00:00 10.84062 C 70.1806 % 5.63 C
2917 24-04-2015 00:00:00 13.43403 C 62.6701 % 6.46 C
2918 25-04-2015 00:00:00 12.95486 C 81.1250 % 9.8 C
2919 26-04-2015 00:00:00 15.34444 C 79.1736 % 11.76 C
2920 27-04-2015 00:00:00 10.42014 C 94.5868 % 9.59 C
2921 28-04-2015 00:00:00 9.15382 C 73.6910 % 4.71 C
2922 29-04-2015 00:00:00 8.3059 C 73.2951 % 3.82 C
2923 30-04-2015 00:00:00 9.85764 C 80.8819 % 6.73 C
2924 01-05-2015 00:00:00 8.17979 C 82.7700 % 5.43 C
2925 02-05-2015 00:00:00 9.88958 C 78.1007 % 6.26 C
Sensor: Nr:Datum:Temp:Feuchte:Taupunkt:
Aussen-T/F 2926 03-05-2015 00:00:00 13.80469 C 89.9856 % 12.19 C
2927 04-05-2015 00:00:00 16.61875 C 81.1319 % 13.37 C
2928 05-05-2015 00:00:00 18.45035 C 74.4514 % 13.83 C
2929 06-05-2015 00:00:00 13.3566 C 69.4306 % 7.89 C
2930 07-05-2015 00:00:00 13.35764 C 65.8646 % 7.12 C
2931 08-05-2015 00:00:00 14.46632 C 68.7951 % 8.81 C
2932 09-05-2015 00:00:00 15.2441 C 75.9410 % 11.03 C
2933 10-05-2015 00:00:00 14.78229 C 75.1944 % 10.44 C
2934 11-05-2015 00:00:00 17.12812 C 73.8611 % 12.43 C
2935 12-05-2015 00:00:00 18.0309 C 74.6181 % 13.46 C
2936 13-05-2015 00:00:00 14.45208 C 67.5590 % 8.53 C
2937 14-05-2015 00:00:00 14.14351 C 72.7298 % 9.33 C
2938 15-05-2015 00:00:00 15.02882 C 77.6215 % 11.15 C
2939 16-05-2015 00:00:00 12.01528 C 78.7569 % 8.45 C
2940 17-05-2015 00:00:00 14.18924 C 70.3750 % 8.88 C
2941 18-05-2015 00:00:00 15.27535 C 65.6250 % 8.88 C
2942 19-05-2015 00:00:00 13.64941 C 60.6403 % 6.19 C
2943 20-05-2015 00:00:00 11.71144 C 70.5166 % 6.54 C
2944 21-05-2015 00:00:00 11.60764 C 69.7118 % 6.27 C
2945 22-05-2015 00:00:00 15.74722 C 61.0868 % 8.27 C
2946 23-05-2015 00:00:00 15.85278 C 71.0625 % 10.62 C
2947 24-05-2015 00:00:00 17.02887 C 75.7852 % 12.73 C
2948 25-05-2015 00:00:00 13.82968 C 88.0452 % 11.89 C
2949 26-05-2015 00:00:00 11.87604 C 75.6736 % 7.72 C
2950 27-05-2015 00:00:00 11.63958 C 70.3194 % 6.43 C
Sensor: Nr:Datum:Temp:Feuchte:Taupunkt:
Aussen-T/F 2951 28-05-2015 00:00:00 14.21944 C 69.5104 % 8.73 C
2952 29-05-2015 00:00:00 13.27367 C 76.0712 % 9.15 C
2953 30-05-2015 00:00:00 12.66319 C 71.2188 % 7.59 C
2954 31-05-2015 00:00:00 14.50903 C 73.4653 % 9.83 C
2955 01-06-2015 00:00:00 14.86667 C 79.3472 % 11.33 C
2956 02-06-2015 00:00:00 16.57639 C 73.3056 % 11.78 C
2957 03-06-2015 00:00:00 17.74965 C 70.8646 % 12.4 C
2958 04-06-2015 00:00:00 18.54896 C 65.3993 % 11.94 C
2959 05-06-2015 00:00:00 22.1191 C 67.8681 % 15.91 C
2960 06-06-2015 00:00:00 19.94028 C 80.0208 % 16.39 C
2961 07-06-2015 00:00:00 18.04306 C 59.8576 % 10.13 C
2962 08-06-2015 00:00:00 16.17222 C 63.8056 % 9.32 C
2963 09-06-2015 00:00:00 14.94792 C 62.4688 % 7.85 C
2964 10-06-2015 00:00:00 17.10208 C 66.1146 % 10.73 C
2965 11-06-2015 00:00:00 19.95895 C 61.7825 % 12.41 C
2966 12-06-2015 00:00:00 19.48699 C 78.0855 % 15.57 C
2967 13-06-2015 00:00:00 18.63958 C 85.4028 % 16.14 C
2968 14-06-2015 00:00:00 19.07708 C 68.7674 % 13.21 C
2969 15-06-2015 00:00:00 17.59271 C 74.7535 % 13.06 C
2970 16-06-2015 00:00:00 15.68924 C 63.0868 % 8.69 C
2971 17-06-2015 00:00:00 15.5816 C 65.6250 % 9.18 C
2972 18-06-2015 00:00:00 17.15625 C 75.1736 % 12.73 C
2973 19-06-2015 00:00:00 12.7559 C 82.5104 % 9.86 C
2974 20-06-2015 00:00:00 13.05547 C 82.0000 % 10.06 C
2975 21-06-2015 00:00:00 15.43396 C 84.8358 % 12.9 C
Sensor: Nr:Datum:Temp:Feuchte:Taupunkt:
Aussen-T/F 2976 22-06-2015 00:00:00 13.19855 C 87.9273 % 11.24 C
2977 23-06-2015 00:00:00 11.71206 C 92.2057 % 10.49 C
2978 24-06-2015 00:00:00 14.96215 C 81.0417 % 11.74 C
2979 25-06-2015 00:00:00 17.94306 C 75.7118 % 13.6 C
2980 26-06-2015 00:00:00 19.40139 C 78.2465 % 15.52 C
2981 27-06-2015 00:00:00 20.26461 C 74.9877 % 15.69 C
2982 28-06-2015 00:00:00 18.39741 C 72.8405 % 13.44 C
2983 29-06-2015 00:00:00 23.63875 C 61.7438 % 15.87 C
2984 30-06-2015 00:00:00 21.94847 C 63.2710 % 14.65 C
2985 01-07-2015 00:00:00 24.13993 C 63.3022 % 16.73 C
2986 02-07-2015 00:00:00 26.83474 C 64.8246 % 19.66 C
2987 03-07-2015 00:00:00 28.2408 C 65.4400 % 21.14 C
2988 04-07-2015 00:00:00 27.77951 C 67.8229 % 21.29 C
2989 05-07-2015 00:00:00 26.75417 C 64.4028 % 19.47 C
2990 06-07-2015 00:00:00 23.89674 C 54.1630 % 14.07 C
2991 07-07-2015 00:00:00 23.4251 C 64.1833 % 16.27 C
2992 08-07-2015 00:00:00 17.62465 C 71.6944 % 12.45 C
2993 09-07-2015 00:00:00 16.50669 C 68.3134 % 10.65 C
2994 10-07-2015 00:00:00 17.02947 C 57.6175 % 8.61 C
2995 11-07-2015 00:00:00 21.24132 C 54.9340 % 11.83 C
2996 12-07-2015 00:00:00 19.0157 C 71.3264 % 13.71 C
2997 13-07-2015 00:00:00 17.93777 C 85.0638 % 15.39 C
2998 14-07-2015 00:00:00 21.06476 C 74.5551 % 16.37 C
2999 15-07-2015 00:00:00 21.59368 C 75.8000 % 17.14 C
3000 16-07-2015 00:00:00 24.00382 C 71.6667 % 18.57 C
Sensor: Nr:Datum:Temp:Feuchte:Taupunkt:
Aussen-T/F 3001 17-07-2015 00:00:00 28.34301 C 50.2206 % 16.99 C
3002 18-07-2015 00:00:00 23.63602 C 62.5441 % 16.06 C
3003 19-07-2015 00:00:00 21.84756 C 77.9451 % 17.83 C
3004 20-07-2015 00:00:00 22.02667 C 88.1833 % 19.98 C
3005 21-07-2015 00:00:00 26.21048 C 69.2476 % 20.13 C
3006 22-07-2015 00:00:00 23.3275 C 74.4857 % 18.53 C
3007 23-07-2015 00:00:00 20.60312 C 64.9514 % 13.78 C
3008 24-07-2015 00:00:00 21.45543 C 69.6180 % 15.67 C
3009 25-07-2015 00:00:00 17.38849 C 77.9048 % 13.5 C
3010 26-07-2015 00:00:00 15.82244 C 71.9961 % 10.79 C
3011 27-07-2015 00:00:00 17.63472 C 81.2604 % 14.39 C
3012 28-07-2015 00:00:00 17.16294 C 63.9825 % 10.3 C
3013 29-07-2015 00:00:00 17.78846 C 55.9808 % 8.9 C
3014 30-07-2015 00:00:00 14.2708 C 74.1720 % 9.74 C
3015 31-07-2015 00:00:00 16.9314 C 65.0744 % 10.33 C
3016 01-08-2015 00:00:00 19.24097 C 59.1319 % 11.07 C
3017 02-08-2015 00:00:00 20.84722 C 61.6979 % 13.23 C
3018 03-08-2015 00:00:00 23.19217 C 57.6157 % 14.37 C
3019 04-08-2015 00:00:00 19.03299 C 81.7396 % 15.84 C
3020 05-08-2015 00:00:00 19.79201 C 76.1424 % 15.47 C
3021 06-08-2015 00:00:00 24 C 66.2153 % 17.31 C
3022 07-08-2015 00:00:00 26.94306 C 61.3715 % 18.88 C
3023 08-08-2015 00:00:00 22.82014 C 79.2431 % 19.03 C
3024 09-08-2015 00:00:00 21.98785 C 77.7708 % 17.93 C
3025 10-08-2015 00:00:00 19.76944 C 83.2465 % 16.85 C
Sensor: Nr:Datum:Temp:Feuchte:Taupunkt:
Aussen-T/F 3026 11-08-2015 00:00:00 21.91979 C 74.4583 % 17.17 C
3027 12-08-2015 00:00:00 23.09896 C 77.4583 % 18.94 C
3028 13-08-2015 00:00:00 25.32292 C 70.7535 % 19.63 C
3029 14-08-2015 00:00:00 24.17396 C 69.3611 % 18.21 C
3030 15-08-2015 00:00:00 20.86319 C 72.4201 % 15.72 C
3031 16-08-2015 00:00:00 15.85799 C 89.8924 % 14.2 C
3032 17-08-2015 00:00:00 14.78889 C 90.7396 % 13.29 C
3033 18-08-2015 00:00:00 15.90625 C 82.9757 % 13.02 C
3034 19-08-2015 00:00:00 15.71493 C 78.1458 % 11.92 C
3035 20-08-2015 00:00:00 18.10382 C 74.0625 % 13.41 C
3036 21-08-2015 00:00:00 18.85764 C 70.1910 % 13.31 C
3037 22-08-2015 00:00:00 19.10729 C 64.2708 % 12.21 C
3038 23-08-2015 00:00:00 19.89722 C 63.7431 % 12.83 C
3039 24-08-2015 00:00:00 19.22187 C 83.3750 % 16.34 C
3040 25-08-2015 00:00:00 17.40729 C 68.3472 % 11.52 C
3041 26-08-2015 00:00:00 20.71458 C 65.1667 % 13.94 C
3042 27-08-2015 00:00:00 18.60486 C 83.2986 % 15.72 C
3043 28-08-2015 00:00:00 16.57292 C 89.2813 % 14.8 C
3044 29-08-2015 00:00:00 19.31181 C 88.3993 % 17.35 C
3045 30-08-2015 00:00:00 23.12396 C 82.7396 % 20.03 C
3046 31-08-2015 00:00:00 24.2934 C 69.7604 % 18.42 C
3047 01-09-2015 00:00:00 17.4059 C 90.9826 % 15.92 C
3048 02-09-2015 00:00:00 15.13229 C 84.9479 % 12.62 C
3049 03-09-2015 00:00:00 13.95937 C 84.7326 % 11.43 C
3050 04-09-2015 00:00:00 13.54792 C 79.5833 % 10.09 C
Sensor: Nr:Datum:Temp:Feuchte:Taupunkt:
Aussen-T/F 3051 05-09-2015 00:00:00 13.21701 C 84.4479 % 10.65 C
3052 06-09-2015 00:00:00 13.11632 C 74.0868 % 8.61 C
3053 07-09-2015 00:00:00 13.56493 C 87.0000 % 11.44 C
3054 08-09-2015 00:00:00 15.09236 C 84.9271 % 12.58 C
3055 09-09-2015 00:00:00 15.60139 C 76.2118 % 11.43 C
3056 10-09-2015 00:00:00 13.23854 C 76.5972 % 9.22 C
3057 11-09-2015 00:00:00 13.19792 C 79.2847 % 9.69 C
3058 12-09-2015 00:00:00 15.35312 C 83.7361 % 12.62 C
3059 13-09-2015 00:00:00 17.07153 C 92.6042 % 15.86 C
3060 14-09-2015 00:00:00 15.52639 C 91.7431 % 14.19 C
3061 15-09-2015 00:00:00 12.94931 C 87.0938 % 10.86 C
3062 16-09-2015 00:00:00 15.01667 C 93.7153 % 14.01 C
3063 17-09-2015 00:00:00 14.6566 C 91.2049 % 13.24 C
3064 18-09-2015 00:00:00 14.53542 C 85.5278 % 12.14 C
3065 19-09-2015 00:00:00 14.32292 C 87.2118 % 12.23 C
3066 20-09-2015 00:00:00 13.77188 C 84.7743 % 11.26 C
3067 21-09-2015 00:00:00 12.22847 C 90.1354 % 10.66 C
3068 22-09-2015 00:00:00 13.06701 C 91.6285 % 11.74 C
3069 23-09-2015 00:00:00 11.92535 C 93.3056 % 10.88 C
3070 24-09-2015 00:00:00 13.09618 C 90.9340 % 11.65 C
3071 25-09-2015 00:00:00 13.95278 C 87.2257 % 11.86 C
3072 26-09-2015 00:00:00 12.73889 C 89.2049 % 11.01 C
3073 27-09-2015 00:00:00 11.29236 C 83.7500 % 8.65 C
3074 28-09-2015 00:00:00 10.50729 C 82.5556 % 7.67 C
3075 29-09-2015 00:00:00 10.96979 C 81.2257 % 7.88 C
Sensor: Nr:Datum:Temp:Feuchte:Taupunkt:
Aussen-T/F 3076 30-09-2015 00:00:00 10.73368 C 77.8993 % 7.04 C
3077 01-10-2015 00:00:00 9.88646 C 74.8576 % 5.64 C
3078 02-10-2015 00:00:00 9.21528 C 85.2083 % 6.86 C
3079 03-10-2015 00:00:00 11.40139 C 85.8993 % 9.13 C
3080 04-10-2015 00:00:00 12.61562 C 91.5000 % 11.27 C
3081 05-10-2015 00:00:00 11.96597 C 92.3958 % 10.77 C
3082 06-10-2015 00:00:00 15.93854 C 95.3576 % 15.2 C
3083 07-10-2015 00:00:00 14.99028 C 89.4375 % 13.27 C
3084 08-10-2015 00:00:00 13.45521 C 86.9167 % 11.32 C
3085 09-10-2015 00:00:00 12.29618 C 93.3993 % 11.26 C
3086 10-10-2015 00:00:00 12.19271 C 87.9236 % 10.25 C
3087 11-10-2015 00:00:00 8.37431 C 76.8542 % 4.56 C
3088 12-10-2015 00:00:00 5.28229 C 82.6007 % 2.57 C
3089 13-10-2015 00:00:00 4.33542 C 90.2049 % 2.88 C
3090 14-10-2015 00:00:00 3.63333 C 95.0139 % 2.91 C
3091 15-10-2015 00:00:00 4.25694 C 95.2500 % 3.57 C
3092 16-10-2015 00:00:00 6.52431 C 92.4236 % 5.39 C
3093 17-10-2015 00:00:00 6.99375 C 89.5000 % 5.39 C
3094 18-10-2015 00:00:00 7.25556 C 90.9896 % 5.89 C
3095 19-10-2015 00:00:00 8.22361 C 91.6285 % 6.94 C
3096 20-10-2015 00:00:00 9.33576 C 93.8785 % 8.4 C
3097 21-10-2015 00:00:00 9.83611 C 91.5903 % 8.53 C
3098 22-10-2015 00:00:00 11.18472 C 88.5000 % 9.36 C
3099 23-10-2015 00:00:00 10.26979 C 95.0417 % 9.51 C
3100 24-10-2015 00:00:00 11.03438 C 89.7465 % 9.42 C
Sensor: Nr:Datum:Temp:Feuchte:Taupunkt:
Aussen-T/F 3101 25-10-2015 00:00:00 11.68229 C 92.6528 % 10.53 C
3102 26-10-2015 00:00:00 9.55312 C 94.6736 % 8.74 C
3103 27-10-2015 00:00:00 8.10278 C 94.6701 % 7.3 C
3104 28-10-2015 00:00:00 9.54444 C 91.5382 % 8.24 C
3105 29-10-2015 00:00:00 10.48299 C 92.5799 % 9.33 C
3106 30-10-2015 00:00:00 7.79965 C 95.7917 % 7.17 C
3107 31-10-2015 00:00:00 7.27118 C 93.9479 % 6.36 C
3108 01-11-2015 00:00:00 6.57708 C 96.2118 % 6.02 C
3109 02-11-2015 00:00:00 4.67431 C 96.7049 % 4.2 C
3110 03-11-2015 00:00:00 4.99896 C 95.2813 % 4.31 C
3111 04-11-2015 00:00:00 7.79549 C 94.1146 % 6.91 C
3112 05-11-2015 00:00:00 10.38299 C 95.2569 % 9.66 C
3113 06-11-2015 00:00:00 13.31493 C 92.8854 % 12.19 C
3114 07-11-2015 00:00:00 16.40417 C 94.1493 % 15.46 C
3115 08-11-2015 00:00:00 12.97292 C 95.2118 % 12.23 C
3116 09-11-2015 00:00:00 14.80846 C 83.2353 % 11.99 C
3117 10-11-2015 00:00:00 13.07951 C 84.1493 % 10.47 C
3118 11-11-2015 00:00:00 11.7066 C 84.5625 % 9.2 C
3119 12-11-2015 00:00:00 11.71562 C 87.6354 % 9.73 C
3120 13-11-2015 00:00:00 10.51875 C 88.3993 % 8.68 C
3121 14-11-2015 00:00:00 8.91806 C 83.4722 % 6.27 C
3122 15-11-2015 00:00:00 12.53854 C 84.1944 % 9.95 C
3123 16-11-2015 00:00:00 11.63438 C 83.7708 % 8.99 C
3124 17-11-2015 00:00:00 14.03889 C 89.3438 % 12.31 C
3125 18-11-2015 00:00:00 13.87604 C 73.4063 % 9.21 C
Sensor: Nr:Datum:Temp:Feuchte:Taupunkt:
Aussen-T/F 3126 19-11-2015 00:00:00 12.23611 C 85.8750 % 9.94 C
3127 20-11-2015 00:00:00 7.64444 C 94.6667 % 6.84 C
3128 21-11-2015 00:00:00 3.88021 C 91.2500 % 2.59 C
3129 22-11-2015 00:00:00 2.85139 C 91.2396 % 1.57 C
3130 23-11-2015 00:00:00 2.48125 C 91.7917 % 1.29 C
3131 24-11-2015 00:00:00 1.88785 C 89.9931 % 0.42 C
3132 25-11-2015 00:00:00 4.63646 C 91.6528 % 3.4 C
3133 26-11-2015 00:00:00 4.92257 C 92.5174 % 3.81 C
3134 27-11-2015 00:00:00 2.23299 C 94.7951 % 1.49 C
3135 28-11-2015 00:00:00 4.42821 C 85.6357 % 2.24 C
3136 29-11-2015 00:00:00 9.10451 C 86.0660 % 6.9 C
3137 30-11-2015 00:00:00 9.89514 C 90.3056 % 8.38 C
3138 01-12-2015 00:00:00 11.24618 C 92.4410 % 10.07 C
3139 02-12-2015 00:00:00 9.85729 C 87.9375 % 7.96 C
3140 03-12-2015 00:00:00 7.55664 C 86.3252 % 5.42 C
3141 04-12-2015 00:00:00 6.93333 C 91.5694 % 5.66 C
3142 05-12-2015 00:00:00 6.05903 C 89.7500 % 4.51 C
3143 06-12-2015 00:00:00 8.44861 C 86.8160 % 6.38 C
3144 07-12-2015 00:00:00 8.35868 C 92.6840 % 7.24 C
3145 08-12-2015 00:00:00 4.51007 C 97.2292 % 4.11 C
3146 09-12-2015 00:00:00 6.58229 C 94.7396 % 5.8 C
3147 10-12-2015 00:00:00 3.22882 C 93.5590 % 2.29 C
3148 11-12-2015 00:00:00 4.75451 C 92.5069 % 3.65 C
3149 12-12-2015 00:00:00 8.05903 C 95.3681 % 7.36 C
3150 13-12-2015 00:00:00 8.6316 C 90.9167 % 7.23 C
Sensor: Nr:Datum:Temp:Feuchte:Taupunkt:
Aussen-T/F 3151 14-12-2015 00:00:00 5.9875 C 96.5243 % 5.48 C
3152 15-12-2015 00:00:00 5.6816 C 96.2813 % 5.14 C
3153 16-12-2015 00:00:00 9.66146 C 97.4514 % 9.28 C
3154 17-12-2015 00:00:00 12.51647 C 94.1098 % 11.6 C
3155 18-12-2015 00:00:00 11.17396 C 93.8472 % 10.22 C
3156 19-12-2015 00:00:00 11.26667 C 91.7708 % 9.98 C
3157 20-12-2015 00:00:00 7.84687 C 96.5278 % 7.33 C
3158 21-12-2015 00:00:00 10.07014 C 88.0938 % 8.19 C
3159 22-12-2015 00:00:00 11.62281 C 82.5175 % 8.75 C
3160 23-12-2015 00:00:00 10.964 C 81.0000 % 7.83 C
3161 24-12-2015 00:00:00 11.76867 C 85.1506 % 9.36 C
3162 25-12-2015 00:00:00 11.08646 C 87.9063 % 9.16 C
3163 26-12-2015 00:00:00 10.37257 C 87.6354 % 8.41 C
3164 27-12-2015 00:00:00 7.5375 C 92.7847 % 6.45 C
3165 28-12-2015 00:00:00 2.6941 C 97.0833 % 2.28 C
3166 29-12-2015 00:00:00 3.10521 C 97.6493 % 2.77 C
3167 30-12-2015 00:00:00 4.88299 C 93.8507 % 3.98 C
3168 31-12-2015 00:00:00 5.0934 C 93.0000 % 4.06 C
3169 01-01-2016 00:00:00 4.17222 C 95.5521 % 3.53 C
3170 02-01-2016 00:00:00 4.50451 C 93.6563 % 3.57 C
3171 03-01-2016 00:00:00 5.64826 C 92.3889 % 4.51 C
3172 04-01-2016 00:00:00 5.3184 C 94.4861 % 4.51 C
3173 05-01-2016 00:00:00 6.45694 C 91.6285 % 5.2 C
3174 06-01-2016 00:00:00 5.95903 C 94.3542 % 5.12 C
3175 07-01-2016 00:00:00 5.04028 C 94.1042 % 4.17 C
Sensor: Nr:Datum:Temp:Feuchte:Taupunkt:
Aussen-T/F 3176 08-01-2016 00:00:00 3.28646 C 90.7396 % 1.92 C
3177 09-01-2016 00:00:00 1.12292 C 97.2361 % 0.73 C
3178 10-01-2016 00:00:00 6.27708 C 91.8785 % 5.06 C
3179 11-01-2016 00:00:00 5.25729 C 94.6875 % 4.48 C
3180 12-01-2016 00:00:00 5.58229 C 88.8229 % 3.89 C
3181 13-01-2016 00:00:00 4.93333 C 89.9931 % 3.43 C
3182 14-01-2016 00:00:00 3.31701 C 89.1944 % 1.71 C
3183 15-01-2016 00:00:00 2.89062 C 90.6806 % 1.52 C
3184 16-01-2016 00:00:00 2.0875 C 90.9653 % 0.77 C
3185 17-01-2016 00:00:00 0.26424 C 83.9583 % -2.12 C
3186 18-01-2016 00:00:00 -4.85799 C 90.6840 % -6.14 C
3187 19-01-2016 00:00:00 -5.27882 C 89.7257 % -6.7 C
3188 20-01-2016 00:00:00 -1.61806 C 91.4618 % -2.82 C
3189 21-01-2016 00:00:00 0.6684 C 92.9618 % -0.34 C
3190 22-01-2016 00:00:00 -2.10729 C 91.9201 % -3.24 C
3191 23-01-2016 00:00:00 4.1559 C 94.7465 % 3.39 C
3192 24-01-2016 00:00:00 5.37396 C 93.7882 % 4.46 C
3193 25-01-2016 00:00:00 7.51076 C 93.2813 % 6.5 C
3194 26-01-2016 00:00:00 9.35729 C 85.4410 % 7.04 C
3195 27-01-2016 00:00:00 11.44792 C 70.5313 % 6.29 C
3196 28-01-2016 00:00:00 7.3625 C 85.9931 % 5.18 C
3197 29-01-2016 00:00:00 5.64583 C 86.0833 % 3.51 C
3198 30-01-2016 00:00:00 7.42914 C 86.8885 % 5.39 C
3199 31-01-2016 00:00:00 6.31944 C 89.3819 % 4.7 C
3200 01-02-2016 00:00:00 11.92326 C 84.3993 % 9.38 C
Sensor: Nr:Datum:Temp:Feuchte:Taupunkt:
Aussen-T/F 3201 02-02-2016 00:00:00 10.40035 C 86.6354 % 8.27 C
3202 03-02-2016 00:00:00 5.14306 C 85.1354 % 2.86 C
3203 04-02-2016 00:00:00 4.62118 C 90.7153 % 3.24 C
3204 05-02-2016 00:00:00 7.46076 C 91.2847 % 6.13 C
3205 06-02-2016 00:00:00 8.36806 C 86.5069 % 6.25 C
3206 07-02-2016 00:00:00 9.22743 C 76.8021 % 5.37 C
3207 08-02-2016 00:00:00 8.09062 C 80.4167 % 4.93 C
3208 09-02-2016 00:00:00 7.11076 C 85.9306 % 4.92 C
3209 10-02-2016 00:00:00 4.86562 C 85.1493 % 2.59 C
3210 11-02-2016 00:00:00 4.89444 C 87.2674 % 2.96 C
3211 12-02-2016 00:00:00 3.0316 C 85.9826 % 0.92 C
3212 13-02-2016 00:00:00 1.57049 C 93.5625 % 0.65 C
3213 14-02-2016 00:00:00 4.64965 C 94.9931 % 3.92 C
3214 15-02-2016 00:00:00 2.20278 C 91.7396 % 1 C
3215 16-02-2016 00:00:00 0.19792 C 81.4688 % -2.59 C
3216 17-02-2016 00:00:00 0.40625 C 88.6771 % -1.24 C
3217 18-02-2016 00:00:00 2.11285 C 85.4514 % -0.07 C
3218 19-02-2016 00:00:00 1.43507 C 92.3472 % 0.33 C
3219 20-02-2016 00:00:00 6.41528 C 92.1944 % 5.24 C
3220 21-02-2016 00:00:00 11.8375 C 88.1042 % 9.93 C
3221 22-02-2016 00:00:00 9.57778 C 85.1250 % 7.21 C
3222 23-02-2016 00:00:00 2.26424 C 95.8333 % 1.67 C
3223 24-02-2016 00:00:00 2.15243 C 91.2674 % 0.88 C
3224 25-02-2016 00:00:00 0.66597 C 90.3507 % -0.73 C
3225 26-02-2016 00:00:00 2.36771 C 85.4931 % 0.19 C
Sensor: Nr:Datum:Temp:Feuchte:Taupunkt:
Aussen-T/F 3226 27-02-2016 00:00:00 2.35694 C 77.3333 % -1.19 C
3227 28-02-2016 00:00:00 2.12509 C 77.4145 % -1.4 C
3228 29-02-2016 00:00:00 3.32569 C 70.7847 % -1.46 C
3229 01-03-2016 00:00:00 1.1875 C 81.7361 % -1.58 C
3230 02-03-2016 00:00:00 6.5125 C 83.4375 % 3.91 C
3231 03-03-2016 00:00:00 3.61736 C 87.0208 % 1.66 C
3232 04-03-2016 00:00:00 1.76528 C 93.4722 % 0.83 C
3233 05-03-2016 00:00:00 4.32153 C 92.1042 % 3.16 C
3234 06-03-2016 00:00:00 3.0434 C 94.2535 % 2.21 C
3235 07-03-2016 00:00:00 2.40347 C 93.7049 % 1.5 C
3236 08-03-2016 00:00:00 1.75521 C 90.5972 % 0.39 C
3237 09-03-2016 00:00:00 2.60799 C 83.1042 % 0.04 C
3238 10-03-2016 00:00:00 2.73576 C 83.8264 % 0.28 C
3239 11-03-2016 00:00:00 4.25868 C 83.4757 % 1.71 C
3240 12-03-2016 00:00:00 4.36424 C 78.1215 % 0.9 C
3241 13-03-2016 00:00:00 5.06944 C 77.3924 % 1.45 C
3242 14-03-2016 00:00:00 4.20451 C 71.0174 % -0.57 C
3243 15-03-2016 00:00:00 3.53264 C 80.5833 % 0.52 C
3244 16-03-2016 00:00:00 4.7066 C 73.0556 % 0.3 C
3245 17-03-2016 00:00:00 4.57049 C 75.0625 % 0.54 C
3246 18-03-2016 00:00:00 3.8934 C 83.0868 % 1.29 C
3247 19-03-2016 00:00:00 5.67465 C 87.0938 % 3.7 C
3248 20-03-2016 00:00:00 5.89583 C 80.9514 % 2.88 C
3249 21-03-2016 00:00:00 7.0625 C 84.7813 % 4.68 C
3250 22-03-2016 00:00:00 8.10035 C 79.6354 % 4.8 C
Sensor: Nr:Datum:Temp:Feuchte:Taupunkt:
Aussen-T/F 3251 23-03-2016 00:00:00 7.93438 C 81.8576 % 5.03 C
3252 24-03-2016 00:00:00 7.05069 C 85.9410 % 4.86 C
3253 25-03-2016 00:00:00 6.93125 C 92.5347 % 5.81 C
3254 26-03-2016 00:00:00 9.02778 C 82.5382 % 6.22 C
3255 27-03-2016 00:00:00 9.36558 C 82.0543 % 6.46 C
3256 28-03-2016 00:00:00 8.24167 C 84.3993 % 5.77 C
3257 29-03-2016 00:00:00 9.19792 C 74.2535 % 4.86 C
3258 30-03-2016 00:00:00 9.98958 C 84.7431 % 7.54 C
3259 31-03-2016 00:00:00 7.10243 C 92.7153 % 6 C
3260 01-04-2016 00:00:00 7.02396 C 85.1076 % 4.7 C
3261 02-04-2016 00:00:00 8.56007 C 85.2361 % 6.23 C
3262 03-04-2016 00:00:00 13.56285 C 81.3472 % 10.43 C
3263 04-04-2016 00:00:00 13.63299 C 81.7951 % 10.58 C
3264 05-04-2016 00:00:00 11.25069 C 92.5313 % 10.09 C
3265 06-04-2016 00:00:00 10.87153 C 79.3507 % 7.44 C
3266 07-04-2016 00:00:00 8.49479 C 75.7014 % 4.46 C
3267 08-04-2016 00:00:00 6.48403 C 79.6181 % 3.22 C
3268 09-04-2016 00:00:00 8.00139 C 72.3785 % 3.34 C
3269 10-04-2016 00:00:00 11.74757 C 69.9479 % 6.45 C
3270 11-04-2016 00:00:00 12.00972 C 70.4757 % 6.81 C
3271 12-04-2016 00:00:00 11.31181 C 78.9861 % 7.8 C
3272 13-04-2016 00:00:00 8.81354 C 93.8854 % 7.88 C
3273 14-04-2016 00:00:00 10.59722 C 80.6215 % 7.41 C
3274 15-04-2016 00:00:00 13.04618 C 74.1493 % 8.55 C
3275 16-04-2016 00:00:00 11.99514 C 81.5035 % 8.93 C
Sensor: Nr:Datum:Temp:Feuchte:Taupunkt:
Aussen-T/F 3276 17-04-2016 00:00:00 8.41111 C 77.1875 % 4.65 C
3277 18-04-2016 00:00:00 7.11632 C 74.6910 % 2.94 C
3278 19-04-2016 00:00:00 8.83507 C 72.7292 % 4.22 C
3279 20-04-2016 00:00:00 9.1559 C 66.4826 % 3.25 C
3280 21-04-2016 00:00:00 11.43229 C 64.2431 % 4.93 C
3281 22-04-2016 00:00:00 13.17674 C 62.2014 % 6.11 C
3282 23-04-2016 00:00:00 7.88299 C 78.2292 % 4.33 C
3283 24-04-2016 00:00:00 5.24444 C 78.5243 % 1.82 C
3284 25-04-2016 00:00:00 4.71632 C 85.9792 % 2.58 C
3285 26-04-2016 00:00:00 4.5934 C 82.9306 % 1.95 C
3286 27-04-2016 00:00:00 5.57465 C 78.2847 % 2.1 C
3287 28-04-2016 00:00:00 6.65 C 71.1007 % 1.8 C
3288 29-04-2016 00:00:00 7.88056 C 69.0972 % 2.58 C
3289 30-04-2016 00:00:00 7.70174 C 83.3611 % 5.06 C
3290 01-05-2016 00:00:00 10.10486 C 81.5451 % 7.09 C
3291 02-05-2016 00:00:00 12.06389 C 73.2674 % 7.43 C
3292 03-05-2016 00:00:00 10.93785 C 75.7222 % 6.83 C
3293 04-05-2016 00:00:00 9.10035 C 68.4063 % 3.6 C
3294 05-05-2016 00:00:00 11.45347 C 67.3507 % 5.63 C
3295 06-05-2016 00:00:00 15.34618 C 68.6806 % 9.63 C
3296 07-05-2016 00:00:00 16.83542 C 65.2604 % 10.28 C
3297 08-05-2016 00:00:00 18.59861 C 52.5521 % 8.72 C
3298 09-05-2016 00:00:00 18.28715 C 61.7326 % 10.82 C
3299 10-05-2016 00:00:00 17.08646 C 77.6076 % 13.15 C
3300 11-05-2016 00:00:00 17.43438 C 75.9340 % 13.15 C
Sensor: Nr:Datum:Temp:Feuchte:Taupunkt:
Aussen-T/F 3301 12-05-2016 00:00:00 17.84271 C 69.8472 % 12.27 C
3302 13-05-2016 00:00:00 14.31736 C 89.5903 % 12.63 C
3303 14-05-2016 00:00:00 10.45972 C 71.9549 % 5.63 C
3304 15-05-2016 00:00:00 9.07743 C 70.0069 % 3.91 C
3305 16-05-2016 00:00:00 9.98819 C 70.5069 % 4.88 C
3306 17-05-2016 00:00:00 12.31563 C 69.0139 % 6.8 C
3307 18-05-2016 00:00:00 14.47535 C 74.1007 % 9.92 C
3308 19-05-2016 00:00:00 14.04722 C 75.6667 % 9.82 C
3309 20-05-2016 00:00:00 14.08125 C 79.6771 % 10.63 C
3310 21-05-2016 00:00:00 17.67708 C 74.5382 % 13.1 C
3311 22-05-2016 00:00:00 18.70312 C 72.9201 % 13.75 C
3312 23-05-2016 00:00:00 14.01632 C 83.2743 % 11.23 C
3313 24-05-2016 00:00:00 10.97431 C 91.3264 % 9.62 C
3314 25-05-2016 00:00:00 12.7125 C 87.5069 % 10.69 C
3315 26-05-2016 00:00:00 14.89826 C 81.0938 % 11.69 C
3316 27-05-2016 00:00:00 16.77849 C 90.6534 % 15.24 C
3317 28-05-2016 00:00:00 18.08383 C 88.8922 % 16.22 C
3318 29-05-2016 00:00:00 17.36528 C 89.6007 % 15.64 C
3319 30-05-2016 00:00:00 17.49722 C 93.2639 % 16.4 C
3320 31-05-2016 00:00:00 16.51458 C 87.4861 % 14.43 C
3321 01-06-2016 00:00:00 15.69931 C 94.7153 % 14.85 C
3322 02-06-2016 00:00:00 17.51979 C 92.0035 % 16.21 C
3323 03-06-2016 00:00:00 16.76875 C 94.6806 % 15.91 C
3324 04-06-2016 00:00:00 17.85104 C 90.8472 % 16.34 C
3325 05-06-2016 00:00:00 19.18611 C 89.0486 % 17.34 C
Sensor: Nr:Datum:Temp:Feuchte:Taupunkt:
Aussen-T/F 3326 06-06-2016 00:00:00 19.18785 C 86.9896 % 16.97 C
3327 07-06-2016 00:00:00 19.88403 C 82.1597 % 16.75 C
3328 08-06-2016 00:00:00 19.56354 C 77.2500 % 15.47 C
3329 09-06-2016 00:00:00 17.3191 C 71.5556 % 12.13 C
3330 10-06-2016 00:00:00 16.15521 C 71.4444 % 10.99 C
3331 11-06-2016 00:00:00 17.56701 C 74.5035 % 12.99 C
3332 12-06-2016 00:00:00 17.18299 C 86.9931 % 15 C
3333 13-06-2016 00:00:00 15.94479 C 94.8472 % 15.12 C
3334 14-06-2016 00:00:00 16.36597 C 87.8507 % 14.35 C
3335 15-06-2016 00:00:00 15.42431 C 86.9340 % 13.26 C
3336 16-06-2016 00:00:00 13.77292 C 93.5903 % 12.76 C
3337 17-06-2016 00:00:00 14.68889 C 90.7882 % 13.2 C
3338 18-06-2016 00:00:00 14.84861 C 87.4549 % 12.79 C
3339 19-06-2016 00:00:00 15.40278 C 75.9653 % 11.19 C
3340 20-06-2016 00:00:00 14.61979 C 81.8958 % 11.56 C
3341 21-06-2016 00:00:00 18.21736 C 88.4757 % 16.28 C
3342 22-06-2016 00:00:00 20.84792 C 87.8333 % 18.76 C
3343 23-06-2016 00:00:00 23.76528 C 81.5243 % 20.41 C
3344 24-06-2016 00:00:00 22.11979 C 90.4826 % 20.49 C
3345 25-06-2016 00:00:00 16.85451 C 95.9306 % 16.2 C
3346 26-06-2016 00:00:00 15.41562 C 85.3854 % 12.98 C
3347 27-06-2016 00:00:00 15.91562 C 86.7743 % 13.72 C
3348 28-06-2016 00:00:00 18.26597 C 84.3646 % 15.58 C
3349 29-06-2016 00:00:00 19.04444 C 74.5521 % 14.42 C
3350 30-06-2016 00:00:00 18.7566 C 80.8264 % 15.4 C
Sensor: Nr:Datum:Temp:Feuchte:Taupunkt:
Aussen-T/F 3351 01-07-2016 00:00:00 19.88194 C 81.0556 % 16.54 C
3352 02-07-2016 00:00:00 16.90868 C 78.6840 % 13.18 C
3353 03-07-2016 00:00:00 15.21559 C 83.5437 % 12.45 C
3354 04-07-2016 00:00:00 17.43333 C 82.9201 % 14.5 C
3355 05-07-2016 00:00:00 19.40903 C 78.1979 % 15.51 C
3356 06-07-2016 00:00:00 16.61042 C 74.0104 % 11.96 C
3357 07-07-2016 00:00:00 17.08576 C 77.8785 % 13.2 C
3358 08-07-2016 00:00:00 18.87222 C 80.7292 % 15.49 C
3359 09-07-2016 00:00:00 21.08889 C 76.2778 % 16.75 C
3360 10-07-2016 00:00:00 21.92535 C 79.2431 % 18.17 C
3361 11-07-2016 00:00:00 21.61701 C 73.7326 % 16.73 C
3362 12-07-2016 00:00:00 19.06354 C 74.7049 % 14.47 C
3363 13-07-2016 00:00:00 14.71319 C 91.3750 % 13.32 C
3364 14-07-2016 00:00:00 14.94583 C 79.4063 % 11.42 C
3365 15-07-2016 00:00:00 16.08229 C 74.0417 % 11.46 C
3366 16-07-2016 00:00:00 16.98542 C 83.0451 % 14.09 C
3367 17-07-2016 00:00:00 21.34757 C 80.4132 % 17.84 C
3368 18-07-2016 00:00:00 21.85069 C 75.3924 % 17.3 C
3369 19-07-2016 00:00:00 21.61667 C 78.1597 % 17.65 C
3370 20-07-2016 00:00:00 23.34097 C 74.8785 % 18.63 C
3371 21-07-2016 00:00:00 21.23924 C 86.6632 % 18.93 C
3372 22-07-2016 00:00:00 20.96806 C 88.7674 % 19.04 C
3373 23-07-2016 00:00:00 20.3434 C 91.5104 % 18.91 C
3374 24-07-2016 00:00:00 22.0941 C 85.4583 % 19.54 C
3375 25-07-2016 00:00:00 21.8191 C 81.6910 % 18.55 C
Sensor: Nr:Datum:Temp:Feuchte:Taupunkt:
Aussen-T/F 3376 26-07-2016 00:00:00 20.20208 C 86.3333 % 17.85 C
3377 27-07-2016 00:00:00 19.62986 C 81.0313 % 16.29 C
3378 28-07-2016 00:00:00 20.20174 C 82.7986 % 17.18 C
3379 29-07-2016 00:00:00 19.81042 C 85.1319 % 17.24 C
3380 30-07-2016 00:00:00 20.55278 C 78.7326 % 16.73 C
3381 31-07-2016 00:00:00 18.14444 C 80.7535 % 14.79 C
3382 01-08-2016 00:00:00 16.63958 C 78.4757 % 12.88 C
3383 02-08-2016 00:00:00 16.16875 C 92.2986 % 14.92 C
3384 03-08-2016 00:00:00 18.55174 C 94.0938 % 17.58 C
3385 04-08-2016 00:00:00 18.01667 C 94.7188 % 17.16 C
3386 05-08-2016 00:00:00 16.58403 C 88.5486 % 14.69 C
3387 06-08-2016 00:00:00 17.59097 C 86.3924 % 15.29 C
3388 07-08-2016 00:00:00 18.92153 C 81.4306 % 15.67 C
3389 08-08-2016 00:00:00 19.25521 C 77.6701 % 15.26 C
3390 09-08-2016 00:00:00 16.42986 C 72.2361 % 11.42 C
3391 10-08-2016 00:00:00 13.02465 C 80.0243 % 9.66 C
3392 11-08-2016 00:00:00 12.3 C 83.5417 % 9.6 C
3393 12-08-2016 00:00:00 17.31701 C 90.8264 % 15.8 C
3394 13-08-2016 00:00:00 20.62604 C 78.3715 % 16.73 C
3395 14-08-2016 00:00:00 19.08924 C 80.5139 % 15.66 C
3396 15-08-2016 00:00:00 18.95451 C 78.0243 % 15.04 C
3397 16-08-2016 00:00:00 18.07778 C 75.1632 % 13.61 C
3398 17-08-2016 00:00:00 18.14653 C 73.3785 % 13.31 C
3399 18-08-2016 00:00:00 17.22743 C 82.1597 % 14.16 C
3400 19-08-2016 00:00:00 19.36181 C 83.5174 % 16.5 C
Sensor: Nr:Datum:Temp:Feuchte:Taupunkt:
Aussen-T/F 3401 20-08-2016 00:00:00 18.84757 C 83.1701 % 15.93 C
3402 21-08-2016 00:00:00 17.07361 C 80.3611 % 13.67 C
3403 22-08-2016 00:00:00 17.30799 C 84.0833 % 14.59 C
3404 23-08-2016 00:00:00 19.09167 C 77.7708 % 15.12 C
3405 24-08-2016 00:00:00 20.54583 C 77.3750 % 16.45 C
3406 25-08-2016 00:00:00 21.59896 C 76.2118 % 17.23 C
3407 26-08-2016 00:00:00 22.53715 C 76.8542 % 18.27 C
3408 27-08-2016 00:00:00 23.96528 C 78.7674 % 20.05 C
3409 28-08-2016 00:00:00 23.4684 C 72.0660 % 18.14 C
3410 29-08-2016 00:00:00 18.98993 C 79.2326 % 15.31 C
3411 30-08-2016 00:00:00 18.11736 C 75.7917 % 13.78 C
3412 31-08-2016 00:00:00 17.84514 C 77.5278 % 13.86 C
3413 01-09-2016 00:00:00 19.62431 C 75.6736 % 15.21 C
3414 02-09-2016 00:00:00 18.78785 C 78.7361 % 15.02 C
3415 03-09-2016 00:00:00 20.71944 C 73.6319 % 15.84 C
3416 04-09-2016 00:00:00 18.18681 C 81.7396 % 15.02 C
3417 05-09-2016 00:00:00 17.73715 C 79.3021 % 14.11 C
3418 06-09-2016 00:00:00 16.62882 C 82.0938 % 13.56 C
3419 07-09-2016 00:00:00 17.39792 C 80.3299 % 13.98 C
3420 08-09-2016 00:00:00 19.44722 C 79.7535 % 15.86 C
3421 09-09-2016 00:00:00 20.12222 C 70.5451 % 14.6 C
3422 10-09-2016 00:00:00 19.21944 C 81.0729 % 15.89 C
3423 11-09-2016 00:00:00 18.8684 C 76.5243 % 14.65 C
3424 12-09-2016 00:00:00 19.58437 C 79.0764 % 15.86 C
3425 13-09-2016 00:00:00 21.20937 C 77.7431 % 17.17 C
Sensor: Nr:Datum:Temp:Feuchte:Taupunkt:
Aussen-T/F 3426 14-09-2016 00:00:00 20.91319 C 74.3924 % 16.19 C
3427 15-09-2016 00:00:00 20.02847 C 76.3229 % 15.74 C
3428 16-09-2016 00:00:00 17.33889 C 85.6076 % 14.9 C
3429 17-09-2016 00:00:00 15.96146 C 85.0660 % 13.45 C
3430 18-09-2016 00:00:00 17.13993 C 89.9549 % 15.48 C
3431 19-09-2016 00:00:00 15.49201 C 84.4688 % 12.89 C
3432 20-09-2016 00:00:00 14.8184 C 88.4965 % 12.94 C
3433 21-09-2016 00:00:00 13.86563 C 78.4618 % 10.19 C
3434 22-09-2016 00:00:00 11.70625 C 84.6944 % 9.22 C
3435 23-09-2016 00:00:00 13.62518 C 86.6383 % 11.44 C
3436 24-09-2016 00:00:00 13.82326 C 85.2188 % 11.39 C
3437 25-09-2016 00:00:00 14.39201 C 85.4653 % 11.99 C
3438 26-09-2016 00:00:00 14.99062 C 86.0799 % 12.68 C
3439 27-09-2016 00:00:00 13.42847 C 93.2951 % 12.37 C
3440 28-09-2016 00:00:00 15.2816 C 85.6632 % 12.9 C
3441 29-09-2016 00:00:00 18.69375 C 79.3299 % 15.04 C
3442 30-09-2016 00:00:00 15.12813 C 89.0451 % 13.34 C
3443 01-10-2016 00:00:00 13.55804 C 95.6643 % 12.88 C
3444 02-10-2016 00:00:00 12.49271 C 89.3333 % 10.79 C
3445 03-10-2016 00:00:00 12.49236 C 92.3958 % 11.29 C
3446 04-10-2016 00:00:00 10.89931 C 93.8333 % 9.95 C
3447 05-10-2016 00:00:00 8.62465 C 83.2986 % 5.96 C
3448 06-10-2016 00:00:00 7.98125 C 88.4201 % 6.19 C
3449 07-10-2016 00:00:00 10.85069 C 93.5208 % 9.85 C
3450 08-10-2016 00:00:00 9.28854 C 94.1042 % 8.39 C
Sensor: Nr:Datum:Temp:Feuchte:Taupunkt:
Aussen-T/F 3451 09-10-2016 00:00:00 8.50868 C 91.9167 % 7.27 C
3452 10-10-2016 00:00:00 6.46875 C 92.8993 % 5.41 C
3453 11-10-2016 00:00:00 7.98993 C 90.9514 % 6.61 C
3454 12-10-2016 00:00:00 8.69201 C 90.6111 % 7.24 C
3455 13-10-2016 00:00:00 7.54583 C 87.7118 % 5.64 C
3456 14-10-2016 00:00:00 9.31042 C 87.7674 % 7.39 C
3457 15-10-2016 00:00:00 11.21667 C 90.9028 % 9.79 C
3458 16-10-2016 00:00:00 8.72222 C 95.3646 % 8.02 C
3459 17-10-2016 00:00:00 10.64132 C 96.5833 % 10.12 C
3460 18-10-2016 00:00:00 11.33924 C 92.4236 % 10.16 C
3461 19-10-2016 00:00:00 9.26389 C 89.1597 % 7.57 C
3462 20-10-2016 00:00:00 8.03368 C 95.9097 % 7.42 C
3463 21-10-2016 00:00:00 7.65845 C 95.9498 % 7.05 C
3464 22-10-2016 00:00:00 7.80729 C 96.0000 % 7.21 C
3465 23-10-2016 00:00:00 6.84236 C 95.3368 % 6.15 C
3466 24-10-2016 00:00:00 9.37778 C 96.9931 % 8.93 C
3467 25-10-2016 00:00:00 11.21424 C 95.8507 % 10.58 C
3468 26-10-2016 00:00:00 9.47049 C 94.1597 % 8.58 C
3469 27-10-2016 00:00:00 8.9309 C 95.3750 % 8.23 C
3470 28-10-2016 00:00:00 11.35833 C 91.6597 % 10.05 C
3471 29-10-2016 00:00:00 11.58854 C 90.4965 % 10.09 C
3472 30-10-2016 00:00:00 7.61215 C 95.8229 % 6.99 C
3473 31-10-2016 00:00:00 7.10417 C 96.0694 % 6.52 C
3474 01-11-2016 00:00:00 6.92431 C 97.0694 % 6.49 C
3475 02-11-2016 00:00:00 7.39618 C 91.7292 % 6.14 C
Sensor: Nr:Datum:Temp:Feuchte:Taupunkt:
Aussen-T/F 3476 03-11-2016 00:00:00 6.31493 C 91.8819 % 5.09 C
3477 04-11-2016 00:00:00 4.72674 C 94.8819 % 3.98 C
3478 05-11-2016 00:00:00 6.88299 C 96.7118 % 6.4 C
3479 06-11-2016 00:00:00 5.54201 C 89.6458 % 3.98 C
3480 07-11-2016 00:00:00 4.69097 C 93.6354 % 3.75 C
3481 08-11-2016 00:00:00 3.20521 C 92.4167 % 2.1 C
3482 09-11-2016 00:00:00 3.69722 C 94.5417 % 2.9 C
3483 10-11-2016 00:00:00 5.22847 C 94.8403 % 4.47 C
3484 11-11-2016 00:00:00 5.08785 C 96.2569 % 4.54 C
3485 12-11-2016 00:00:00 2.06181 C 93.0764 % 1.06 C
3486 13-11-2016 00:00:00 2.12049 C 91.5347 % 0.89 C
3487 14-11-2016 00:00:00 -0.38611 C 93.0799 % -1.37 C
3488 15-11-2016 00:00:00 4.75208 C 92.9931 % 3.72 C
3489 16-11-2016 00:00:00 9.88715 C 95.6910 % 9.23 C
3490 17-11-2016 00:00:00 10.99757 C 89.4340 % 9.33 C
3491 18-11-2016 00:00:00 9.44792 C 85.6667 % 7.17 C
3492 19-11-2016 00:00:00 5.51319 C 87.6146 % 3.63 C
3493 20-11-2016 00:00:00 9.3559 C 81.1806 % 6.3 C
3494 21-11-2016 00:00:00 10.27813 C 92.0208 % 9.04 C
3495 22-11-2016 00:00:00 10.22222 C 93.8160 % 9.27 C
3496 23-11-2016 00:00:00 8.56389 C 96.9931 % 8.11 C
3497 24-11-2016 00:00:00 8.79306 C 94.5590 % 7.97 C
3498 25-11-2016 00:00:00 7.72222 C 85.3924 % 5.43 C
3499 26-11-2016 00:00:00 6.87708 C 88.3542 % 5.09 C
3500 27-11-2016 00:00:00 5.11215 C 92.9514 % 4.07 C
Sensor: Nr:Datum:Temp:Feuchte:Taupunkt:
Aussen-T/F 3501 28-11-2016 00:00:00 -0.13333 C 93.4583 % -1.06 C
3502 29-11-2016 00:00:00 -2.74097 C 91.0382 % -4 C
3503 30-11-2016 00:00:00 -2.71076 C 92.1319 % -3.81 C
3504 01-12-2016 00:00:00 3.3875 C 84.6354 % 1.05 C
3505 02-12-2016 00:00:00 5.17361 C 93.7917 % 4.26 C
3506 03-12-2016 00:00:00 -0.32882 C 96.9410 % -0.75 C
3507 04-12-2016 00:00:00 -2.61215 C 96.1840 % -3.13 C
3508 05-12-2016 00:00:00 -3.83507 C 95.3438 % -4.47 C
3509 06-12-2016 00:00:00 -3.15903 C 95.5972 % -3.76 C
3510 07-12-2016 00:00:00 -0.29965 C 96.1111 % -0.84 C
3511 08-12-2016 00:00:00 1.07778 C 94.8542 % 0.35 C
3512 09-12-2016 00:00:00 6.58819 C 84.4861 % 4.17 C
3513 10-12-2016 00:00:00 5.04201 C 91.7743 % 3.82 C
3514 11-12-2016 00:00:00 8.10174 C 85.5174 % 5.82 C
3515 12-12-2016 00:00:00 6.76563 C 92.9792 % 5.71 C
3516 13-12-2016 00:00:00 4.10868 C 96.3160 % 3.58 C
3517 14-12-2016 00:00:00 6.42569 C 95.7986 % 5.81 C
3518 15-12-2016 00:00:00 6.89583 C 94.3924 % 6.06 C
3519 16-12-2016 00:00:00 4.60451 C 88.2778 % 2.84 C
3520 17-12-2016 00:00:00 3.86806 C 91.7222 % 2.65 C
3521 18-12-2016 00:00:00 5.3059 C 94.3750 % 4.48 C
3522 19-12-2016 00:00:00 4.3816 C 89.4236 % 2.8 C
3523 20-12-2016 00:00:00 1.0875 C 91.6424 % -0.12 C
3524 21-12-2016 00:00:00 2.26076 C 91.9444 % 1.09 C
3525 22-12-2016 00:00:00 3.84896 C 93.6701 % 2.92 C
Sensor: Nr:Datum:Temp:Feuchte:Taupunkt:
Aussen-T/F 3526 23-12-2016 00:00:00 4.14757 C 95.4340 % 3.48 C
3527 24-12-2016 00:00:00 7.17188 C 86.6597 % 5.1 C
3528 25-12-2016 00:00:00 8.5434 C 89.2674 % 6.88 C
3529 26-12-2016 00:00:00 7.71215 C 88.2118 % 5.89 C
3530 27-12-2016 00:00:00 4.30139 C 88.8160 % 2.62 C
3531 28-12-2016 00:00:00 3.53819 C 90.0035 % 2.06 C
3532 29-12-2016 00:00:00 -1.78438 C 96.3299 % -2.29 C
3533 30-12-2016 00:00:00 -2.37014 C 96.3924 % -2.86 C
3534 31-12-2016 00:00:00 -4.09028 C 95.6424 % -4.68 C
3535 01-01-2017 00:00:00 -2.24792 C 95.3854 % -2.88 C
3536 02-01-2017 00:00:00 0.68021 C 94.3229 % -0.12 C
3537 03-01-2017 00:00:00 1.83819 C 91.4340 % 0.59 C
3538 04-01-2017 00:00:00 3.52049 C 90.0556 % 2.05 C
3539 05-01-2017 00:00:00 0.04687 C 83.2813 % -2.44 C
3540 06-01-2017 00:00:00 -6.48125 C 90.3090 % -7.8 C
3541 07-01-2017 00:00:00 -4.20694 C 86.7674 % -6.08 C
3542 08-01-2017 00:00:00 0.59306 C 95.4583 % -0.05 C
3543 09-01-2017 00:00:00 2.15 C 93.8819 % 1.27 C
3544 10-01-2017 00:00:00 1.40799 C 95.5625 % 0.78 C
3545 11-01-2017 00:00:00 3.72639 C 93.5799 % 2.79 C
3546 12-01-2017 00:00:00 4.3066 C 88.2396 % 2.54 C
3547 13-01-2017 00:00:00 2.18576 C 91.4097 % 0.94 C
3548 14-01-2017 00:00:00 2.66806 C 85.3611 % 0.46 C
3549 15-01-2017 00:00:00 0.83819 C 92.1910 % -0.28 C
3550 16-01-2017 00:00:00 -1.62361 C 93.6910 % -2.5 C
Sensor: Nr:Datum:Temp:Feuchte:Taupunkt:
Aussen-T/F 3551 17-01-2017 00:00:00 -3.91493 C 91.1875 % -5.14 C
3552 18-01-2017 00:00:00 -5.38646 C 91.6875 % -6.52 C
3553 19-01-2017 00:00:00 -6.17292 C 92.2153 % -7.23 C
3554 20-01-2017 00:00:00 -6.54167 C 91.1458 % -7.74 C
3555 21-01-2017 00:00:00 -5.94167 C 92.0660 % -7.02 C
3556 22-01-2017 00:00:00 -7.48889 C 92.6806 % -8.47 C
3557 23-01-2017 00:00:00 -5.41458 C 93.0035 % -6.36 C
3558 24-01-2017 00:00:00 -0.75035 C 91.2257 % -2 C
3559 25-01-2017 00:00:00 -1.16701 C 83.8021 % -3.55 C
3560 26-01-2017 00:00:00 -1.71667 C 84.5069 % -3.98 C
3561 27-01-2017 00:00:00 -3.44306 C 90.2188 % -4.81 C
3562 28-01-2017 00:00:00 -1.90347 C 90.7083 % -3.22 C
3563 29-01-2017 00:00:00 2.8691 C 91.9722 % 1.7 C
3564 30-01-2017 00:00:00 4.73507 C 94.6528 % 3.95 C
3565 31-01-2017 00:00:00 3.29583 C 91.5174 % 2.05 C
3566 01-02-2017 00:00:00 3.48611 C 87.9896 % 1.69 C
3567 02-02-2017 00:00:00 5.1434 C 94.4132 % 4.32 C
3568 03-02-2017 00:00:00 5.66007 C 94.2396 % 4.81 C
3569 04-02-2017 00:00:00 6.00556 C 89.9549 % 4.49 C
3570 05-02-2017 00:00:00 4.83993 C 91.1181 % 3.52 C
3571 06-02-2017 00:00:00 3.82396 C 89.6493 % 2.28 C
3572 07-02-2017 00:00:00 4.2184 C 89.5347 % 2.66 C
3573 08-02-2017 00:00:00 2.98785 C 85.8160 % 0.85 C
3574 09-02-2017 00:00:00 0.05903 C 84.0729 % -2.3 C
3575 10-02-2017 00:00:00 0.67222 C 82.7813 % -1.91 C
Sensor: Nr:Datum:Temp:Feuchte:Taupunkt:
Aussen-T/F 3576 11-02-2017 00:00:00 1.79896 C 93.6910 % 0.89 C
3577 12-02-2017 00:00:00 2.74132 C 92.1215 % 1.59 C
3578 13-02-2017 00:00:00 3.48576 C 82.9653 % 0.87 C
3579 14-02-2017 00:00:00 1.66042 C 85.0833 % -0.57 C
3580 15-02-2017 00:00:00 2.27639 C 90.1181 % 0.83 C
3581 16-02-2017 00:00:00 4.06597 C 95.0382 % 3.34 C
3582 17-02-2017 00:00:00 6.02222 C 95.7882 % 5.4 C
3583 18-02-2017 00:00:00 5.94097 C 89.9375 % 4.42 C
3584 19-02-2017 00:00:00 3.47083 C 91.4722 % 2.22 C
3585 20-02-2017 00:00:00 8.45104 C 91.1111 % 7.09 C
3586 21-02-2017 00:00:00 10.41458 C 92.1806 % 9.2 C
3587 22-02-2017 00:00:00 11.10243 C 86.9167 % 9.01 C
3588 23-02-2017 00:00:00 9.37708 C 82.3160 % 6.52 C
3589 24-02-2017 00:00:00 5.21007 C 80.1215 % 2.07 C
3590 25-02-2017 00:00:00 3.83993 C 84.8889 % 1.54 C
3591 26-02-2017 00:00:00 8.62951 C 75.2188 % 4.5 C
3592 27-02-2017 00:00:00 10.96042 C 73.1771 % 6.35 C
3593 28-02-2017 00:00:00 5.79618 C 82.1285 % 2.99 C
3594 01-03-2017 00:00:00 6.67257 C 86.8229 % 4.64 C
3595 02-03-2017 00:00:00 8.27986 C 68.5764 % 2.85 C
3596 03-03-2017 00:00:00 6.21771 C 76.6840 % 2.44 C
3597 04-03-2017 00:00:00 10.95451 C 72.5382 % 6.22 C
3598 05-03-2017 00:00:00 7.21354 C 86.9063 % 5.18 C
3599 06-03-2017 00:00:00 6.48333 C 88.9306 % 4.79 C
3600 07-03-2017 00:00:00 6.06806 C 92.0243 % 4.87 C
Sensor: Nr:Datum:Temp:Feuchte:Taupunkt:
Aussen-T/F 3601 08-03-2017 00:00:00 5.01528 C 95.6597 % 4.38 C
3602 09-03-2017 00:00:00 11.11146 C 85.3472 % 8.75 C
3603 10-03-2017 00:00:00 7.4684 C 74.9896 % 3.33 C
3604 11-03-2017 00:00:00 6.7316 C 76.7847 % 2.95 C
3605 12-03-2017 00:00:00 6.62813 C 73.0590 % 2.15 C
3606 13-03-2017 00:00:00 6.71007 C 76.5278 % 2.88 C
3607 14-03-2017 00:00:00 9.45625 C 79.7708 % 6.14 C
3608 15-03-2017 00:00:00 10.41493 C 79.8819 % 7.1 C
3609 16-03-2017 00:00:00 8.32569 C 79.1250 % 4.93 C
3610 17-03-2017 00:00:00 8.68507 C 77.3438 % 4.95 C
3611 18-03-2017 00:00:00 9.53889 C 87.9514 % 7.64 C
3612 19-03-2017 00:00:00 12.1559 C 84.9444 % 9.7 C
3613 20-03-2017 00:00:00 11.60278 C 74.2986 % 7.19 C
3614 21-03-2017 00:00:00 9.375 C 83.3090 % 6.69 C
3615 22-03-2017 00:00:00 5.39132 C 87.9861 % 3.57 C
3616 23-03-2017 00:00:00 8.8434 C 81.9097 % 5.93 C
3617 24-03-2017 00:00:00 9.49444 C 76.3194 % 5.54 C
3618 25-03-2017 00:00:00 9.21424 C 65.5590 % 3.11 C
3619 26-03-2017 00:00:00 9.36594 C 63.8080 % 2.87 C
3620 27-03-2017 00:00:00 8.83194 C 64.8194 % 2.59 C
3621 28-03-2017 00:00:00 10.73819 C 69.2431 % 5.34 C
3622 29-03-2017 00:00:00 12.89063 C 73.7014 % 8.31 C
3623 30-03-2017 00:00:00 14.33507 C 72.3819 % 9.44 C
3624 31-03-2017 00:00:00 13.69896 C 69.0938 % 8.14 C
3625 01-04-2017 00:00:00 13.59792 C 71.9792 % 8.65 C
Sensor: Nr:Datum:Temp:Feuchte:Taupunkt:
Aussen-T/F 3626 02-04-2017 00:00:00 11.71736 C 74.2222 % 7.29 C
3627 03-04-2017 00:00:00 10.47257 C 76.1042 % 6.45 C
3628 04-04-2017 00:00:00 9.3059 C 73.6285 % 4.85 C
3629 05-04-2017 00:00:00 8.78889 C 75.9444 % 4.79 C
3630 06-04-2017 00:00:00 8.65278 C 73.7292 % 4.23 C
3631 07-04-2017 00:00:00 11.31566 C 70.4578 % 6.14 C
3632 08-04-2017 00:00:00 14.59887 C 63.6780 % 7.8 C
3633 09-04-2017 00:00:00 12.46215 C 72.6910 % 7.7 C
3634 10-04-2017 00:00:00 10.93993 C 75.5174 % 6.79 C
3635 11-04-2017 00:00:00 9.67188 C 68.7778 % 4.22 C
3636 12-04-2017 00:00:00 11.34167 C 67.3993 % 5.53 C
3637 13-04-2017 00:00:00 11.57153 C 68.3403 % 5.95 C
3638 14-04-2017 00:00:00 9.77708 C 68.5660 % 4.28 C
3639 15-04-2017 00:00:00 9.0875 C 81.6493 % 6.12 C
3640 16-04-2017 00:00:00 7.52083 C 79.0590 % 4.13 C
3641 17-04-2017 00:00:00 6.82257 C 84.8090 % 4.45 C
3642 18-04-2017 00:00:00 5.52187 C 80.9167 % 2.51 C
3643 19-04-2017 00:00:00 4.23646 C 70.6042 % -0.62 C
3644 20-04-2017 00:00:00 4.68715 C 68.7882 % -0.54 C
3645 21-04-2017 00:00:00 7.98299 C 70.7431 % 3 C
3646 22-04-2017 00:00:00 9.60278 C 72.4063 % 4.89 C
3647 23-04-2017 00:00:00 7.34722 C 68.6632 % 1.98 C
3648 24-04-2017 00:00:00 8.25764 C 68.6424 % 2.84 C

Maximal/Minimal-Werte vom 25.04.2007 - 24.04.2017

Sensor Min Max Avg
Temp
(Aussen-T/F)
-16.4 °C
20-12-2009  01:30:01
38.6 °C
04-07-2015  16:30:00
10.77 °C
Feuchte
(Aussen-T/F)
18 %
17-07-2015  15:55:00
100 %
07-10-2012  03:05:00
78.43 %
Taupunkt
(Aussen-T/F)
-19.18 C
19-12-2009  00:00:00
21.36 C
19-06-2013  00:00:00
6.39 C

Die Daten stammen von einer Davis Vantage Pro 2 Wetter-Station und werden unter Linux mit der Software wview2wettercgi und aufbereitet. Alle Angaben erfolgen ohne Gewähr für ihre Vollständigkeit oder Richtigkeit.
Kontakt: Rainer Krienke krienke@uni-koblenz.de . Meine Webseiten an der Uni Koblenz oder privat.
Version: $Revision: 0.78 $